Wetterdaten: Sonntag, 05.04.2026
Datum Zeit Temp. I. Temp. A. Feuchte I. Feuchte A. Luftdruck Regen Wind Richtung Richtung Sonnenschein Solar Taupunkt Windchill Windböen
05.04.2026 00:00 19,3 °C 10,8 °C 47 % 81 % 1018,0 hPa 0,0 l/m² 9,2 km/h (2 Bft) S 181 ° 0 min 0 W/m² 7,7 °C 8,9 °C 11,3 km/h (2 Bft)
05.04.2026 00:02 19,3 °C 10,8 °C 47 % 81 % 1017,9 hPa 0,0 l/m² 8,7 km/h (2 Bft) S 180 ° 0 min 0 W/m² 7,7 °C 9,2 °C 11,3 km/h (2 Bft)
05.04.2026 00:03 19,3 °C 10,8 °C 47 % 81 % 1018,0 hPa 0,0 l/m² 6,6 km/h (2 Bft) S 180 ° 0 min 0 W/m² 7,7 °C 10,7 °C 9,7 km/h (2 Bft)
05.04.2026 00:05 19,3 °C 10,9 °C 47 % 81 % 1017,8 hPa 0,0 l/m² 5,5 km/h (2 Bft) S 178 ° 0 min 0 W/m² 7,8 °C 10,9 °C 6,4 km/h (2 Bft)
05.04.2026 00:07 19,3 °C 10,9 °C 47 % 81 % 1017,9 hPa 0,0 l/m² 5,8 km/h (2 Bft) S 175 ° 0 min 0 W/m² 7,8 °C 10,9 °C 11,3 km/h (2 Bft)
05.04.2026 00:09 19,3 °C 10,9 °C 47 % 81 % 1017,8 hPa 0,0 l/m² 7,1 km/h (2 Bft) S 175 ° 0 min 0 W/m² 7,8 °C 10,4 °C 9,7 km/h (2 Bft)
05.04.2026 00:11 19,3 °C 11,0 °C 47 % 81 % 1017,8 hPa 0,0 l/m² 7,1 km/h (2 Bft) S 180 ° 0 min 0 W/m² 7,9 °C 10,5 °C 11,3 km/h (2 Bft)
05.04.2026 00:12 19,3 °C 11,0 °C 47 % 81 % 1017,9 hPa 0,0 l/m² 6,6 km/h (2 Bft) S 173 ° 0 min 0 W/m² 7,9 °C 10,9 °C 9,7 km/h (2 Bft)
05.04.2026 00:13 19,3 °C 11,0 °C 47 % 81 % 1017,8 hPa 0,0 l/m² 6,1 km/h (2 Bft) S 180 ° 0 min 0 W/m² 7,9 °C 11,0 °C 9,7 km/h (2 Bft)
05.04.2026 00:14 19,3 °C 11,1 °C 47 % 81 % 1017,8 hPa 0,0 l/m² 7,6 km/h (2 Bft) S 178 ° 0 min 0 W/m² 8,0 °C 10,3 °C 9,7 km/h (2 Bft)
05.04.2026 00:16 19,3 °C 11,1 °C 47 % 81 % 1017,8 hPa 0,0 l/m² 6,1 km/h (2 Bft) S-SO 164 ° 0 min 0 W/m² 8,0 °C 11,1 °C 8,0 km/h (2 Bft)
05.04.2026 00:18 19,3 °C 11,1 °C 47 % 81 % 1017,9 hPa 0,0 l/m² 6,2 km/h (2 Bft) S 169 ° 0 min 0 W/m² 8,0 °C 11,1 °C 11,3 km/h (2 Bft)
05.04.2026 00:20 19,3 °C 11,1 °C 47 % 81 % 1017,9 hPa 0,0 l/m² 5,4 km/h (2 Bft) S 173 ° 0 min 0 W/m² 8,0 °C 11,1 °C 9,7 km/h (2 Bft)
05.04.2026 00:22 19,3 °C 11,2 °C 47 % 81 % 1017,8 hPa 0,0 l/m² 6,3 km/h (2 Bft) S-SO 167 ° 0 min 0 W/m² 8,1 °C 11,2 °C 9,7 km/h (2 Bft)
05.04.2026 00:23 19,3 °C 11,2 °C 47 % 81 % 1017,8 hPa 0,0 l/m² 7,0 km/h (2 Bft) S 171 ° 0 min 0 W/m² 8,1 °C 10,8 °C 9,7 km/h (2 Bft)
05.04.2026 00:24 19,3 °C 11,2 °C 47 % 81 % 1017,8 hPa 0,0 l/m² 4,2 km/h (1 Bft) S 171 ° 0 min 0 W/m² 8,1 °C 11,2 °C 8,0 km/h (2 Bft)
05.04.2026 00:26 19,3 °C 11,2 °C 47 % 80 % 1017,8 hPa 0,0 l/m² 3,8 km/h (1 Bft) S 169 ° 0 min 0 W/m² 7,9 °C 11,2 °C 8,0 km/h (2 Bft)
05.04.2026 00:28 19,3 °C 11,2 °C 47 % 80 % 1017,8 hPa 0,0 l/m² 1,7 km/h (1 Bft) S-SO 167 ° 0 min 0 W/m² 7,9 °C 11,2 °C 4,8 km/h (1 Bft)
05.04.2026 00:30 19,3 °C 11,2 °C 47 % 80 % 1017,8 hPa 0,0 l/m² 5,8 km/h (2 Bft) S 170 ° 0 min 0 W/m² 7,9 °C 11,2 °C 9,7 km/h (2 Bft)
05.04.2026 00:32 19,3 °C 11,2 °C 47 % 80 % 1017,8 hPa 0,0 l/m² 4,7 km/h (1 Bft) S-SO 159 ° 0 min 0 W/m² 7,9 °C 11,2 °C 8,0 km/h (2 Bft)
05.04.2026 00:33 19,3 °C 11,2 °C 47 % 80 % 1017,8 hPa 0,0 l/m² 3,4 km/h (1 Bft) S-SO 165 ° 0 min 0 W/m² 7,9 °C 11,2 °C 6,4 km/h (2 Bft)
05.04.2026 00:34 19,3 °C 11,2 °C 47 % 80 % 1017,8 hPa 0,0 l/m² 6,2 km/h (2 Bft) S-SO 168 ° 0 min 0 W/m² 7,9 °C 11,2 °C 8,0 km/h (2 Bft)
05.04.2026 00:36 19,3 °C 11,2 °C 47 % 80 % 1017,7 hPa 0,0 l/m² 3,8 km/h (1 Bft) S 171 ° 0 min 0 W/m² 7,9 °C 11,2 °C 8,0 km/h (2 Bft)
05.04.2026 00:38 19,3 °C 11,2 °C 47 % 80 % 1017,6 hPa 0,0 l/m² 4,6 km/h (1 Bft) S 175 ° 0 min 0 W/m² 7,9 °C 11,2 °C 9,7 km/h (2 Bft)
05.04.2026 00:40 19,3 °C 11,2 °C 47 % 81 % 1017,6 hPa 0,0 l/m² 4,1 km/h (1 Bft) S 175 ° 0 min 0 W/m² 8,1 °C 11,2 °C 8,0 km/h (2 Bft)
05.04.2026 00:42 19,3 °C 11,2 °C 47 % 81 % 1017,6 hPa 0,0 l/m² 5,4 km/h (2 Bft) S-SO 159 ° 0 min 0 W/m² 8,1 °C 11,2 °C 8,0 km/h (2 Bft)
05.04.2026 00:43 19,3 °C 11,2 °C 47 % 81 % 1017,6 hPa 0,0 l/m² 4,4 km/h (1 Bft) S-SO 159 ° 0 min 0 W/m² 8,1 °C 11,2 °C 6,4 km/h (2 Bft)
05.04.2026 00:46 19,3 °C 11,2 °C 47 % 81 % 1017,5 hPa 0,0 l/m² 3,5 km/h (1 Bft) S-SO 154 ° 0 min 0 W/m² 8,1 °C 11,2 °C 9,7 km/h (2 Bft)
05.04.2026 00:48 19,3 °C 11,3 °C 47 % 81 % 1017,5 hPa 0,0 l/m² 6,2 km/h (2 Bft) S-SO 160 ° 0 min 0 W/m² 8,2 °C 11,3 °C 11,3 km/h (2 Bft)
05.04.2026 00:50 19,3 °C 11,3 °C 47 % 81 % 1017,5 hPa 0,0 l/m² 6,8 km/h (2 Bft) S-SO 148 ° 0 min 0 W/m² 8,2 °C 11,0 °C 11,3 km/h (2 Bft)
05.04.2026 00:52 19,3 °C 11,3 °C 47 % 81 % 1017,5 hPa 0,0 l/m² 7,4 km/h (2 Bft) S-SO 155 ° 0 min 0 W/m² 8,2 °C 10,6 °C 11,3 km/h (2 Bft)
05.04.2026 00:53 19,3 °C 11,3 °C 47 % 81 % 1017,5 hPa 0,0 l/m² 6,6 km/h (2 Bft) S-SO 158 ° 0 min 0 W/m² 8,2 °C 11,2 °C 9,7 km/h (2 Bft)
05.04.2026 00:54 19,3 °C 11,3 °C 47 % 81 % 1017,5 hPa 0,0 l/m² 8,6 km/h (2 Bft) S-SO 153 ° 0 min 0 W/m² 8,2 °C 9,8 °C 12,9 km/h (3 Bft)
05.04.2026 00:56 19,3 °C 11,3 °C 47 % 80 % 1017,4 hPa 0,0 l/m² 5,7 km/h (2 Bft) S-SO 148 ° 0 min 0 W/m² 8,0 °C 11,3 °C 8,0 km/h (2 Bft)
05.04.2026 00:58 19,3 °C 11,3 °C 47 % 80 % 1017,4 hPa 0,0 l/m² 5,5 km/h (2 Bft) S-SO 148 ° 0 min 0 W/m² 8,0 °C 11,3 °C 8,0 km/h (2 Bft)
05.04.2026 01:00 19,3 °C 11,3 °C 47 % 80 % 1017,4 hPa 0,0 l/m² 7,9 km/h (2 Bft) SO 140 ° 0 min 0 W/m² 8,0 °C 10,3 °C 14,5 km/h (3 Bft)
05.04.2026 01:01 19,3 °C 11,3 °C 47 % 80 % 1017,3 hPa 0,0 l/m² 9,0 km/h (2 Bft) SO 142 ° 0 min 0 W/m² 8,0 °C 9,6 °C 12,9 km/h (3 Bft)
05.04.2026 01:02 19,3 °C 11,3 °C 47 % 80 % 1017,2 hPa 0,0 l/m² 6,4 km/h (2 Bft) S-SO 148 ° 0 min 0 W/m² 8,0 °C 11,3 °C 11,3 km/h (2 Bft)
05.04.2026 01:04 19,3 °C 11,3 °C 47 % 81 % 1017,2 hPa 0,0 l/m² 9,4 km/h (2 Bft) SO 146 ° 0 min 0 W/m² 8,2 °C 9,4 °C 14,5 km/h (3 Bft)
05.04.2026 01:05 19,3 °C 11,3 °C 47 % 81 % 1017,2 hPa 0,0 l/m² 6,9 km/h (2 Bft) SO 141 ° 0 min 0 W/m² 8,2 °C 11,0 °C 9,7 km/h (2 Bft)
05.04.2026 01:07 19,3 °C 11,3 °C 47 % 81 % 1017,1 hPa 0,0 l/m² 7,9 km/h (2 Bft) SO 135 ° 0 min 0 W/m² 8,2 °C 10,3 °C 12,9 km/h (3 Bft)
05.04.2026 01:09 19,3 °C 11,3 °C 47 % 81 % 1017,1 hPa 0,0 l/m² 7,4 km/h (2 Bft) O-SO 123 ° 0 min 0 W/m² 8,2 °C 10,6 °C 11,3 km/h (2 Bft)
05.04.2026 01:11 19,3 °C 11,3 °C 47 % 81 % 1017,1 hPa 0,0 l/m² 9,8 km/h (2 Bft) S-SO 159 ° 0 min 0 W/m² 8,2 °C 9,1 °C 14,5 km/h (3 Bft)
05.04.2026 01:12 19,3 °C 11,3 °C 47 % 81 % 1017,1 hPa 0,0 l/m² 9,9 km/h (2 Bft) S-SO 147 ° 0 min 0 W/m² 8,2 °C 9,1 °C 12,9 km/h (3 Bft)
05.04.2026 01:13 19,3 °C 11,3 °C 47 % 81 % 1017,1 hPa 0,0 l/m² 8,2 km/h (2 Bft) SO 146 ° 0 min 0 W/m² 8,2 °C 10,1 °C 9,7 km/h (2 Bft)
05.04.2026 01:15 19,3 °C 11,3 °C 47 % 81 % 1017,0 hPa 0,0 l/m² 10,2 km/h (2 Bft) SO 132 ° 0 min 0 W/m² 8,2 °C 8,9 °C 16,1 km/h (3 Bft)
05.04.2026 01:17 19,3 °C 11,3 °C 47 % 81 % 1017,0 hPa 0,0 l/m² 8,9 km/h (2 Bft) SO 137 ° 0 min 0 W/m² 8,2 °C 9,7 °C 12,9 km/h (3 Bft)
05.04.2026 01:19 19,3 °C 11,3 °C 47 % 81 % 1017,0 hPa 0,0 l/m² 8,6 km/h (2 Bft) O-SO 121 ° 0 min 0 W/m² 8,2 °C 9,8 °C 12,9 km/h (3 Bft)
05.04.2026 01:21 19,3 °C 11,3 °C 47 % 81 % 1017,0 hPa 0,0 l/m² 10,6 km/h (2 Bft) O-SO 121 ° 0 min 0 W/m² 8,2 °C 8,7 °C 14,5 km/h (3 Bft)
05.04.2026 01:22 19,3 °C 11,2 °C 47 % 81 % 1016,9 hPa 0,0 l/m² 9,1 km/h (2 Bft) SO 125 ° 0 min 0 W/m² 8,1 °C 9,4 °C 11,3 km/h (2 Bft)
05.04.2026 01:23 19,3 °C 11,2 °C 47 % 81 % 1016,9 hPa 0,0 l/m² 9,5 km/h (2 Bft) SO 141 ° 0 min 0 W/m² 8,1 °C 9,2 °C 12,9 km/h (3 Bft)
05.04.2026 01:25 19,3 °C 11,2 °C 47 % 81 % 1016,9 hPa 0,0 l/m² 10,9 km/h (2 Bft) SO 142 ° 0 min 0 W/m² 8,1 °C 8,4 °C 16,1 km/h (3 Bft)
05.04.2026 01:27 19,3 °C 11,2 °C 47 % 81 % 1016,9 hPa 0,0 l/m² 9,5 km/h (2 Bft) SO 139 ° 0 min 0 W/m² 8,1 °C 9,2 °C 14,5 km/h (3 Bft)
05.04.2026 01:29 19,3 °C 11,2 °C 47 % 81 % 1016,9 hPa 0,0 l/m² 8,6 km/h (2 Bft) SO 140 ° 0 min 0 W/m² 8,1 °C 9,7 °C 12,9 km/h (3 Bft)
05.04.2026 01:31 19,3 °C 11,1 °C 47 % 81 % 1016,8 hPa 0,0 l/m² 7,3 km/h (2 Bft) SO 139 ° 0 min 0 W/m² 8,0 °C 10,5 °C 11,3 km/h (2 Bft)
05.04.2026 01:32 19,3 °C 11,1 °C 47 % 81 % 1016,8 hPa 0,0 l/m² 7,8 km/h (2 Bft) S-SO 148 ° 0 min 0 W/m² 8,0 °C 10,1 °C 12,9 km/h (3 Bft)
05.04.2026 01:33 19,3 °C 11,1 °C 47 % 81 % 1016,7 hPa 0,0 l/m² 8,5 km/h (2 Bft) SO 146 ° 0 min 0 W/m² 8,0 °C 9,7 °C 12,9 km/h (3 Bft)
05.04.2026 01:35 19,3 °C 11,1 °C 47 % 81 % 1016,7 hPa 0,0 l/m² 6,8 km/h (2 Bft) SO 137 ° 0 min 0 W/m² 8,0 °C 10,8 °C 8,0 km/h (2 Bft)
05.04.2026 01:37 19,2 °C 11,1 °C 47 % 81 % 1016,7 hPa 0,0 l/m² 7,3 km/h (2 Bft) SO 134 ° 0 min 0 W/m² 8,0 °C 10,5 °C 12,9 km/h (3 Bft)
05.04.2026 01:39 19,3 °C 11,0 °C 47 % 81 % 1016,7 hPa 0,0 l/m² 8,0 km/h (2 Bft) SO 142 ° 0 min 0 W/m² 7,9 °C 9,9 °C 11,3 km/h (2 Bft)
05.04.2026 01:41 19,2 °C 10,9 °C 47 % 81 % 1016,6 hPa 0,0 l/m² 7,3 km/h (2 Bft) SO 136 ° 0 min 0 W/m² 7,8 °C 10,3 °C 12,9 km/h (3 Bft)
05.04.2026 01:42 19,3 °C 10,9 °C 47 % 81 % 1016,6 hPa 0,0 l/m² 7,0 km/h (2 Bft) SO 142 ° 0 min 0 W/m² 7,8 °C 10,5 °C 11,3 km/h (2 Bft)
05.04.2026 01:43 19,3 °C 10,9 °C 47 % 81 % 1016,6 hPa 0,0 l/m² 7,5 km/h (2 Bft) SO 132 ° 0 min 0 W/m² 7,8 °C 10,1 °C 11,3 km/h (2 Bft)
05.04.2026 01:45 19,2 °C 10,9 °C 47 % 82 % 1016,6 hPa 0,0 l/m² 7,8 km/h (2 Bft) SO 146 ° 0 min 0 W/m² 7,9 °C 9,9 °C 14,5 km/h (3 Bft)
05.04.2026 01:47 19,2 °C 10,9 °C 47 % 82 % 1016,6 hPa 0,0 l/m² 9,9 km/h (2 Bft) SO 135 ° 0 min 0 W/m² 7,9 °C 8,6 °C 14,5 km/h (3 Bft)
05.04.2026 01:49 19,3 °C 10,9 °C 47 % 82 % 1016,5 hPa 0,0 l/m² 11,0 km/h (2 Bft) S-SO 152 ° 0 min 0 W/m² 7,9 °C 8,1 °C 16,1 km/h (3 Bft)
05.04.2026 01:51 19,2 °C 10,8 °C 47 % 82 % 1016,6 hPa 0,0 l/m² 8,0 km/h (2 Bft) SO 129 ° 0 min 0 W/m² 7,9 °C 9,7 °C 12,9 km/h (3 Bft)
05.04.2026 01:52 19,3 °C 10,8 °C 47 % 82 % 1016,5 hPa 0,0 l/m² 6,3 km/h (2 Bft) S-SO 148 ° 0 min 0 W/m² 7,9 °C 10,8 °C 8,0 km/h (2 Bft)
05.04.2026 01:53 19,3 °C 10,8 °C 47 % 82 % 1016,5 hPa 0,0 l/m² 6,4 km/h (2 Bft) SO 125 ° 0 min 0 W/m² 7,9 °C 10,8 °C 8,0 km/h (2 Bft)
05.04.2026 01:55 19,2 °C 10,8 °C 47 % 82 % 1016,4 hPa 0,0 l/m² 8,9 km/h (2 Bft) SO 141 ° 0 min 0 W/m² 7,9 °C 9,1 °C 12,9 km/h (3 Bft)
05.04.2026 01:57 19,2 °C 10,8 °C 47 % 82 % 1016,4 hPa 0,0 l/m² 8,1 km/h (2 Bft) S-SO 150 ° 0 min 0 W/m² 7,9 °C 9,6 °C 12,9 km/h (3 Bft)
05.04.2026 01:59 19,2 °C 10,7 °C 47 % 82 % 1016,3 hPa 0,0 l/m² 11,2 km/h (2 Bft) S-SO 154 ° 0 min 0 W/m² 7,8 °C 7,7 °C 17,7 km/h (3 Bft)
05.04.2026 02:01 19,2 °C 10,7 °C 47 % 83 % 1016,3 hPa 0,0 l/m² 9,3 km/h (2 Bft) SO 132 ° 0 min 0 W/m² 7,9 °C 8,8 °C 12,9 km/h (3 Bft)
05.04.2026 02:02 19,2 °C 10,7 °C 47 % 83 % 1016,3 hPa 0,0 l/m² 9,3 km/h (2 Bft) SO 138 ° 0 min 0 W/m² 7,9 °C 8,8 °C 11,3 km/h (2 Bft)
05.04.2026 02:03 19,2 °C 10,7 °C 47 % 83 % 1016,2 hPa 0,0 l/m² 9,4 km/h (2 Bft) SO 138 ° 0 min 0 W/m² 7,9 °C 8,7 °C 12,9 km/h (3 Bft)
05.04.2026 02:05 19,2 °C 10,7 °C 47 % 83 % 1016,3 hPa 0,0 l/m² 10,9 km/h (2 Bft) SO 143 ° 0 min 0 W/m² 7,9 °C 7,9 °C 16,1 km/h (3 Bft)
05.04.2026 02:07 19,2 °C 10,7 °C 47 % 83 % 1016,2 hPa 0,0 l/m² 12,0 km/h (2 Bft) SO 128 ° 0 min 0 W/m² 7,9 °C 7,3 °C 19,3 km/h (3 Bft)
05.04.2026 02:09 19,2 °C 10,7 °C 47 % 83 % 1016,2 hPa 0,0 l/m² 12,0 km/h (2 Bft) S-SO 159 ° 0 min 0 W/m² 7,9 °C 7,3 °C 14,5 km/h (3 Bft)
05.04.2026 02:11 19,2 °C 10,7 °C 47 % 83 % 1016,2 hPa 0,0 l/m² 10,6 km/h (2 Bft) SO 143 ° 0 min 0 W/m² 7,9 °C 8,0 °C 14,5 km/h (3 Bft)
05.04.2026 02:12 19,2 °C 10,7 °C 47 % 83 % 1016,2 hPa 0,0 l/m² 6,9 km/h (2 Bft) S-SO 159 ° 0 min 0 W/m² 7,9 °C 10,4 °C 12,9 km/h (3 Bft)
05.04.2026 02:13 19,2 °C 10,7 °C 47 % 83 % 1016,3 hPa 0,0 l/m² 11,3 km/h (2 Bft) S-SO 152 ° 0 min 0 W/m² 7,9 °C 7,7 °C 14,5 km/h (3 Bft)
05.04.2026 02:15 19,2 °C 10,7 °C 47 % 83 % 1016,3 hPa 0,0 l/m² 9,4 km/h (2 Bft) S-SO 153 ° 0 min 0 W/m² 7,9 °C 8,7 °C 12,9 km/h (3 Bft)
05.04.2026 02:17 19,2 °C 10,6 °C 47 % 83 % 1016,2 hPa 0,0 l/m² 9,0 km/h (2 Bft) S-SO 156 ° 0 min 0 W/m² 7,8 °C 8,8 °C 14,5 km/h (3 Bft)
05.04.2026 02:19 19,2 °C 10,6 °C 47 % 83 % 1016,1 hPa 0,0 l/m² 8,5 km/h (2 Bft) S 173 ° 0 min 0 W/m² 7,8 °C 9,2 °C 11,3 km/h (2 Bft)
05.04.2026 02:21 19,2 °C 10,6 °C 47 % 84 % 1016,1 hPa 0,0 l/m² 4,9 km/h (1 Bft) S 176 ° 0 min 0 W/m² 8,0 °C 10,6 °C 9,7 km/h (2 Bft)
05.04.2026 02:22 19,2 °C 10,5 °C 47 % 84 % 1016,1 hPa 0,0 l/m² 4,4 km/h (1 Bft) S 180 ° 0 min 0 W/m² 7,9 °C 10,5 °C 8,0 km/h (2 Bft)
05.04.2026 02:23 19,2 °C 10,5 °C 47 % 84 % 1016,1 hPa 0,0 l/m² 6,4 km/h (2 Bft) S 182 ° 0 min 0 W/m² 7,9 °C 10,5 °C 8,0 km/h (2 Bft)
05.04.2026 02:25 19,2 °C 10,4 °C 47 % 84 % 1016,1 hPa 0,0 l/m² 7,5 km/h (2 Bft) S 173 ° 0 min 0 W/m² 7,8 °C 9,6 °C 12,9 km/h (3 Bft)
05.04.2026 02:27 19,2 °C 10,4 °C 47 % 84 % 1016,1 hPa 0,0 l/m² 8,5 km/h (2 Bft) S 181 ° 0 min 0 W/m² 7,8 °C 8,9 °C 14,5 km/h (3 Bft)
05.04.2026 02:29 19,2 °C 10,3 °C 47 % 84 % 1016,1 hPa 0,0 l/m² 9,0 km/h (2 Bft) S 188 ° 0 min 0 W/m² 7,7 °C 8,5 °C 14,5 km/h (3 Bft)
05.04.2026 02:31 19,2 °C 10,3 °C 47 % 84 % 1016,1 hPa 0,0 l/m² 9,7 km/h (2 Bft) S 173 ° 0 min 0 W/m² 7,7 °C 8,1 °C 19,3 km/h (3 Bft)
05.04.2026 02:32 19,2 °C 10,3 °C 47 % 84 % 1016,0 hPa 0,0 l/m² 7,5 km/h (2 Bft) S 187 ° 0 min 0 W/m² 7,7 °C 9,5 °C 9,7 km/h (2 Bft)
05.04.2026 02:33 19,2 °C 10,2 °C 47 % 84 % 1016,1 hPa 0,0 l/m² 9,0 km/h (2 Bft) S 179 ° 0 min 0 W/m² 7,6 °C 8,4 °C 11,3 km/h (2 Bft)
05.04.2026 02:35 19,2 °C 10,2 °C 47 % 84 % 1015,9 hPa 0,0 l/m² 8,4 km/h (2 Bft) S 179 ° 0 min 0 W/m² 7,6 °C 8,8 °C 12,9 km/h (3 Bft)
05.04.2026 02:37 19,2 °C 10,1 °C 47 % 85 % 1015,9 hPa 0,0 l/m² 8,6 km/h (2 Bft) S-SO 151 ° 0 min 0 W/m² 7,7 °C 8,6 °C 12,9 km/h (3 Bft)
05.04.2026 02:39 19,2 °C 10,1 °C 47 % 85 % 1015,9 hPa 0,0 l/m² 10,6 km/h (2 Bft) S 183 ° 0 min 0 W/m² 7,7 °C 7,4 °C 17,7 km/h (3 Bft)
05.04.2026 02:41 19,2 °C 10,1 °C 47 % 85 % 1015,9 hPa 0,0 l/m² 10,3 km/h (2 Bft) S-SO 166 ° 0 min 0 W/m² 7,7 °C 7,5 °C 14,5 km/h (3 Bft)
05.04.2026 02:42 19,2 °C 10,1 °C 47 % 85 % 1015,8 hPa 0,0 l/m² 9,0 km/h (2 Bft) S 179 ° 0 min 0 W/m² 7,7 °C 8,3 °C 14,5 km/h (3 Bft)
05.04.2026 02:43 19,2 °C 10,1 °C 47 % 85 % 1015,8 hPa 0,0 l/m² 9,1 km/h (2 Bft) S 175 ° 0 min 0 W/m² 7,7 °C 8,2 °C 11,3 km/h (2 Bft)
05.04.2026 02:45 19,2 °C 10,1 °C 47 % 85 % 1015,8 hPa 0,0 l/m² 9,6 km/h (2 Bft) S 169 ° 0 min 0 W/m² 7,7 °C 7,9 °C 11,3 km/h (2 Bft)
05.04.2026 02:47 19,2 °C 10,1 °C 47 % 86 % 1015,8 hPa 0,0 l/m² 12,9 km/h (3 Bft) S 175 ° 0 min 0 W/m² 7,9 °C 6,2 °C 19,3 km/h (3 Bft)
05.04.2026 02:49 19,2 °C 10,1 °C 47 % 86 % 1015,7 hPa 0,0 l/m² 12,6 km/h (3 Bft) S-SO 164 ° 0 min 0 W/m² 7,9 °C 6,3 °C 19,3 km/h (3 Bft)
05.04.2026 02:51 19,2 °C 10,1 °C 47 % 86 % 1015,7 hPa 0,0 l/m² 13,4 km/h (3 Bft) S 172 ° 0 min 0 W/m² 7,9 °C 6,0 °C 19,3 km/h (3 Bft)
05.04.2026 02:52 19,2 °C 10,1 °C 47 % 86 % 1015,7 hPa 0,0 l/m² 12,0 km/h (2 Bft) S 190 ° 0 min 0 W/m² 7,9 °C 6,6 °C 16,1 km/h (3 Bft)
05.04.2026 02:53 19,2 °C 10,2 °C 47 % 86 % 1015,7 hPa 0,0 l/m² 13,2 km/h (3 Bft) S-SO 167 ° 0 min 0 W/m² 8,0 °C 6,2 °C 19,3 km/h (3 Bft)
05.04.2026 02:55 19,2 °C 10,2 °C 47 % 86 % 1015,8 hPa 0,0 l/m² 14,0 km/h (3 Bft) S 187 ° 0 min 0 W/m² 8,0 °C 5,8 °C 19,3 km/h (3 Bft)
05.04.2026 02:57 19,2 °C 10,2 °C 47 % 86 % 1015,7 hPa 0,0 l/m² 14,5 km/h (3 Bft) S-SO 159 ° 0 min 0 W/m² 8,0 °C 5,6 °C 19,3 km/h (3 Bft)
05.04.2026 02:59 19,2 °C 10,3 °C 47 % 86 % 1015,7 hPa 0,0 l/m² 14,5 km/h (3 Bft) S 184 ° 0 min 0 W/m² 8,1 °C 5,7 °C 19,3 km/h (3 Bft)
05.04.2026 03:01 19,2 °C 10,3 °C 47 % 86 % 1015,7 hPa 0,0 l/m² 13,6 km/h (3 Bft) S-SO 159 ° 0 min 0 W/m² 8,1 °C 6,1 °C 17,7 km/h (3 Bft)
05.04.2026 03:02 19,2 °C 10,3 °C 47 % 86 % 1015,7 hPa 0,0 l/m² 14,2 km/h (3 Bft) S-SO 161 ° 0 min 0 W/m² 8,1 °C 5,8 °C 19,3 km/h (3 Bft)
05.04.2026 03:03 19,2 °C 10,3 °C 47 % 86 % 1015,7 hPa 0,0 l/m² 13,7 km/h (3 Bft) S 173 ° 0 min 0 W/m² 8,1 °C 6,1 °C 17,7 km/h (3 Bft)
05.04.2026 03:05 19,2 °C 10,3 °C 47 % 86 % 1015,6 hPa 0,0 l/m² 14,7 km/h (3 Bft) S 171 ° 0 min 0 W/m² 8,1 °C 5,6 °C 20,9 km/h (4 Bft)
05.04.2026 03:07 19,2 °C 10,4 °C 47 % 86 % 1015,7 hPa 0,0 l/m² 15,5 km/h (3 Bft) S 175 ° 0 min 0 W/m² 8,2 °C 5,4 °C 22,5 km/h (4 Bft)
05.04.2026 03:09 19,2 °C 10,4 °C 47 % 86 % 1015,6 hPa 0,0 l/m² 15,0 km/h (3 Bft) S 177 ° 0 min 0 W/m² 8,2 °C 5,6 °C 20,9 km/h (4 Bft)
05.04.2026 03:11 19,2 °C 10,4 °C 47 % 86 % 1015,5 hPa 0,0 l/m² 13,9 km/h (3 Bft) S 169 ° 0 min 0 W/m² 8,2 °C 6,1 °C 22,5 km/h (4 Bft)
05.04.2026 03:12 19,2 °C 10,4 °C 47 % 86 % 1015,5 hPa 0,0 l/m² 12,8 km/h (3 Bft) S 179 ° 0 min 0 W/m² 8,2 °C 6,6 °C 17,7 km/h (3 Bft)
05.04.2026 03:13 19,2 °C 10,4 °C 47 % 86 % 1015,5 hPa 0,0 l/m² 13,0 km/h (3 Bft) S 181 ° 0 min 0 W/m² 8,2 °C 6,5 °C 17,7 km/h (3 Bft)
05.04.2026 03:15 19,2 °C 10,4 °C 47 % 86 % 1015,5 hPa 0,0 l/m² 16,2 km/h (3 Bft) S 187 ° 0 min 0 W/m² 8,2 °C 5,1 °C 22,5 km/h (4 Bft)
05.04.2026 03:17 19,2 °C 10,4 °C 47 % 86 % 1015,5 hPa 0,0 l/m² 15,4 km/h (3 Bft) S 169 ° 0 min 0 W/m² 8,2 °C 5,5 °C 20,9 km/h (4 Bft)
05.04.2026 03:19 19,2 °C 10,4 °C 47 % 86 % 1015,5 hPa 0,0 l/m² 16,5 km/h (3 Bft) S-SO 160 ° 0 min 0 W/m² 8,2 °C 5,0 °C 20,9 km/h (4 Bft)
05.04.2026 03:21 19,2 °C 10,4 °C 47 % 86 % 1015,4 hPa 0,0 l/m² 14,4 km/h (3 Bft) S 171 ° 0 min 0 W/m² 8,2 °C 5,9 °C 20,9 km/h (4 Bft)
05.04.2026 03:22 19,2 °C 10,5 °C 47 % 86 % 1015,5 hPa 0,0 l/m² 18,0 km/h (3 Bft) S 174 ° 0 min 0 W/m² 8,3 °C 4,6 °C 20,9 km/h (4 Bft)
05.04.2026 03:23 19,2 °C 10,6 °C 47 % 86 % 1015,5 hPa 0,0 l/m² 17,5 km/h (3 Bft) S 177 ° 0 min 0 W/m² 8,4 °C 4,9 °C 20,9 km/h (4 Bft)
05.04.2026 03:25 19,2 °C 10,6 °C 47 % 86 % 1015,5 hPa 0,0 l/m² 15,1 km/h (3 Bft) S 181 ° 0 min 0 W/m² 8,4 °C 5,8 °C 20,9 km/h (4 Bft)
05.04.2026 03:27 19,2 °C 10,5 °C 47 % 86 % 1015,4 hPa 0,0 l/m² 13,9 km/h (3 Bft) S 175 ° 0 min 0 W/m² 8,3 °C 6,2 °C 19,3 km/h (3 Bft)
05.04.2026 03:29 19,2 °C 10,6 °C 47 % 86 % 1015,3 hPa 0,0 l/m² 15,2 km/h (3 Bft) S-SO 161 ° 0 min 0 W/m² 8,4 °C 5,8 °C 20,9 km/h (4 Bft)
05.04.2026 03:31 19,2 °C 10,6 °C 47 % 86 % 1015,3 hPa 0,0 l/m² 15,7 km/h (3 Bft) S 170 ° 0 min 0 W/m² 8,4 °C 5,6 °C 20,9 km/h (4 Bft)
05.04.2026 03:32 19,2 °C 10,6 °C 47 % 86 % 1015,4 hPa 0,0 l/m² 13,6 km/h (3 Bft) S 190 ° 0 min 0 W/m² 8,4 °C 6,5 °C 17,7 km/h (3 Bft)
05.04.2026 03:33 19,2 °C 10,6 °C 47 % 86 % 1015,3 hPa 0,0 l/m² 14,4 km/h (3 Bft) S-SW 192 ° 0 min 0 W/m² 8,4 °C 6,1 °C 19,3 km/h (3 Bft)
05.04.2026 03:35 19,2 °C 10,6 °C 47 % 86 % 1015,3 hPa 0,0 l/m² 13,2 km/h (3 Bft) S 184 ° 0 min 0 W/m² 8,4 °C 6,6 °C 17,7 km/h (3 Bft)
05.04.2026 03:37 19,2 °C 10,6 °C 47 % 86 % 1015,2 hPa 0,0 l/m² 13,7 km/h (3 Bft) S 191 ° 0 min 0 W/m² 8,4 °C 6,4 °C 19,3 km/h (3 Bft)
05.04.2026 03:39 19,2 °C 10,6 °C 47 % 86 % 1015,2 hPa 0,0 l/m² 15,8 km/h (3 Bft) S 176 ° 0 min 0 W/m² 8,4 °C 5,5 °C 20,9 km/h (4 Bft)
05.04.2026 03:41 19,2 °C 10,7 °C 47 % 86 % 1015,2 hPa 0,0 l/m² 16,4 km/h (3 Bft) S-SO 157 ° 0 min 0 W/m² 8,5 °C 5,4 °C 22,5 km/h (4 Bft)
05.04.2026 03:42 19,2 °C 10,7 °C 47 % 86 % 1015,2 hPa 0,0 l/m² 15,3 km/h (3 Bft) S 187 ° 0 min 0 W/m² 8,5 °C 5,9 °C 19,3 km/h (3 Bft)
05.04.2026 03:43 19,2 °C 10,7 °C 47 % 86 % 1015,2 hPa 0,0 l/m² 14,6 km/h (3 Bft) S 173 ° 0 min 0 W/m² 8,5 °C 6,1 °C 17,7 km/h (3 Bft)
05.04.2026 03:45 19,2 °C 10,7 °C 47 % 86 % 1015,2 hPa 0,0 l/m² 15,5 km/h (3 Bft) S-SO 157 ° 0 min 0 W/m² 8,5 °C 5,8 °C 20,9 km/h (4 Bft)
05.04.2026 03:48 19,2 °C 10,7 °C 47 % 86 % 1015,2 hPa 0,0 l/m² 16,3 km/h (3 Bft) S 187 ° 0 min 0 W/m² 8,5 °C 5,5 °C 22,5 km/h (4 Bft)
05.04.2026 03:50 19,2 °C 10,7 °C 47 % 86 % 1015,3 hPa 0,0 l/m² 16,8 km/h (3 Bft) S 186 ° 0 min 0 W/m² 8,5 °C 5,3 °C 24,1 km/h (4 Bft)
05.04.2026 03:52 19,2 °C 10,8 °C 47 % 86 % 1015,2 hPa 0,0 l/m² 18,2 km/h (3 Bft) S 184 ° 0 min 0 W/m² 8,6 °C 4,9 °C 24,1 km/h (4 Bft)
05.04.2026 03:53 19,2 °C 10,8 °C 47 % 86 % 1015,3 hPa 0,0 l/m² 16,7 km/h (3 Bft) S 186 ° 0 min 0 W/m² 8,6 °C 5,4 °C 22,5 km/h (4 Bft)
05.04.2026 03:54 19,2 °C 10,8 °C 47 % 86 % 1015,2 hPa 0,0 l/m² 18,4 km/h (3 Bft) S 178 ° 0 min 0 W/m² 8,6 °C 4,8 °C 25,7 km/h (4 Bft)
05.04.2026 03:56 19,2 °C 10,8 °C 47 % 86 % 1015,1 hPa 0,0 l/m² 17,2 km/h (3 Bft) S-SO 167 ° 0 min 0 W/m² 8,6 °C 5,3 °C 24,1 km/h (4 Bft)
05.04.2026 03:58 19,2 °C 10,8 °C 47 % 85 % 1015,1 hPa 0,0 l/m² 15,6 km/h (3 Bft) S 178 ° 0 min 0 W/m² 8,4 °C 5,9 °C 22,5 km/h (4 Bft)
05.04.2026 04:00 19,1 °C 10,8 °C 47 % 85 % 1015,1 hPa 0,0 l/m² 18,5 km/h (3 Bft) S-SO 166 ° 0 min 0 W/m² 8,4 °C 4,8 °C 25,7 km/h (4 Bft)
05.04.2026 04:02 19,2 °C 10,8 °C 47 % 85 % 1015,2 hPa 0,0 l/m² 16,3 km/h (3 Bft) S-SO 167 ° 0 min 0 W/m² 8,4 °C 5,6 °C 27,4 km/h (5 Bft)
05.04.2026 04:03 19,1 °C 10,8 °C 47 % 85 % 1015,2 hPa 0,0 l/m² 17,2 km/h (3 Bft) S 175 ° 0 min 0 W/m² 8,4 °C 5,3 °C 24,1 km/h (4 Bft)
05.04.2026 04:04 19,1 °C 10,8 °C 47 % 85 % 1015,1 hPa 0,0 l/m² 16,4 km/h (3 Bft) S 175 ° 0 min 0 W/m² 8,4 °C 5,6 °C 20,9 km/h (4 Bft)
05.04.2026 04:06 19,1 °C 10,8 °C 47 % 85 % 1015,1 hPa 0,0 l/m² 12,9 km/h (3 Bft) S 182 ° 0 min 0 W/m² 8,4 °C 7,0 °C 17,7 km/h (3 Bft)
05.04.2026 04:08 19,1 °C 10,8 °C 47 % 85 % 1015,1 hPa 0,0 l/m² 14,5 km/h (3 Bft) S 173 ° 0 min 0 W/m² 8,4 °C 6,3 °C 19,3 km/h (3 Bft)
05.04.2026 04:10 19,1 °C 10,8 °C 47 % 85 % 1015,1 hPa 0,0 l/m² 15,2 km/h (3 Bft) S-SO 164 ° 0 min 0 W/m² 8,4 °C 6,0 °C 22,5 km/h (4 Bft)
05.04.2026 04:12 19,1 °C 10,9 °C 47 % 85 % 1015,0 hPa 0,0 l/m² 14,4 km/h (3 Bft) S 170 ° 0 min 0 W/m² 8,5 °C 6,5 °C 20,9 km/h (4 Bft)
05.04.2026 04:13 19,1 °C 10,9 °C 47 % 85 % 1015,0 hPa 0,0 l/m² 13,2 km/h (3 Bft) S-SO 165 ° 0 min 0 W/m² 8,5 °C 7,0 °C 16,1 km/h (3 Bft)
05.04.2026 04:14 19,1 °C 10,9 °C 47 % 85 % 1015,1 hPa 0,0 l/m² 12,9 km/h (3 Bft) S 179 ° 0 min 0 W/m² 8,5 °C 7,1 °C 16,1 km/h (3 Bft)
05.04.2026 04:16 19,1 °C 10,9 °C 47 % 85 % 1015,0 hPa 0,0 l/m² 13,8 km/h (3 Bft) S 173 ° 0 min 0 W/m² 8,5 °C 6,7 °C 19,3 km/h (3 Bft)
05.04.2026 04:18 19,2 °C 10,9 °C 47 % 85 % 1015,1 hPa 0,0 l/m² 14,2 km/h (3 Bft) S 169 ° 0 min 0 W/m² 8,5 °C 6,6 °C 22,5 km/h (4 Bft)
05.04.2026 04:20 19,1 °C 10,9 °C 47 % 85 % 1015,0 hPa 0,0 l/m² 12,2 km/h (2 Bft) SO 146 ° 0 min 0 W/m² 8,5 °C 7,5 °C 17,7 km/h (3 Bft)
05.04.2026 04:22 19,1 °C 10,9 °C 47 % 85 % 1015,1 hPa 0,0 l/m² 13,3 km/h (3 Bft) S 169 ° 0 min 0 W/m² 8,5 °C 6,9 °C 22,5 km/h (4 Bft)
05.04.2026 04:23 19,1 °C 10,9 °C 47 % 85 % 1015,1 hPa 0,0 l/m² 14,3 km/h (3 Bft) S-SO 159 ° 0 min 0 W/m² 8,5 °C 6,5 °C 17,7 km/h (3 Bft)
05.04.2026 04:24 19,1 °C 10,8 °C 47 % 85 % 1015,1 hPa 0,0 l/m² 10,7 km/h (2 Bft) S-SO 165 ° 0 min 0 W/m² 8,4 °C 8,1 °C 14,5 km/h (3 Bft)
05.04.2026 04:26 19,1 °C 10,8 °C 47 % 85 % 1015,1 hPa 0,0 l/m² 10,6 km/h (2 Bft) S 172 ° 0 min 0 W/m² 8,4 °C 8,2 °C 14,5 km/h (3 Bft)
05.04.2026 04:28 19,1 °C 10,8 °C 47 % 85 % 1015,0 hPa 0,0 l/m² 12,0 km/h (2 Bft) S 169 ° 0 min 0 W/m² 8,4 °C 7,4 °C 14,5 km/h (3 Bft)
05.04.2026 04:30 19,1 °C 10,7 °C 47 % 85 % 1015,0 hPa 0,0 l/m² 11,8 km/h (2 Bft) S 171 ° 0 min 0 W/m² 8,3 °C 7,4 °C 17,7 km/h (3 Bft)
05.04.2026 04:32 19,1 °C 10,7 °C 47 % 85 % 1015,0 hPa 0,0 l/m² 11,5 km/h (2 Bft) S-SO 157 ° 0 min 0 W/m² 8,3 °C 7,6 °C 16,1 km/h (3 Bft)
05.04.2026 04:33 19,1 °C 10,7 °C 47 % 85 % 1015,0 hPa 0,0 l/m² 11,9 km/h (2 Bft) S 175 ° 0 min 0 W/m² 8,3 °C 7,4 °C 16,1 km/h (3 Bft)
05.04.2026 04:34 19,1 °C 10,7 °C 47 % 85 % 1015,0 hPa 0,0 l/m² 15,2 km/h (3 Bft) S 170 ° 0 min 0 W/m² 8,3 °C 5,9 °C 17,7 km/h (3 Bft)
05.04.2026 04:36 19,1 °C 10,7 °C 47 % 85 % 1015,0 hPa 0,0 l/m² 10,2 km/h (2 Bft) S-SO 160 ° 0 min 0 W/m² 8,3 °C 8,3 °C 14,5 km/h (3 Bft)
05.04.2026 04:38 19,1 °C 10,6 °C 47 % 85 % 1015,0 hPa 0,0 l/m² 11,2 km/h (2 Bft) S-SO 165 ° 0 min 0 W/m² 8,2 °C 7,6 °C 16,1 km/h (3 Bft)
05.04.2026 04:40 19,1 °C 10,6 °C 47 % 85 % 1014,9 hPa 0,0 l/m² 10,4 km/h (2 Bft) S 178 ° 0 min 0 W/m² 8,2 °C 8,0 °C 14,5 km/h (3 Bft)
05.04.2026 04:42 19,1 °C 10,6 °C 47 % 85 % 1014,9 hPa 0,0 l/m² 10,1 km/h (2 Bft) S-SO 156 ° 0 min 0 W/m² 8,2 °C 8,2 °C 16,1 km/h (3 Bft)
05.04.2026 04:43 19,1 °C 10,6 °C 47 % 85 % 1014,9 hPa 0,0 l/m² 10,5 km/h (2 Bft) S-SO 155 ° 0 min 0 W/m² 8,2 °C 8,0 °C 16,1 km/h (3 Bft)
05.04.2026 04:44 19,1 °C 10,6 °C 47 % 85 % 1014,9 hPa 0,0 l/m² 12,4 km/h (2 Bft) S-SO 163 ° 0 min 0 W/m² 8,2 °C 7,0 °C 16,1 km/h (3 Bft)
05.04.2026 04:46 19,1 °C 10,5 °C 47 % 85 % 1014,9 hPa 0,0 l/m² 9,8 km/h (2 Bft) S-SO 158 ° 0 min 0 W/m² 8,1 °C 8,3 °C 12,9 km/h (3 Bft)
05.04.2026 04:48 19,1 °C 10,5 °C 47 % 85 % 1014,9 hPa 0,0 l/m² 9,7 km/h (2 Bft) S-SO 161 ° 0 min 0 W/m² 8,1 °C 8,3 °C 14,5 km/h (3 Bft)
05.04.2026 04:50 19,1 °C 10,5 °C 47 % 85 % 1014,7 hPa 0,0 l/m² 9,4 km/h (2 Bft) S-SO 154 ° 0 min 0 W/m² 8,1 °C 8,5 °C 12,9 km/h (3 Bft)
05.04.2026 04:52 19,1 °C 10,4 °C 47 % 85 % 1014,8 hPa 0,0 l/m² 11,0 km/h (2 Bft) S-SO 152 ° 0 min 0 W/m² 8,0 °C 7,5 °C 16,1 km/h (3 Bft)
05.04.2026 04:53 19,1 °C 10,4 °C 47 % 85 % 1014,8 hPa 0,0 l/m² 9,3 km/h (2 Bft) SO 141 ° 0 min 0 W/m² 8,0 °C 8,4 °C 14,5 km/h (3 Bft)
05.04.2026 04:54 19,1 °C 10,4 °C 47 % 86 % 1014,7 hPa 0,0 l/m² 11,1 km/h (2 Bft) S-SO 159 ° 0 min 0 W/m² 8,2 °C 7,4 °C 12,9 km/h (3 Bft)
05.04.2026 04:56 19,1 °C 10,4 °C 47 % 86 % 1014,8 hPa 0,0 l/m² 10,1 km/h (2 Bft) S-SO 153 ° 0 min 0 W/m² 8,2 °C 8,0 °C 16,1 km/h (3 Bft)
05.04.2026 04:58 19,1 °C 10,4 °C 47 % 86 % 1014,7 hPa 0,0 l/m² 10,8 km/h (2 Bft) S-SO 155 ° 0 min 0 W/m² 8,2 °C 7,6 °C 16,1 km/h (3 Bft)
05.04.2026 05:00 19,1 °C 10,4 °C 47 % 86 % 1014,7 hPa 0,0 l/m² 10,9 km/h (2 Bft) S-SO 162 ° 0 min 0 W/m² 8,2 °C 7,5 °C 16,1 km/h (3 Bft)
05.04.2026 05:02 19,1 °C 10,4 °C 47 % 86 % 1014,8 hPa 0,0 l/m² 9,9 km/h (2 Bft) SO 137 ° 0 min 0 W/m² 8,2 °C 8,1 °C 14,5 km/h (3 Bft)
05.04.2026 05:03 19,1 °C 10,3 °C 47 % 86 % 1014,8 hPa 0,0 l/m² 8,2 km/h (2 Bft) S-SO 166 ° 0 min 0 W/m² 8,1 °C 9,0 °C 11,3 km/h (2 Bft)
05.04.2026 05:05 19,1 °C 10,3 °C 47 % 86 % 1014,8 hPa 0,0 l/m² 8,4 km/h (2 Bft) S-SO 147 ° 0 min 0 W/m² 8,1 °C 8,9 °C 11,3 km/h (2 Bft)
05.04.2026 05:07 19,1 °C 10,3 °C 47 % 86 % 1014,8 hPa 0,0 l/m² 8,8 km/h (2 Bft) SO 142 ° 0 min 0 W/m² 8,1 °C 8,6 °C 12,9 km/h (3 Bft)
05.04.2026 05:09 19,1 °C 10,3 °C 47 % 86 % 1014,9 hPa 0,0 l/m² 8,9 km/h (2 Bft) S-SO 155 ° 0 min 0 W/m² 8,1 °C 8,6 °C 14,5 km/h (3 Bft)
05.04.2026 05:11 19,1 °C 10,3 °C 47 % 86 % 1014,9 hPa 0,0 l/m² 6,1 km/h (2 Bft) S-SO 155 ° 0 min 0 W/m² 8,1 °C 10,3 °C 11,3 km/h (2 Bft)
05.04.2026 05:12 19,1 °C 10,3 °C 47 % 86 % 1014,9 hPa 0,0 l/m² 7,3 km/h (2 Bft) S-SO 162 ° 0 min 0 W/m² 8,1 °C 9,7 °C 9,7 km/h (2 Bft)
05.04.2026 05:13 19,1 °C 10,3 °C 47 % 86 % 1014,9 hPa 0,0 l/m² 5,5 km/h (2 Bft) S-SO 152 ° 0 min 0 W/m² 8,1 °C 10,3 °C 8,0 km/h (2 Bft)
05.04.2026 05:15 19,1 °C 10,3 °C 47 % 86 % 1014,8 hPa 0,0 l/m² 6,1 km/h (2 Bft) S-SO 150 ° 0 min 0 W/m² 8,1 °C 10,3 °C 9,7 km/h (2 Bft)
05.04.2026 05:17 19,1 °C 10,2 °C 47 % 86 % 1014,8 hPa 0,0 l/m² 6,6 km/h (2 Bft) S-SO 153 ° 0 min 0 W/m² 8,0 °C 10,1 °C 11,3 km/h (2 Bft)
05.04.2026 05:19 19,1 °C 10,2 °C 47 % 86 % 1014,8 hPa 0,0 l/m² 4,3 km/h (1 Bft) SO 136 ° 0 min 0 W/m² 8,0 °C 10,2 °C 8,0 km/h (2 Bft)
05.04.2026 05:21 19,1 °C 10,2 °C 47 % 86 % 1014,7 hPa 0,0 l/m² 4,3 km/h (1 Bft) SO 140 ° 0 min 0 W/m² 8,0 °C 10,2 °C 6,4 km/h (2 Bft)
05.04.2026 05:22 19,1 °C 10,2 °C 47 % 86 % 1014,7 hPa 0,0 l/m² 2,0 km/h (1 Bft) SO 136 ° 0 min 0 W/m² 8,0 °C 10,2 °C 4,8 km/h (1 Bft)
05.04.2026 05:23 19,1 °C 10,2 °C 47 % 86 % 1014,7 hPa 0,0 l/m² 4,3 km/h (1 Bft) SO 134 ° 0 min 0 W/m² 8,0 °C 10,2 °C 6,4 km/h (2 Bft)
05.04.2026 05:25 19,1 °C 10,2 °C 47 % 86 % 1014,7 hPa 0,0 l/m² 3,4 km/h (1 Bft) SO 142 ° 0 min 0 W/m² 8,0 °C 10,2 °C 6,4 km/h (2 Bft)
05.04.2026 05:27 19,1 °C 10,2 °C 47 % 86 % 1014,7 hPa 0,0 l/m² 1,0 km/h (0 Bft) SO 129 ° 0 min 0 W/m² 8,0 °C 10,2 °C 4,8 km/h (1 Bft)
05.04.2026 05:29 19,1 °C 10,2 °C 47 % 86 % 1014,6 hPa 0,0 l/m² 2,4 km/h (1 Bft) O-SO 118 ° 0 min 0 W/m² 8,0 °C 10,2 °C 6,4 km/h (2 Bft)
05.04.2026 05:31 19,1 °C 10,1 °C 47 % 86 % 1014,6 hPa 0,0 l/m² 4,7 km/h (1 Bft) O-SO 119 ° 0 min 0 W/m² 7,9 °C 10,1 °C 9,7 km/h (2 Bft)
05.04.2026 05:32 19,1 °C 10,1 °C 47 % 86 % 1014,6 hPa 0,0 l/m² 4,6 km/h (1 Bft) SO 139 ° 0 min 0 W/m² 7,9 °C 10,1 °C 6,4 km/h (2 Bft)
05.04.2026 05:33 19,1 °C 10,1 °C 47 % 86 % 1014,6 hPa 0,0 l/m² 5,0 km/h (1 Bft) O-SO 121 ° 0 min 0 W/m² 7,9 °C 10,1 °C 6,4 km/h (2 Bft)
05.04.2026 05:35 19,1 °C 10,1 °C 47 % 86 % 1014,6 hPa 0,0 l/m² 4,4 km/h (1 Bft) O-SO 119 ° 0 min 0 W/m² 7,9 °C 10,1 °C 8,0 km/h (2 Bft)
05.04.2026 05:37 19,1 °C 10,1 °C 47 % 86 % 1014,5 hPa 0,0 l/m² 7,2 km/h (2 Bft) O-SO 123 ° 0 min 0 W/m² 7,9 °C 9,5 °C 9,7 km/h (2 Bft)
05.04.2026 05:39 19,1 °C 10,1 °C 47 % 86 % 1014,5 hPa 0,0 l/m² 4,6 km/h (1 Bft) O-SO 115 ° 0 min 0 W/m² 7,9 °C 10,1 °C 9,7 km/h (2 Bft)
05.04.2026 05:41 19,1 °C 10,1 °C 47 % 86 % 1014,5 hPa 0,0 l/m² 3,3 km/h (1 Bft) O-SO 123 ° 0 min 0 W/m² 7,9 °C 10,1 °C 9,7 km/h (2 Bft)
05.04.2026 05:42 19,1 °C 10,1 °C 47 % 86 % 1014,5 hPa 0,0 l/m² 4,1 km/h (1 Bft) O-SO 123 ° 0 min 0 W/m² 7,9 °C 10,1 °C 6,4 km/h (2 Bft)
05.04.2026 05:43 19,1 °C 10,1 °C 47 % 86 % 1014,5 hPa 0,0 l/m² 5,3 km/h (1 Bft) O-SO 109 ° 0 min 0 W/m² 7,9 °C 10,1 °C 9,7 km/h (2 Bft)
05.04.2026 05:45 19,1 °C 10,1 °C 47 % 86 % 1014,4 hPa 0,0 l/m² 6,9 km/h (2 Bft) SO 127 ° 0 min 0 W/m² 7,9 °C 9,7 °C 14,5 km/h (3 Bft)
05.04.2026 05:47 19,1 °C 10,1 °C 47 % 86 % 1014,5 hPa 0,0 l/m² 6,1 km/h (2 Bft) SO 140 ° 0 min 0 W/m² 7,9 °C 10,1 °C 11,3 km/h (2 Bft)
05.04.2026 05:49 19,1 °C 10,1 °C 47 % 86 % 1014,5 hPa 0,0 l/m² 4,4 km/h (1 Bft) SO 130 ° 0 min 0 W/m² 7,9 °C 10,1 °C 8,0 km/h (2 Bft)
05.04.2026 05:51 19,1 °C 10,1 °C 47 % 86 % 1014,4 hPa 0,0 l/m² 5,9 km/h (2 Bft) O-SO 122 ° 0 min 0 W/m² 7,9 °C 10,1 °C 9,7 km/h (2 Bft)
05.04.2026 05:52 19,1 °C 10,1 °C 47 % 86 % 1014,4 hPa 0,0 l/m² 6,0 km/h (2 Bft) SO 127 ° 0 min 0 W/m² 7,9 °C 10,1 °C 6,4 km/h (2 Bft)
05.04.2026 05:53 19,1 °C 10,1 °C 47 % 86 % 1014,4 hPa 0,0 l/m² 4,0 km/h (1 Bft) SO 132 ° 0 min 0 W/m² 7,9 °C 10,1 °C 6,4 km/h (2 Bft)
05.04.2026 05:55 19,1 °C 10,1 °C 47 % 86 % 1014,4 hPa 0,0 l/m² 3,9 km/h (1 Bft) SO 133 ° 0 min 0 W/m² 7,9 °C 10,1 °C 6,4 km/h (2 Bft)
05.04.2026 05:57 19,1 °C 10,1 °C 47 % 86 % 1014,3 hPa 0,0 l/m² 7,1 km/h (2 Bft) SO 141 ° 0 min 0 W/m² 7,9 °C 9,6 °C 12,9 km/h (3 Bft)
05.04.2026 05:59 19,1 °C 10,1 °C 47 % 86 % 1014,3 hPa 0,0 l/m² 6,5 km/h (2 Bft) SO 136 ° 0 min 0 W/m² 7,9 °C 10,1 °C 12,9 km/h (3 Bft)
05.04.2026 06:01 19,1 °C 10,2 °C 47 % 86 % 1014,2 hPa 0,0 l/m² 8,2 km/h (2 Bft) SO 143 ° 0 min 0 W/m² 8,0 °C 8,9 °C 14,5 km/h (3 Bft)
05.04.2026 06:02 19,1 °C 10,2 °C 47 % 86 % 1014,2 hPa 0,0 l/m² 9,2 km/h (2 Bft) SO 133 ° 0 min 0 W/m² 8,0 °C 8,3 °C 12,9 km/h (3 Bft)
05.04.2026 06:03 19,1 °C 10,2 °C 47 % 86 % 1014,2 hPa 0,0 l/m² 8,0 km/h (2 Bft) S-SO 149 ° 0 min 0 W/m² 8,0 °C 9,1 °C 11,3 km/h (2 Bft)
05.04.2026 06:05 19,1 °C 10,2 °C 47 % 86 % 1014,1 hPa 0,0 l/m² 6,3 km/h (2 Bft) SO 127 ° 0 min 0 W/m² 8,0 °C 10,2 °C 11,3 km/h (2 Bft)
05.04.2026 06:07 19,1 °C 10,2 °C 47 % 86 % 1014,2 hPa 0,0 l/m² 6,3 km/h (2 Bft) SO 137 ° 0 min 0 W/m² 8,0 °C 10,2 °C 12,9 km/h (3 Bft)
05.04.2026 06:09 19,1 °C 10,2 °C 47 % 86 % 1014,2 hPa 0,0 l/m² 5,8 km/h (2 Bft) O-SO 114 ° 0 min 0 W/m² 8,0 °C 10,2 °C 11,3 km/h (2 Bft)
05.04.2026 06:11 19,1 °C 10,2 °C 47 % 86 % 1014,1 hPa 0,0 l/m² 6,6 km/h (2 Bft) SO 129 ° 0 min 0 W/m² 8,0 °C 10,1 °C 11,3 km/h (2 Bft)
05.04.2026 06:12 19,0 °C 10,2 °C 47 % 86 % 1014,1 hPa 0,0 l/m² 6,4 km/h (2 Bft) SO 128 ° 0 min 0 W/m² 8,0 °C 10,2 °C 9,7 km/h (2 Bft)
05.04.2026 06:13 19,1 °C 10,2 °C 47 % 86 % 1014,1 hPa 0,0 l/m² 5,7 km/h (2 Bft) O-SO 119 ° 0 min 0 W/m² 8,0 °C 10,2 °C 9,7 km/h (2 Bft)
05.04.2026 06:15 19,0 °C 10,2 °C 47 % 86 % 1014,1 hPa 0,0 l/m² 8,7 km/h (2 Bft) O-SO 114 ° 0 min 0 W/m² 8,0 °C 8,6 °C 14,5 km/h (3 Bft)
05.04.2026 06:17 19,1 °C 10,2 °C 47 % 86 % 1014,0 hPa 0,0 l/m² 6,5 km/h (2 Bft) SO 125 ° 0 min 0 W/m² 8,0 °C 10,2 °C 9,7 km/h (2 Bft)
05.04.2026 06:19 19,1 °C 10,2 °C 47 % 86 % 1013,9 hPa 0,0 l/m² 7,5 km/h (2 Bft) O-SO 117 ° 0 min 0 W/m² 8,0 °C 9,4 °C 12,9 km/h (3 Bft)
05.04.2026 06:21 19,1 °C 10,2 °C 47 % 86 % 1013,9 hPa 0,0 l/m² 6,7 km/h (2 Bft) O-SO 121 ° 0 min 0 W/m² 8,0 °C 10,0 °C 12,9 km/h (3 Bft)
05.04.2026 06:22 19,1 °C 10,2 °C 47 % 86 % 1013,9 hPa 0,0 l/m² 4,8 km/h (1 Bft) O-SO 123 ° 0 min 0 W/m² 8,0 °C 10,2 °C 9,7 km/h (2 Bft)
05.04.2026 06:23 19,0 °C 10,1 °C 47 % 86 % 1014,0 hPa 0,0 l/m² 7,7 km/h (2 Bft) SO 128 ° 0 min 0 W/m² 7,9 °C 9,2 °C 11,3 km/h (2 Bft)
05.04.2026 06:25 19,1 °C 10,2 °C 47 % 86 % 1014,0 hPa 0,0 l/m² 7,3 km/h (2 Bft) O-SO 111 ° 0 min 0 W/m² 8,0 °C 9,6 °C 14,5 km/h (3 Bft)
05.04.2026 06:27 19,1 °C 10,2 °C 47 % 86 % 1013,9 hPa 0,0 l/m² 8,2 km/h (2 Bft) SO 126 ° 0 min 0 W/m² 8,0 °C 8,9 °C 12,9 km/h (3 Bft)
05.04.2026 06:29 19,1 °C 10,2 °C 47 % 86 % 1013,9 hPa 0,0 l/m² 8,2 km/h (2 Bft) SO 134 ° 0 min 0 W/m² 8,0 °C 8,9 °C 11,3 km/h (2 Bft)
05.04.2026 06:31 19,1 °C 10,1 °C 47 % 86 % 1013,9 hPa 0,0 l/m² 8,5 km/h (2 Bft) SO 138 ° 0 min 0 W/m² 7,9 °C 8,6 °C 12,9 km/h (3 Bft)
05.04.2026 06:32 19,1 °C 10,1 °C 47 % 86 % 1013,9 hPa 0,0 l/m² 6,4 km/h (2 Bft) SO 132 ° 0 min 0 W/m² 7,9 °C 10,1 °C 8,0 km/h (2 Bft)
05.04.2026 06:33 19,1 °C 10,2 °C 47 % 86 % 1013,9 hPa 0,0 l/m² 5,9 km/h (2 Bft) SO 132 ° 0 min 0 W/m² 8,0 °C 10,2 °C 8,0 km/h (2 Bft)
05.04.2026 06:35 19,0 °C 10,2 °C 47 % 86 % 1013,9 hPa 0,0 l/m² 7,8 km/h (2 Bft) SO 132 ° 0 min 0 W/m² 8,0 °C 9,2 °C 11,3 km/h (2 Bft)
05.04.2026 06:37 19,0 °C 10,2 °C 47 % 86 % 1013,8 hPa 0,0 l/m² 10,7 km/h (2 Bft) SO 130 ° 0 min 0 W/m² 8,0 °C 7,4 °C 14,5 km/h (3 Bft)
05.04.2026 06:39 19,0 °C 10,2 °C 47 % 86 % 1013,8 hPa 0,0 l/m² 5,5 km/h (2 Bft) SO 124 ° 0 min 5 W/m² 8,0 °C 10,2 °C 11,3 km/h (2 Bft)
05.04.2026 06:41 19,0 °C 10,2 °C 47 % 86 % 1013,9 hPa 0,0 l/m² 6,0 km/h (2 Bft) SO 132 ° 0 min 5 W/m² 8,0 °C 10,2 °C 11,3 km/h (2 Bft)
05.04.2026 06:42 19,0 °C 10,2 °C 47 % 86 % 1013,9 hPa 0,0 l/m² 7,2 km/h (2 Bft) SO 127 ° 0 min 5 W/m² 8,0 °C 9,6 °C 8,0 km/h (2 Bft)
05.04.2026 06:43 19,0 °C 10,2 °C 47 % 86 % 1013,8 hPa 0,0 l/m² 7,0 km/h (2 Bft) O-SO 119 ° 0 min 5 W/m² 8,0 °C 9,8 °C 11,3 km/h (2 Bft)
05.04.2026 06:45 19,0 °C 10,2 °C 47 % 86 % 1013,7 hPa 0,0 l/m² 7,5 km/h (2 Bft) SO 131 ° 0 min 5 W/m² 8,0 °C 9,4 °C 11,3 km/h (2 Bft)
05.04.2026 06:48 19,0 °C 10,2 °C 47 % 86 % 1013,7 hPa 0,0 l/m² 7,6 km/h (2 Bft) SO 139 ° 0 min 7 W/m² 8,0 °C 9,3 °C 11,3 km/h (2 Bft)
05.04.2026 06:50 19,0 °C 10,1 °C 47 % 86 % 1013,7 hPa 0,0 l/m² 7,0 km/h (2 Bft) SO 132 ° 0 min 7 W/m² 7,9 °C 9,7 °C 12,9 km/h (3 Bft)
05.04.2026 06:52 19,0 °C 10,2 °C 47 % 86 % 1013,7 hPa 0,0 l/m² 6,4 km/h (2 Bft) SO 136 ° 0 min 9 W/m² 8,0 °C 10,2 °C 11,3 km/h (2 Bft)
05.04.2026 06:53 19,0 °C 10,2 °C 47 % 86 % 1013,6 hPa 0,0 l/m² 4,8 km/h (1 Bft) SO 134 ° 0 min 9 W/m² 8,0 °C 10,2 °C 6,4 km/h (2 Bft)
05.04.2026 06:55 19,0 °C 10,1 °C 47 % 86 % 1013,6 hPa 0,0 l/m² 4,0 km/h (1 Bft) SO 130 ° 0 min 11 W/m² 7,9 °C 10,1 °C 6,4 km/h (2 Bft)
05.04.2026 06:56 19,0 °C 10,2 °C 47 % 86 % 1013,6 hPa 0,0 l/m² 3,6 km/h (1 Bft) SO 130 ° 0 min 11 W/m² 8,0 °C 10,2 °C 6,4 km/h (2 Bft)
05.04.2026 06:57 19,0 °C 10,2 °C 47 % 86 % 1013,6 hPa 0,0 l/m² 4,7 km/h (1 Bft) SO 133 ° 0 min 12 W/m² 8,0 °C 10,2 °C 6,4 km/h (2 Bft)
05.04.2026 06:58 19,0 °C 10,2 °C 47 % 86 % 1013,6 hPa 0,0 l/m² 4,8 km/h (1 Bft) SO 126 ° 0 min 12 W/m² 8,0 °C 10,2 °C 4,8 km/h (1 Bft)
05.04.2026 07:00 19,0 °C 10,2 °C 47 % 86 % 1013,5 hPa 0,0 l/m² 3,2 km/h (1 Bft) SO 141 ° 0 min 14 W/m² 8,0 °C 10,2 °C 8,0 km/h (2 Bft)
05.04.2026 07:02 19,0 °C 10,2 °C 47 % 86 % 1013,5 hPa 0,0 l/m² 4,1 km/h (1 Bft) SO 138 ° 0 min 16 W/m² 8,0 °C 10,2 °C 6,4 km/h (2 Bft)
05.04.2026 07:03 19,0 °C 10,2 °C 47 % 86 % 1013,5 hPa 0,0 l/m² 3,9 km/h (1 Bft) SO 135 ° 0 min 18 W/m² 8,0 °C 10,2 °C 8,0 km/h (2 Bft)
05.04.2026 07:05 19,0 °C 10,2 °C 47 % 86 % 1013,4 hPa 0,0 l/m² 4,0 km/h (1 Bft) SO 142 ° 0 min 19 W/m² 8,0 °C 10,2 °C 8,0 km/h (2 Bft)
05.04.2026 07:06 19,0 °C 10,1 °C 47 % 86 % 1013,4 hPa 0,0 l/m² 5,4 km/h (2 Bft) S-SO 155 ° 0 min 19 W/m² 7,9 °C 10,1 °C 8,0 km/h (2 Bft)
05.04.2026 07:08 19,0 °C 10,1 °C 47 % 86 % 1013,4 hPa 0,0 l/m² 6,4 km/h (2 Bft) SO 142 ° 0 min 21 W/m² 7,9 °C 10,1 °C 9,7 km/h (2 Bft)
05.04.2026 07:10 19,0 °C 10,2 °C 47 % 86 % 1013,4 hPa 0,0 l/m² 5,8 km/h (2 Bft) S-SO 148 ° 0 min 23 W/m² 8,0 °C 10,2 °C 9,7 km/h (2 Bft)
05.04.2026 07:12 19,0 °C 10,2 °C 47 % 86 % 1013,3 hPa 0,0 l/m² 6,1 km/h (2 Bft) SO 144 ° 0 min 25 W/m² 8,0 °C 10,2 °C 11,3 km/h (2 Bft)
05.04.2026 07:13 19,0 °C 10,2 °C 47 % 87 % 1013,3 hPa 0,0 l/m² 6,0 km/h (2 Bft) S-SO 150 ° 0 min 25 W/m² 8,1 °C 10,2 °C 8,0 km/h (2 Bft)
05.04.2026 07:14 19,0 °C 10,2 °C 47 % 87 % 1013,4 hPa 0,0 l/m² 3,6 km/h (1 Bft) SO 146 ° 0 min 26 W/m² 8,1 °C 10,2 °C 6,4 km/h (2 Bft)
05.04.2026 07:16 19,0 °C 10,2 °C 47 % 87 % 1013,4 hPa 0,0 l/m² 5,6 km/h (2 Bft) S-SO 162 ° 0 min 30 W/m² 8,1 °C 10,2 °C 8,0 km/h (2 Bft)
05.04.2026 07:18 19,0 °C 10,2 °C 47 % 87 % 1013,4 hPa 0,0 l/m² 2,4 km/h (1 Bft) SO 135 ° 0 min 32 W/m² 8,1 °C 10,2 °C 6,4 km/h (2 Bft)
05.04.2026 07:20 19,0 °C 10,3 °C 47 % 87 % 1013,3 hPa 0,0 l/m² 3,0 km/h (1 Bft) SO 130 ° 0 min 33 W/m² 8,2 °C 10,3 °C 6,4 km/h (2 Bft)
05.04.2026 07:22 18,9 °C 10,3 °C 47 % 87 % 1013,4 hPa 0,0 l/m² 2,4 km/h (1 Bft) SO 136 ° 0 min 35 W/m² 8,2 °C 10,3 °C 8,0 km/h (2 Bft)
05.04.2026 07:23 18,9 °C 10,3 °C 47 % 87 % 1013,4 hPa 0,0 l/m² 0,4 km/h (0 Bft) SO 131 ° 0 min 35 W/m² 8,2 °C 10,3 °C 3,2 km/h (1 Bft)
05.04.2026 07:24 18,9 °C 10,3 °C 47 % 87 % 1013,2 hPa 0,0 l/m² 4,0 km/h (1 Bft) SO 132 ° 0 min 35 W/m² 8,2 °C 10,3 °C 6,4 km/h (2 Bft)
05.04.2026 07:26 19,0 °C 10,4 °C 47 % 87 % 1013,2 hPa 0,0 l/m² 0,6 km/h (0 Bft) O-SO 111 ° 0 min 35 W/m² 8,3 °C 10,4 °C 3,2 km/h (1 Bft)
05.04.2026 07:28 19,0 °C 10,4 °C 47 % 87 % 1013,2 hPa 0,0 l/m² 1,2 km/h (1 Bft) O-SO 115 ° 0 min 37 W/m² 8,3 °C 10,4 °C 3,2 km/h (1 Bft)
05.04.2026 07:30 19,0 °C 10,4 °C 47 % 87 % 1013,3 hPa 0,0 l/m² 2,5 km/h (1 Bft) NO 51 ° 0 min 37 W/m² 8,3 °C 10,4 °C 6,4 km/h (2 Bft)
05.04.2026 07:32 18,9 °C 10,5 °C 47 % 86 % 1013,2 hPa 0,0 l/m² 1,4 km/h (1 Bft) NO 51 ° 0 min 37 W/m² 8,3 °C 10,5 °C 8,0 km/h (2 Bft)
05.04.2026 07:33 18,9 °C 10,6 °C 47 % 86 % 1013,2 hPa 0,0 l/m² 0,2 km/h (0 Bft) NO 53 ° 0 min 37 W/m² 8,4 °C 10,6 °C 1,6 km/h (1 Bft)
05.04.2026 07:35 18,9 °C 10,6 °C 47 % 86 % 1013,2 hPa 0,0 l/m² 1,5 km/h (1 Bft) O-NO 62 ° 0 min 35 W/m² 8,4 °C 10,6 °C 4,8 km/h (1 Bft)
05.04.2026 07:36 18,9 °C 10,6 °C 47 % 86 % 1013,2 hPa 0,0 l/m² 0,1 km/h (0 Bft) O-NO 63 ° 0 min 35 W/m² 8,4 °C 10,6 °C 1,6 km/h (1 Bft)
05.04.2026 07:37 18,9 °C 10,6 °C 47 % 86 % 1013,2 hPa 0,0 l/m² 3,8 km/h (1 Bft) O-NO 57 ° 0 min 35 W/m² 8,4 °C 10,6 °C 6,4 km/h (2 Bft)
05.04.2026 07:38 18,9 °C 10,6 °C 47 % 86 % 1013,2 hPa 0,0 l/m² 3,8 km/h (1 Bft) O-NO 63 ° 0 min 37 W/m² 8,4 °C 10,6 °C 4,8 km/h (1 Bft)
05.04.2026 07:40 18,9 °C 10,6 °C 47 % 86 % 1013,2 hPa 0,0 l/m² 2,0 km/h (1 Bft) O-NO 66 ° 0 min 37 W/m² 8,4 °C 10,6 °C 6,4 km/h (2 Bft)
05.04.2026 07:42 18,9 °C 10,7 °C 47 % 86 % 1013,2 hPa 0,0 l/m² 3,9 km/h (1 Bft) NO 51 ° 0 min 40 W/m² 8,5 °C 10,7 °C 8,0 km/h (2 Bft)
05.04.2026 07:43 18,9 °C 10,7 °C 47 % 86 % 1013,2 hPa 0,0 l/m² 4,2 km/h (1 Bft) O-NO 67 ° 0 min 40 W/m² 8,5 °C 10,7 °C 6,4 km/h (2 Bft)
05.04.2026 07:44 18,9 °C 10,7 °C 47 % 86 % 1013,1 hPa 0,0 l/m² 4,5 km/h (1 Bft) O-NO 61 ° 0 min 40 W/m² 8,5 °C 10,7 °C 6,4 km/h (2 Bft)
05.04.2026 07:46 18,9 °C 10,7 °C 47 % 86 % 1013,2 hPa 0,0 l/m² 4,8 km/h (1 Bft) O-NO 73 ° 0 min 44 W/m² 8,5 °C 10,7 °C 14,5 km/h (3 Bft)
05.04.2026 07:48 18,9 °C 10,7 °C 47 % 86 % 1013,1 hPa 0,0 l/m² 1,3 km/h (1 Bft) O-NO 59 ° 0 min 46 W/m² 8,5 °C 10,7 °C 6,4 km/h (2 Bft)
05.04.2026 07:50 18,9 °C 10,7 °C 47 % 86 % 1013,1 hPa 0,0 l/m² 3,3 km/h (1 Bft) NO 55 ° 0 min 47 W/m² 8,5 °C 10,7 °C 6,4 km/h (2 Bft)
05.04.2026 07:52 18,9 °C 10,7 °C 47 % 86 % 1013,0 hPa 0,0 l/m² 2,0 km/h (1 Bft) O-NO 77 ° 0 min 49 W/m² 8,5 °C 10,7 °C 6,4 km/h (2 Bft)
05.04.2026 07:53 18,9 °C 10,8 °C 47 % 86 % 1013,1 hPa 0,0 l/m² 1,3 km/h (1 Bft) O-NO 78 ° 0 min 49 W/m² 8,6 °C 10,8 °C 4,8 km/h (1 Bft)
05.04.2026 07:54 18,9 °C 10,8 °C 47 % 86 % 1013,1 hPa 0,0 l/m² 0,5 km/h (0 Bft) O-NO 78 ° 0 min 49 W/m² 8,6 °C 10,8 °C 1,6 km/h (1 Bft)
05.04.2026 07:56 18,9 °C 10,8 °C 47 % 86 % 1013,2 hPa 0,0 l/m² 1,1 km/h (1 Bft) O-NO 74 ° 0 min 47 W/m² 8,6 °C 10,8 °C 3,2 km/h (1 Bft)
05.04.2026 07:58 18,9 °C 10,8 °C 47 % 86 % 1013,1 hPa 0,0 l/m² 5,2 km/h (1 Bft) O-NO 70 ° 0 min 47 W/m² 8,6 °C 10,8 °C 11,3 km/h (2 Bft)
05.04.2026 08:00 18,9 °C 10,8 °C 47 % 86 % 1013,1 hPa 0,0 l/m² 3,4 km/h (1 Bft) O-NO 78 ° 0 min 49 W/m² 8,6 °C 10,8 °C 6,4 km/h (2 Bft)
05.04.2026 08:02 18,9 °C 10,8 °C 47 % 86 % 1013,0 hPa 0,0 l/m² 3,5 km/h (1 Bft) O 79 ° 0 min 51 W/m² 8,6 °C 10,8 °C 6,4 km/h (2 Bft)
05.04.2026 08:03 18,9 °C 10,8 °C 47 % 86 % 1013,0 hPa 0,0 l/m² 4,6 km/h (1 Bft) O 80 ° 0 min 51 W/m² 8,6 °C 10,8 °C 6,4 km/h (2 Bft)
05.04.2026 08:04 18,9 °C 10,8 °C 47 % 86 % 1013,0 hPa 0,0 l/m² 5,5 km/h (2 Bft) O-NO 76 ° 1 min 53 W/m² 8,6 °C 10,8 °C 6,4 km/h (2 Bft)
05.04.2026 08:06 18,9 °C 10,8 °C 47 % 86 % 1013,0 hPa 0,0 l/m² 5,6 km/h (2 Bft) O-NO 77 ° 2 min 54 W/m² 8,6 °C 10,8 °C 8,0 km/h (2 Bft)
05.04.2026 08:08 18,9 °C 10,8 °C 47 % 86 % 1013,0 hPa 0,0 l/m² 6,2 km/h (2 Bft) O 95 ° 2 min 56 W/m² 8,6 °C 10,8 °C 9,7 km/h (2 Bft)
05.04.2026 08:10 18,9 °C 10,8 °C 47 % 86 % 1012,9 hPa 0,0 l/m² 6,0 km/h (2 Bft) O 98 ° 2 min 58 W/m² 8,6 °C 10,8 °C 9,7 km/h (2 Bft)
05.04.2026 08:12 18,9 °C 10,8 °C 47 % 86 % 1012,9 hPa 0,0 l/m² 5,1 km/h (1 Bft) O-SO 103 ° 2 min 63 W/m² 8,6 °C 10,8 °C 6,4 km/h (2 Bft)
05.04.2026 08:13 18,9 °C 10,8 °C 47 % 86 % 1012,8 hPa 0,0 l/m² 4,9 km/h (1 Bft) O 101 ° 1 min 65 W/m² 8,6 °C 10,8 °C 6,4 km/h (2 Bft)
05.04.2026 08:14 18,9 °C 10,8 °C 47 % 86 % 1012,8 hPa 0,0 l/m² 1,7 km/h (1 Bft) O-SO 105 ° 1 min 67 W/m² 8,6 °C 10,8 °C 3,2 km/h (1 Bft)
05.04.2026 08:16 18,9 °C 10,8 °C 47 % 86 % 1012,9 hPa 0,0 l/m² 4,9 km/h (1 Bft) O-SO 119 ° 2 min 70 W/m² 8,6 °C 10,8 °C 9,7 km/h (2 Bft)
05.04.2026 08:18 18,9 °C 10,9 °C 47 % 86 % 1012,9 hPa 0,0 l/m² 3,2 km/h (1 Bft) S-SO 153 ° 2 min 72 W/m² 8,7 °C 10,9 °C 8,0 km/h (2 Bft)
05.04.2026 08:20 18,9 °C 10,9 °C 47 % 86 % 1012,8 hPa 0,0 l/m² 4,0 km/h (1 Bft) SO 136 ° 2 min 72 W/m² 8,7 °C 10,9 °C 8,0 km/h (2 Bft)
05.04.2026 08:22 18,9 °C 11,0 °C 47 % 86 % 1012,8 hPa 0,0 l/m² 3,0 km/h (1 Bft) SO 130 ° 2 min 70 W/m² 8,7 °C 11,0 °C 8,0 km/h (2 Bft)
05.04.2026 08:23 18,9 °C 11,0 °C 47 % 86 % 1012,8 hPa 0,0 l/m² 7,2 km/h (2 Bft) SO 137 ° 1 min 70 W/m² 8,7 °C 10,4 °C 12,9 km/h (3 Bft)
05.04.2026 08:24 18,9 °C 11,0 °C 47 % 86 % 1012,8 hPa 0,0 l/m² 5,7 km/h (2 Bft) SO 145 ° 1 min 70 W/m² 8,7 °C 11,0 °C 11,3 km/h (2 Bft)
05.04.2026 08:26 18,9 °C 11,1 °C 47 % 86 % 1012,7 hPa 0,0 l/m² 3,6 km/h (1 Bft) S 172 ° 2 min 70 W/m² 8,8 °C 11,1 °C 9,7 km/h (2 Bft)
05.04.2026 08:28 18,9 °C 11,2 °C 47 % 86 % 1012,7 hPa 0,0 l/m² 5,9 km/h (2 Bft) SO 126 ° 2 min 70 W/m² 8,9 °C 11,2 °C 11,3 km/h (2 Bft)
05.04.2026 08:30 18,9 °C 11,3 °C 47 % 86 % 1012,7 hPa 0,0 l/m² 6,4 km/h (2 Bft) SO 142 ° 2 min 72 W/m² 9,0 °C 11,3 °C 11,3 km/h (2 Bft)
05.04.2026 08:32 18,9 °C 11,3 °C 47 % 86 % 1012,7 hPa 0,0 l/m² 5,4 km/h (2 Bft) SO 128 ° 2 min 74 W/m² 9,0 °C 11,3 °C 12,9 km/h (3 Bft)
05.04.2026 08:33 18,9 °C 11,3 °C 47 % 86 % 1012,7 hPa 0,0 l/m² 6,6 km/h (2 Bft) SO 130 ° 1 min 74 W/m² 9,0 °C 11,2 °C 8,0 km/h (2 Bft)
05.04.2026 08:34 18,9 °C 11,4 °C 47 % 86 % 1012,6 hPa 0,0 l/m² 8,4 km/h (2 Bft) SO 130 ° 1 min 74 W/m² 9,1 °C 10,1 °C 12,9 km/h (3 Bft)
05.04.2026 08:36 18,9 °C 11,5 °C 47 % 86 % 1012,6 hPa 0,0 l/m² 6,5 km/h (2 Bft) SO 128 ° 2 min 76 W/m² 9,2 °C 11,5 °C 11,3 km/h (2 Bft)
05.04.2026 08:38 18,9 °C 11,5 °C 47 % 86 % 1012,6 hPa 0,0 l/m² 6,5 km/h (2 Bft) SO 129 ° 2 min 76 W/m² 9,2 °C 11,5 °C 11,3 km/h (2 Bft)
05.04.2026 08:40 18,9 °C 11,6 °C 47 % 85 % 1012,6 hPa 0,0 l/m² 7,4 km/h (2 Bft) SO 124 ° 2 min 77 W/m² 9,2 °C 10,9 °C 12,9 km/h (3 Bft)
05.04.2026 08:42 18,9 °C 11,6 °C 47 % 86 % 1012,5 hPa 0,0 l/m² 5,3 km/h (1 Bft) SO 127 ° 2 min 77 W/m² 9,3 °C 11,6 °C 11,3 km/h (2 Bft)
05.04.2026 08:43 18,9 °C 11,7 °C 47 % 86 % 1012,5 hPa 0,0 l/m² 4,2 km/h (1 Bft) SO 130 ° 1 min 79 W/m² 9,4 °C 11,7 °C 6,4 km/h (2 Bft)
05.04.2026 08:44 18,9 °C 11,7 °C 47 % 85 % 1012,6 hPa 0,0 l/m² 3,6 km/h (1 Bft) SO 138 ° 1 min 79 W/m² 9,3 °C 11,7 °C 4,8 km/h (1 Bft)
05.04.2026 08:46 18,9 °C 11,7 °C 47 % 85 % 1012,6 hPa 0,0 l/m² 4,6 km/h (1 Bft) S-SO 166 ° 2 min 79 W/m² 9,3 °C 11,7 °C 9,7 km/h (2 Bft)
05.04.2026 08:48 18,9 °C 11,8 °C 47 % 85 % 1012,5 hPa 0,0 l/m² 8,2 km/h (2 Bft) S 173 ° 2 min 77 W/m² 9,4 °C 10,6 °C 12,9 km/h (3 Bft)
05.04.2026 08:50 18,9 °C 11,8 °C 47 % 85 % 1012,5 hPa 0,0 l/m² 11,0 km/h (2 Bft) S-SO 165 ° 2 min 76 W/m² 9,4 °C 9,1 °C 16,1 km/h (3 Bft)
05.04.2026 08:52 18,9 °C 11,9 °C 47 % 85 % 1012,5 hPa 0,0 l/m² 11,8 km/h (2 Bft) S 188 ° 2 min 76 W/m² 9,5 °C 8,8 °C 17,7 km/h (3 Bft)
05.04.2026 08:53 18,9 °C 11,9 °C 47 % 85 % 1012,5 hPa 0,0 l/m² 8,9 km/h (2 Bft) S 187 ° 1 min 76 W/m² 9,5 °C 10,3 °C 14,5 km/h (3 Bft)
05.04.2026 08:55 18,9 °C 12,0 °C 47 % 85 % 1012,4 hPa 0,0 l/m² 7,5 km/h (2 Bft) S-SW 194 ° 2 min 77 W/m² 9,6 °C 11,3 °C 14,5 km/h (3 Bft)
05.04.2026 08:56 18,9 °C 12,1 °C 47 % 84 % 1012,5 hPa 0,0 l/m² 7,8 km/h (2 Bft) S-SW 197 ° 1 min 77 W/m² 9,5 °C 11,2 °C 9,7 km/h (2 Bft)
05.04.2026 08:57 18,9 °C 12,1 °C 47 % 84 % 1012,4 hPa 0,0 l/m² 6,8 km/h (2 Bft) S-SW 195 ° 1 min 79 W/m² 9,5 °C 11,8 °C 12,9 km/h (3 Bft)
05.04.2026 08:58 18,9 °C 12,1 °C 47 % 84 % 1012,5 hPa 0,0 l/m² 9,0 km/h (2 Bft) S-SW 202 ° 1 min 79 W/m² 9,5 °C 10,5 °C 11,3 km/h (2 Bft)
05.04.2026 09:00 18,9 °C 12,2 °C 47 % 84 % 1012,4 hPa 0,0 l/m² 11,9 km/h (2 Bft) S-SW 202 ° 2 min 83 W/m² 9,6 °C 9,1 °C 16,1 km/h (3 Bft)
05.04.2026 09:02 18,9 °C 12,2 °C 47 % 84 % 1012,4 hPa 0,0 l/m² 12,5 km/h (2 Bft) S-SW 192 ° 2 min 84 W/m² 9,6 °C 8,8 °C 19,3 km/h (3 Bft)
05.04.2026 09:03 18,9 °C 12,3 °C 47 % 84 % 1012,4 hPa 0,0 l/m² 15,7 km/h (3 Bft) S 189 ° 1 min 84 W/m² 9,7 °C 7,7 °C 19,3 km/h (3 Bft)
05.04.2026 09:05 18,8 °C 12,3 °C 47 % 83 % 1012,3 hPa 0,0 l/m² 14,8 km/h (3 Bft) S-SO 166 ° 2 min 86 W/m² 9,5 °C 8,0 °C 19,3 km/h (3 Bft)
05.04.2026 09:07 18,9 °C 12,4 °C 47 % 83 % 1012,3 hPa 0,0 l/m² 17,5 km/h (3 Bft) S 189 ° 2 min 88 W/m² 9,6 °C 7,2 °C 27,4 km/h (5 Bft)
05.04.2026 09:09 18,9 °C 12,6 °C 47 % 83 % 1012,3 hPa 0,0 l/m² 15,9 km/h (3 Bft) S-SW 194 ° 2 min 90 W/m² 9,8 °C 8,0 °C 19,3 km/h (3 Bft)
05.04.2026 09:11 18,9 °C 12,7 °C 47 % 82 % 1012,2 hPa 0,0 l/m² 16,5 km/h (3 Bft) S 182 ° 2 min 93 W/m² 9,7 °C 7,9 °C 20,9 km/h (4 Bft)
05.04.2026 09:13 18,9 °C 12,8 °C 47 % 82 % 1012,1 hPa 0,0 l/m² 13,7 km/h (3 Bft) S 184 ° 2 min 97 W/m² 9,8 °C 9,0 °C 22,5 km/h (4 Bft)
05.04.2026 09:15 18,9 °C 12,8 °C 47 % 82 % 1012,2 hPa 0,0 l/m² 15,8 km/h (3 Bft) S 190 ° 2 min 100 W/m² 9,8 °C 8,2 °C 22,5 km/h (4 Bft)
05.04.2026 09:17 18,9 °C 12,9 °C 47 % 81 % 1012,2 hPa 0,0 l/m² 16,2 km/h (3 Bft) S-SW 210 ° 2 min 105 W/m² 9,7 °C 8,2 °C 24,1 km/h (4 Bft)
05.04.2026 09:19 18,8 °C 13,0 °C 47 % 81 % 1012,2 hPa 0,0 l/m² 16,1 km/h (3 Bft) S-SW 202 ° 2 min 109 W/m² 9,8 °C 8,4 °C 27,4 km/h (5 Bft)
05.04.2026 09:21 18,8 °C 13,1 °C 47 % 81 % 1012,3 hPa 0,0 l/m² 17,0 km/h (3 Bft) S-SW 193 ° 2 min 109 W/m² 9,9 °C 8,2 °C 22,5 km/h (4 Bft)
05.04.2026 09:23 18,8 °C 13,1 °C 47 % 81 % 1012,2 hPa 0,0 l/m² 19,2 km/h (3 Bft) S-SW 212 ° 2 min 111 W/m² 9,9 °C 7,5 °C 27,4 km/h (5 Bft)
05.04.2026 09:25 18,8 °C 13,2 °C 47 % 80 % 1012,2 hPa 0,0 l/m² 20,7 km/h (4 Bft) S 190 ° 2 min 111 W/m² 9,8 °C 7,2 °C 27,4 km/h (5 Bft)
05.04.2026 09:27 18,8 °C 13,3 °C 47 % 80 % 1012,2 hPa 0,0 l/m² 19,2 km/h (3 Bft) S-SW 197 ° 2 min 111 W/m² 9,9 °C 7,8 °C 24,1 km/h (4 Bft)
05.04.2026 09:29 18,9 °C 13,3 °C 47 % 80 % 1012,3 hPa 0,0 l/m² 21,8 km/h (4 Bft) S-SW 201 ° 2 min 111 W/m² 9,9 °C 7,1 °C 25,7 km/h (4 Bft)
05.04.2026 09:31 18,8 °C 13,4 °C 47 % 80 % 1012,2 hPa 0,0 l/m² 20,1 km/h (4 Bft) S 178 ° 2 min 113 W/m² 10,0 °C 7,7 °C 27,4 km/h (5 Bft)
05.04.2026 09:33 18,8 °C 13,4 °C 47 % 79 % 1012,1 hPa 0,0 l/m² 21,1 km/h (4 Bft) S-SW 194 ° 2 min 113 W/m² 9,8 °C 7,4 °C 30,6 km/h (5 Bft)
05.04.2026 09:35 18,8 °C 13,6 °C 47 % 79 % 1012,0 hPa 0,0 l/m² 24,1 km/h (4 Bft) S-SW 199 ° 2 min 114 W/m² 10,0 °C 6,9 °C 37,0 km/h (5 Bft)
05.04.2026 09:37 18,8 °C 13,6 °C 47 % 79 % 1012,0 hPa 0,0 l/m² 23,5 km/h (4 Bft) S 179 ° 2 min 116 W/m² 10,0 °C 7,1 °C 35,4 km/h (5 Bft)
05.04.2026 09:39 18,8 °C 13,7 °C 47 % 79 % 1012,0 hPa 0,0 l/m² 24,6 km/h (4 Bft) S 186 ° 2 min 118 W/m² 10,1 °C 6,9 °C 30,6 km/h (5 Bft)
05.04.2026 09:41 18,8 °C 13,7 °C 47 % 79 % 1012,0 hPa 0,0 l/m² 25,3 km/h (4 Bft) S 182 ° 2 min 120 W/m² 10,1 °C 6,8 °C 37,0 km/h (5 Bft)
05.04.2026 09:43 18,8 °C 13,8 °C 47 % 79 % 1011,9 hPa 0,0 l/m² 25,3 km/h (4 Bft) S 186 ° 2 min 121 W/m² 10,2 °C 6,9 °C 35,4 km/h (5 Bft)
05.04.2026 09:45 18,8 °C 13,8 °C 47 % 79 % 1011,9 hPa 0,0 l/m² 23,1 km/h (4 Bft) S 186 ° 2 min 121 W/m² 10,2 °C 7,4 °C 30,6 km/h (5 Bft)
05.04.2026 09:48 18,8 °C 13,8 °C 47 % 79 % 1011,9 hPa 0,0 l/m² 23,5 km/h (4 Bft) S 173 ° 3 min 123 W/m² 10,2 °C 7,3 °C 32,2 km/h (5 Bft)
05.04.2026 09:50 18,8 °C 13,8 °C 47 % 79 % 1011,9 hPa 0,0 l/m² 21,4 km/h (4 Bft) S 185 ° 2 min 123 W/m² 10,2 °C 7,8 °C 29,0 km/h (5 Bft)
05.04.2026 09:52 18,8 °C 13,9 °C 47 % 78 % 1012,0 hPa 0,0 l/m² 22,3 km/h (4 Bft) S-SW 195 ° 2 min 127 W/m² 10,1 °C 7,7 °C 32,2 km/h (5 Bft)
05.04.2026 09:54 18,8 °C 13,9 °C 47 % 78 % 1011,9 hPa 0,0 l/m² 21,0 km/h (4 Bft) S 188 ° 2 min 130 W/m² 10,1 °C 8,1 °C 24,1 km/h (4 Bft)
05.04.2026 09:56 18,8 °C 14,1 °C 47 % 78 % 1012,0 hPa 0,0 l/m² 18,7 km/h (3 Bft) S-SW 205 ° 2 min 132 W/m² 10,3 °C 8,9 °C 29,0 km/h (5 Bft)
05.04.2026 09:58 18,8 °C 14,1 °C 47 % 78 % 1012,0 hPa 0,0 l/m² 16,8 km/h (3 Bft) S-SW 202 ° 2 min 132 W/m² 10,3 °C 9,5 °C 24,1 km/h (4 Bft)
05.04.2026 10:00 18,8 °C 14,1 °C 47 % 78 % 1012,0 hPa 0,0 l/m² 19,2 km/h (3 Bft) S-SW 192 ° 2 min 132 W/m² 10,3 °C 8,8 °C 27,4 km/h (5 Bft)
05.04.2026 10:02 18,8 °C 14,2 °C 47 % 78 % 1012,0 hPa 0,0 l/m² 24,4 km/h (4 Bft) S 186 ° 2 min 132 W/m² 10,4 °C 7,7 °C 32,2 km/h (5 Bft)
05.04.2026 10:04 18,8 °C 14,2 °C 47 % 78 % 1012,0 hPa 0,0 l/m² 18,0 km/h (3 Bft) S 184 ° 2 min 132 W/m² 10,4 °C 9,3 °C 24,1 km/h (4 Bft)
05.04.2026 10:06 18,8 °C 14,3 °C 47 % 77 % 1011,9 hPa 0,0 l/m² 22,5 km/h (4 Bft) S-SW 198 ° 2 min 134 W/m² 10,3 °C 8,2 °C 29,0 km/h (5 Bft)
05.04.2026 10:08 18,8 °C 14,3 °C 47 % 77 % 1011,9 hPa 0,0 l/m² 20,1 km/h (4 Bft) S 181 ° 2 min 134 W/m² 10,3 °C 8,8 °C 27,4 km/h (5 Bft)
05.04.2026 10:10 18,8 °C 14,4 °C 47 % 77 % 1012,0 hPa 0,0 l/m² 18,5 km/h (3 Bft) S 190 ° 2 min 135 W/m² 10,4 °C 9,4 °C 27,4 km/h (5 Bft)
05.04.2026 10:12 18,8 °C 14,4 °C 47 % 77 % 1012,0 hPa 0,0 l/m² 16,9 km/h (3 Bft) S-SW 204 ° 2 min 135 W/m² 10,4 °C 9,9 °C 22,5 km/h (4 Bft)
05.04.2026 10:14 18,8 °C 14,5 °C 47 % 77 % 1012,0 hPa 0,0 l/m² 19,7 km/h (3 Bft) S-SW 200 ° 2 min 135 W/m² 10,5 °C 9,2 °C 30,6 km/h (5 Bft)
05.04.2026 10:16 18,8 °C 14,6 °C 47 % 76 % 1011,9 hPa 0,0 l/m² 20,4 km/h (4 Bft) S 188 ° 2 min 134 W/m² 10,4 °C 9,1 °C 29,0 km/h (5 Bft)
05.04.2026 10:18 18,8 °C 14,7 °C 47 % 75 % 1011,9 hPa 0,0 l/m² 23,6 km/h (4 Bft) S-SW 194 ° 2 min 132 W/m² 10,3 °C 8,5 °C 35,4 km/h (5 Bft)
05.04.2026 10:20 18,8 °C 14,8 °C 47 % 75 % 1011,8 hPa 0,0 l/m² 21,5 km/h (4 Bft) SW 215 ° 2 min 134 W/m² 10,4 °C 9,1 °C 29,0 km/h (5 Bft)
05.04.2026 10:22 18,8 °C 14,8 °C 47 % 75 % 1011,8 hPa 0,0 l/m² 23,8 km/h (4 Bft) SW 222 ° 2 min 132 W/m² 10,4 °C 8,6 °C 35,4 km/h (5 Bft)
05.04.2026 10:24 18,8 °C 14,9 °C 47 % 75 % 1011,9 hPa 0,0 l/m² 24,3 km/h (4 Bft) SW 219 ° 2 min 132 W/m² 10,5 °C 8,6 °C 33,8 km/h (5 Bft)
05.04.2026 10:26 18,8 °C 15,0 °C 47 % 74 % 1011,8 hPa 0,0 l/m² 27,4 km/h (5 Bft) S-SW 195 ° 2 min 132 W/m² 10,4 °C 8,1 °C 35,4 km/h (5 Bft)
05.04.2026 10:28 18,8 °C 15,1 °C 47 % 74 % 1011,9 hPa 0,0 l/m² 23,1 km/h (4 Bft) S-SW 200 ° 2 min 132 W/m² 10,5 °C 9,1 °C 33,8 km/h (5 Bft)
05.04.2026 10:30 18,8 °C 15,2 °C 47 % 74 % 1011,9 hPa 0,0 l/m² 22,4 km/h (4 Bft) S-SW 203 ° 2 min 134 W/m² 10,6 °C 9,4 °C 29,0 km/h (5 Bft)
05.04.2026 10:32 18,8 °C 15,3 °C 47 % 73 % 1012,0 hPa 0,0 l/m² 24,6 km/h (4 Bft) S-SW 213 ° 2 min 135 W/m² 10,5 °C 9,1 °C 32,2 km/h (5 Bft)
05.04.2026 10:34 18,8 °C 15,3 °C 47 % 73 % 1012,0 hPa 0,0 l/m² 26,8 km/h (4 Bft) S-SW 211 ° 2 min 139 W/m² 10,5 °C 8,7 °C 37,0 km/h (5 Bft)
05.04.2026 10:36 18,8 °C 15,4 °C 47 % 73 % 1012,0 hPa 0,0 l/m² 26,6 km/h (4 Bft) S-SW 213 ° 2 min 141 W/m² 10,6 °C 8,8 °C 32,2 km/h (5 Bft)
05.04.2026 10:38 18,8 °C 15,4 °C 47 % 72 % 1011,9 hPa 0,0 l/m² 22,4 km/h (4 Bft) S-SW 195 ° 2 min 142 W/m² 10,4 °C 9,7 °C 32,2 km/h (5 Bft)
05.04.2026 10:40 18,8 °C 15,5 °C 47 % 72 % 1012,0 hPa 0,0 l/m² 26,2 km/h (4 Bft) S-SW 209 ° 2 min 141 W/m² 10,5 °C 9,1 °C 32,2 km/h (5 Bft)
05.04.2026 10:42 18,8 °C 15,6 °C 47 % 72 % 1012,0 hPa 0,0 l/m² 22,7 km/h (4 Bft) S-SW 205 ° 2 min 142 W/m² 10,6 °C 9,9 °C 29,0 km/h (5 Bft)
05.04.2026 10:44 18,8 °C 15,7 °C 47 % 71 % 1011,9 hPa 0,0 l/m² 25,9 km/h (4 Bft) S-SW 212 ° 2 min 144 W/m² 10,5 °C 9,4 °C 37,0 km/h (5 Bft)
05.04.2026 10:46 18,8 °C 15,7 °C 47 % 71 % 1012,0 hPa 0,0 l/m² 30,2 km/h (5 Bft) SW 226 ° 2 min 149 W/m² 10,5 °C 8,6 °C 37,0 km/h (5 Bft)
05.04.2026 10:48 18,8 °C 15,8 °C 47 % 71 % 1012,0 hPa 0,0 l/m² 23,1 km/h (4 Bft) SW 223 ° 2 min 151 W/m² 10,6 °C 10,1 °C 32,2 km/h (5 Bft)
05.04.2026 10:50 18,8 °C 15,8 °C 47 % 70 % 1012,1 hPa 0,0 l/m² 25,9 km/h (4 Bft) SW 214 ° 2 min 153 W/m² 10,3 °C 9,5 °C 37,0 km/h (5 Bft)
05.04.2026 10:52 18,8 °C 15,9 °C 47 % 70 % 1012,1 hPa 0,0 l/m² 27,7 km/h (5 Bft) SW 217 ° 2 min 155 W/m² 10,4 °C 9,3 °C 38,6 km/h (6 Bft)
05.04.2026 10:54 18,8 °C 15,9 °C 47 % 70 % 1012,1 hPa 0,0 l/m² 24,0 km/h (4 Bft) SW 231 ° 2 min 156 W/m² 10,4 °C 10,0 °C 32,2 km/h (5 Bft)
05.04.2026 10:56 18,8 °C 16,0 °C 47 % 70 % 1012,0 hPa 0,0 l/m² 23,9 km/h (4 Bft) SW 219 ° 2 min 158 W/m² 10,5 °C 10,2 °C 33,8 km/h (5 Bft)
05.04.2026 10:58 18,8 °C 16,1 °C 47 % 69 % 1012,0 hPa 0,0 l/m² 33,1 km/h (5 Bft) S-SW 209 ° 2 min 163 W/m² 10,4 °C 8,8 °C 43,5 km/h (6 Bft)
05.04.2026 11:00 18,8 °C 16,1 °C 47 % 68 % 1012,0 hPa 0,0 l/m² 36,3 km/h (5 Bft) SW 221 ° 2 min 165 W/m² 10,2 °C 8,4 °C 43,5 km/h (6 Bft)
05.04.2026 11:02 18,7 °C 16,2 °C 47 % 68 % 1012,1 hPa 0,0 l/m² 34,6 km/h (5 Bft) SW 233 ° 2 min 167 W/m² 10,3 °C 8,7 °C 46,7 km/h (6 Bft)
05.04.2026 11:03 18,7 °C 16,2 °C 47 % 67 % 1012,1 hPa 0,0 l/m² 31,0 km/h (5 Bft) SW 235 ° 1 min 167 W/m² 10,1 °C 9,2 °C 38,6 km/h (6 Bft)
05.04.2026 11:05 18,8 °C 16,2 °C 47 % 67 % 1012,0 hPa 0,0 l/m² 33,5 km/h (5 Bft) SW 221 ° 2 min 167 W/m² 10,1 °C 8,9 °C 41,8 km/h (6 Bft)
05.04.2026 11:07 18,8 °C 16,3 °C 47 % 67 % 1012,1 hPa 0,0 l/m² 21,9 km/h (4 Bft) SW 224 ° 2 min 169 W/m² 10,2 °C 11,0 °C 27,4 km/h (5 Bft)
05.04.2026 11:09 18,8 °C 16,3 °C 47 % 67 % 1012,1 hPa 0,0 l/m² 27,7 km/h (5 Bft) SW 227 ° 2 min 174 W/m² 10,2 °C 9,9 °C 38,6 km/h (6 Bft)
05.04.2026 11:11 18,8 °C 16,3 °C 47 % 67 % 1012,1 hPa 0,0 l/m² 30,2 km/h (5 Bft) SW 217 ° 2 min 176 W/m² 10,2 °C 9,5 °C 38,6 km/h (6 Bft)
05.04.2026 11:13 18,8 °C 16,3 °C 47 % 67 % 1012,1 hPa 0,0 l/m² 27,2 km/h (5 Bft) SW 221 ° 2 min 179 W/m² 10,2 °C 10,0 °C 35,4 km/h (5 Bft)
05.04.2026 11:15 18,7 °C 16,3 °C 47 % 67 % 1012,1 hPa 0,0 l/m² 26,1 km/h (4 Bft) SW 217 ° 2 min 181 W/m² 10,2 °C 10,2 °C 35,4 km/h (5 Bft)
05.04.2026 11:17 18,8 °C 16,3 °C 47 % 67 % 1012,1 hPa 0,0 l/m² 28,3 km/h (5 Bft) SW 223 ° 2 min 185 W/m² 10,2 °C 9,8 °C 38,6 km/h (6 Bft)
05.04.2026 11:19 18,8 °C 16,4 °C 47 % 67 % 1012,1 hPa 0,0 l/m² 22,9 km/h (4 Bft) SW 223 ° 2 min 190 W/m² 10,3 °C 10,9 °C 30,6 km/h (5 Bft)
05.04.2026 11:21 18,8 °C 16,4 °C 47 % 67 % 1012,2 hPa 0,0 l/m² 28,8 km/h (5 Bft) S-SW 205 ° 2 min 202 W/m² 10,3 °C 9,8 °C 33,8 km/h (5 Bft)
05.04.2026 11:23 18,8 °C 16,4 °C 47 % 67 % 1012,1 hPa 0,0 l/m² 33,8 km/h (5 Bft) SW 226 ° 2 min 207 W/m² 10,3 °C 9,1 °C 43,5 km/h (6 Bft)
05.04.2026 11:25 18,8 °C 16,4 °C 47 % 67 % 1012,2 hPa 0,0 l/m² 29,8 km/h (5 Bft) S-SW 202 ° 2 min 209 W/m² 10,3 °C 9,7 °C 45,1 km/h (6 Bft)
05.04.2026 11:27 18,8 °C 16,4 °C 47 % 67 % 1012,2 hPa 0,0 l/m² 25,5 km/h (4 Bft) SW 222 ° 2 min 213 W/m² 10,3 °C 10,4 °C 37,0 km/h (5 Bft)
05.04.2026 11:29 18,8 °C 16,4 °C 47 % 67 % 1012,1 hPa 0,0 l/m² 22,0 km/h (4 Bft) SW 216 ° 2 min 220 W/m² 10,3 °C 11,1 °C 29,0 km/h (5 Bft)
05.04.2026 11:31 18,7 °C 16,5 °C 47 % 67 % 1012,2 hPa 0,0 l/m² 23,2 km/h (4 Bft) SW 229 ° 2 min 225 W/m² 10,4 °C 11,0 °C 32,2 km/h (5 Bft)
05.04.2026 11:33 18,7 °C 16,5 °C 47 % 67 % 1012,2 hPa 0,0 l/m² 24,2 km/h (4 Bft) SW 215 ° 2 min 236 W/m² 10,4 °C 10,8 °C 30,6 km/h (5 Bft)
05.04.2026 11:35 18,7 °C 16,6 °C 47 % 67 % 1012,3 hPa 0,0 l/m² 18,4 km/h (3 Bft) SW 228 ° 2 min 250 W/m² 10,4 °C 12,2 °C 27,4 km/h (5 Bft)
05.04.2026 11:37 18,7 °C 16,6 °C 47 % 68 % 1012,2 hPa 0,0 l/m² 15,0 km/h (3 Bft) SW 222 ° 2 min 258 W/m² 10,7 °C 13,1 °C 24,1 km/h (4 Bft)
05.04.2026 11:39 18,8 °C 16,7 °C 47 % 68 % 1012,3 hPa 0,0 l/m² 18,4 km/h (3 Bft) SW 227 ° 2 min 251 W/m² 10,8 °C 12,3 °C 30,6 km/h (5 Bft)
05.04.2026 11:41 18,7 °C 16,7 °C 47 % 67 % 1012,2 hPa 0,0 l/m² 25,8 km/h (4 Bft) SW 227 ° 2 min 246 W/m² 10,5 °C 10,8 °C 35,4 km/h (5 Bft)
05.04.2026 11:43 18,7 °C 16,7 °C 47 % 67 % 1012,1 hPa 0,0 l/m² 22,0 km/h (4 Bft) SW 228 ° 2 min 230 W/m² 10,5 °C 11,5 °C 30,6 km/h (5 Bft)
05.04.2026 11:45 18,7 °C 16,8 °C 47 % 66 % 1012,2 hPa 0,0 l/m² 20,4 km/h (4 Bft) SW 215 ° 2 min 221 W/m² 10,4 °C 12,0 °C 27,4 km/h (5 Bft)
05.04.2026 11:47 18,7 °C 16,8 °C 47 % 66 % 1012,3 hPa 0,0 l/m² 17,0 km/h (3 Bft) SW 236 ° 2 min 218 W/m² 10,4 °C 12,8 °C 24,1 km/h (4 Bft)
05.04.2026 11:49 18,8 °C 16,9 °C 47 % 66 % 1012,3 hPa 0,0 l/m² 21,7 km/h (4 Bft) SW 236 ° 2 min 211 W/m² 10,5 °C 11,8 °C 32,2 km/h (5 Bft)
05.04.2026 11:51 18,7 °C 16,9 °C 47 % 66 % 1012,3 hPa 0,0 l/m² 18,7 km/h (3 Bft) S-SW 210 ° 2 min 209 W/m² 10,5 °C 12,5 °C 25,7 km/h (4 Bft)
05.04.2026 11:53 18,7 °C 16,9 °C 47 % 65 % 1012,4 hPa 0,0 l/m² 22,5 km/h (4 Bft) W-SW 242 ° 2 min 214 W/m² 10,3 °C 11,7 °C 29,0 km/h (5 Bft)
05.04.2026 11:55 18,7 °C 17,0 °C 47 % 65 % 1012,4 hPa 0,0 l/m² 30,1 km/h (5 Bft) W-SW 257 ° 2 min 227 W/m² 10,4 °C 10,5 °C 38,6 km/h (6 Bft)
05.04.2026 11:57 18,7 °C 17,1 °C 47 % 65 % 1012,4 hPa 0,0 l/m² 21,9 km/h (4 Bft) W-SW 244 ° 2 min 234 W/m² 10,5 °C 12,1 °C 29,0 km/h (5 Bft)
05.04.2026 11:59 18,7 °C 17,1 °C 47 % 64 % 1012,4 hPa 0,0 l/m² 23,7 km/h (4 Bft) S-SW 210 ° 2 min 239 W/m² 10,2 °C 11,7 °C 35,4 km/h (5 Bft)
05.04.2026 12:00 18,7 °C 17,1 °C 47 % 63 % 1012,6 hPa 0,0 l/m² 22,5 km/h (4 Bft) SW 225 ° 1 min 241 W/m² 10,0 °C 11,9 °C 33,8 km/h (5 Bft)
05.04.2026 12:01 18,7 °C 17,1 °C 47 % 63 % 1012,5 hPa 0,0 l/m² 22,5 km/h (4 Bft) SW 225 ° 1 min 243 W/m² 10,0 °C 11,9 °C 30,6 km/h (5 Bft)
05.04.2026 12:06 18,7 °C 17,2 °C 47 % 62 % 1012,5 hPa 0,0 l/m² 29,0 km/h (5 Bft) W-SW 242 ° 5 min 253 W/m² 9,9 °C 10,9 °C 38,6 km/h (6 Bft)
05.04.2026 12:08 18,7 °C 17,3 °C 47 % 61 % 1012,5 hPa 0,0 l/m² 27,1 km/h (5 Bft) W-SW 258 ° 2 min 255 W/m² 9,7 °C 11,4 °C 37,0 km/h (5 Bft)
05.04.2026 12:09 18,7 °C 17,3 °C 47 % 61 % 1012,5 hPa 0,0 l/m² 27,4 km/h (5 Bft) SW 232 ° 1 min 255 W/m² 9,7 °C 11,3 °C 35,4 km/h (5 Bft)
05.04.2026 12:12 18,7 °C 17,4 °C 47 % 61 % 1012,5 hPa 0,0 l/m² 24,8 km/h (4 Bft) SW 221 ° 3 min 264 W/m² 9,8 °C 11,9 °C 35,4 km/h (5 Bft)
05.04.2026 12:13 18,7 °C 17,4 °C 47 % 60 % 1012,5 hPa 0,0 l/m² 28,4 km/h (5 Bft) W-SW 238 ° 1 min 269 W/m² 9,6 °C 11,3 °C 40,2 km/h (6 Bft)
05.04.2026 12:14 18,7 °C 17,4 °C 47 % 60 % 1012,5 hPa 0,0 l/m² 25,4 km/h (4 Bft) SW 225 ° 1 min 271 W/m² 9,6 °C 11,8 °C 29,0 km/h (5 Bft)
05.04.2026 12:16 18,7 °C 17,4 °C 47 % 61 % 1012,4 hPa 0,0 l/m² 26,2 km/h (4 Bft) SW 225 ° 2 min 274 W/m² 9,8 °C 11,7 °C 33,8 km/h (5 Bft)
05.04.2026 12:17 18,7 °C 17,5 °C 47 % 60 % 1012,4 hPa 0,0 l/m² 27,7 km/h (5 Bft) SW 236 ° 1 min 274 W/m² 9,6 °C 11,5 °C 33,8 km/h (5 Bft)
05.04.2026 12:18 18,7 °C 17,6 °C 47 % 61 % 1012,5 hPa 0,0 l/m² 27,1 km/h (5 Bft) SW 217 ° 1 min 274 W/m² 10,0 °C 11,8 °C 35,4 km/h (5 Bft)
05.04.2026 12:20 18,7 °C 17,6 °C 47 % 61 % 1012,5 hPa 0,0 l/m² 23,5 km/h (4 Bft) W-SW 254 ° 2 min 287 W/m² 10,0 °C 12,4 °C 37,0 km/h (5 Bft)
05.04.2026 12:22 18,7 °C 17,7 °C 47 % 61 % 1012,5 hPa 0,0 l/m² 25,0 km/h (4 Bft) SW 218 ° 2 min 301 W/m² 10,1 °C 12,3 °C 33,8 km/h (5 Bft)
05.04.2026 12:23 18,7 °C 17,7 °C 47 % 60 % 1012,5 hPa 0,0 l/m² 29,5 km/h (5 Bft) SW 227 ° 1 min 302 W/m² 9,8 °C 11,6 °C 38,6 km/h (6 Bft)
05.04.2026 12:24 18,7 °C 17,7 °C 47 % 60 % 1012,5 hPa 0,0 l/m² 31,9 km/h (5 Bft) SW 229 ° 1 min 316 W/m² 9,8 °C 11,2 °C 38,6 km/h (6 Bft)
05.04.2026 12:26 18,7 °C 17,8 °C 47 % 60 % 1012,4 hPa 0,0 l/m² 28,0 km/h (5 Bft) W-SW 252 ° 2 min 302 W/m² 9,9 °C 11,9 °C 35,4 km/h (5 Bft)
05.04.2026 12:28 18,7 °C 17,8 °C 47 % 59 % 1012,5 hPa 0,0 l/m² 27,9 km/h (5 Bft) SW 234 ° 2 min 287 W/m² 9,7 °C 11,9 °C 38,6 km/h (6 Bft)
05.04.2026 12:30 18,7 °C 17,9 °C 47 % 60 % 1012,5 hPa 0,0 l/m² 24,5 km/h (4 Bft) SW 234 ° 2 min 276 W/m² 10,0 °C 12,6 °C 38,6 km/h (6 Bft)
05.04.2026 12:32 18,7 °C 17,9 °C 47 % 60 % 1012,4 hPa 0,0 l/m² 25,0 km/h (4 Bft) SW 215 ° 2 min 274 W/m² 10,0 °C 12,5 °C 33,8 km/h (5 Bft)
05.04.2026 12:33 18,7 °C 17,9 °C 47 % 59 % 1012,4 hPa 0,0 l/m² 23,8 km/h (4 Bft) S-SW 207 ° 1 min 283 W/m² 9,8 °C 12,7 °C 37,0 km/h (5 Bft)
05.04.2026 12:34 18,7 °C 18,0 °C 47 % 59 % 1012,5 hPa 0,0 l/m² 21,5 km/h (4 Bft) SW 236 ° 1 min 267 W/m² 9,9 °C 13,3 °C 29,0 km/h (5 Bft)
05.04.2026 12:36 18,7 °C 18,0 °C 47 % 60 % 1012,5 hPa 0,0 l/m² 22,5 km/h (4 Bft) SW 235 ° 2 min 267 W/m² 10,1 °C 13,1 °C 32,2 km/h (5 Bft)
05.04.2026 12:38 18,7 °C 18,1 °C 47 % 59 % 1012,5 hPa 0,0 l/m² 29,4 km/h (5 Bft) S-SW 209 ° 2 min 299 W/m² 10,0 °C 12,1 °C 40,2 km/h (6 Bft)
05.04.2026 12:40 18,7 °C 18,1 °C 47 % 58 % 1012,5 hPa 0,0 l/m² 27,5 km/h (5 Bft) W-SW 246 ° 2 min 316 W/m² 9,7 °C 12,4 °C 38,6 km/h (6 Bft)
05.04.2026 12:42 18,7 °C 18,2 °C 47 % 59 % 1012,6 hPa 0,0 l/m² 25,4 km/h (4 Bft) W 273 ° 2 min 392 W/m² 10,1 °C 12,9 °C 35,4 km/h (5 Bft)
05.04.2026 12:43 18,7 °C 18,2 °C 47 % 58 % 1012,6 hPa 0,0 l/m² 23,3 km/h (4 Bft) W 275 ° 1 min 427 W/m² 9,8 °C 13,2 °C 32,2 km/h (5 Bft)
05.04.2026 12:45 18,7 °C 18,2 °C 47 % 59 % 1012,5 hPa 0,0 l/m² 27,3 km/h (5 Bft) W 263 ° 2 min 355 W/m² 10,1 °C 12,6 °C 37,0 km/h (5 Bft)
05.04.2026 12:47 18,7 °C 18,3 °C 47 % 58 % 1012,6 hPa 0,0 l/m² 29,1 km/h (5 Bft) W-SW 254 ° 2 min 381 W/m² 9,9 °C 12,5 °C 38,6 km/h (6 Bft)
05.04.2026 12:49 18,7 °C 18,4 °C 47 % 58 % 1012,6 hPa 0,0 l/m² 29,1 km/h (5 Bft) W 264 ° 2 min 369 W/m² 10,0 °C 12,6 °C 40,2 km/h (6 Bft)
05.04.2026 12:51 18,7 °C 18,4 °C 47 % 57 % 1012,7 hPa 0,0 l/m² 28,8 km/h (5 Bft) W 259 ° 2 min 350 W/m² 9,7 °C 12,6 °C 43,5 km/h (6 Bft)
05.04.2026 12:52 18,7 °C 18,4 °C 47 % 57 % 1012,7 hPa 0,0 l/m² 29,3 km/h (5 Bft) W-SW 258 ° 1 min 580 W/m² 9,7 °C 12,6 °C 33,8 km/h (5 Bft)
05.04.2026 12:53 18,7 °C 18,4 °C 47 % 57 % 1012,7 hPa 0,0 l/m² 24,3 km/h (4 Bft) W 266 ° 1 min 679 W/m² 9,7 °C 13,3 °C 32,2 km/h (5 Bft)
05.04.2026 12:55 18,7 °C 18,6 °C 47 % 57 % 1012,7 hPa 0,0 l/m² 23,4 km/h (4 Bft) W 266 ° 2 min 650 W/m² 9,9 °C 13,8 °C 35,4 km/h (5 Bft)
05.04.2026 12:57 18,7 °C 18,7 °C 47 % 57 % 1012,7 hPa 0,0 l/m² 26,7 km/h (4 Bft) W-SW 254 ° 2 min 726 W/m² 10,0 °C 13,4 °C 35,4 km/h (5 Bft)
05.04.2026 12:59 18,7 °C 18,8 °C 47 % 57 % 1012,7 hPa 0,0 l/m² 25,6 km/h (4 Bft) W-SW 242 ° 2 min 803 W/m² 10,1 °C 13,7 °C 35,4 km/h (5 Bft)
05.04.2026 13:01 18,7 °C 19,0 °C 47 % 57 % 1012,7 hPa 0,0 l/m² 23,8 km/h (4 Bft) W-SW 253 ° 2 min 895 W/m² 10,3 °C 14,2 °C 32,2 km/h (5 Bft)
05.04.2026 13:02 18,7 °C 19,2 °C 47 % 57 % 1012,7 hPa 0,0 l/m² 21,1 km/h (4 Bft) W-SW 247 ° 1 min 853 W/m² 10,5 °C 15,0 °C 25,7 km/h (4 Bft)
05.04.2026 13:03 18,7 °C 19,3 °C 47 % 56 % 1012,7 hPa 0,0 l/m² 30,7 km/h (5 Bft) W 264 ° 1 min 851 W/m² 10,3 °C 13,6 °C 40,2 km/h (6 Bft)
05.04.2026 13:04 18,7 °C 19,4 °C 47 % 54 % 1012,8 hPa 0,0 l/m² 30,3 km/h (5 Bft) W-SW 257 ° 1 min 838 W/m² 9,8 °C 13,8 °C 37,0 km/h (5 Bft)
05.04.2026 13:05 18,7 °C 19,5 °C 47 % 53 % 1012,8 hPa 0,0 l/m² 33,9 km/h (5 Bft) W-SW 250 ° 1 min 809 W/m² 9,7 °C 13,6 °C 43,5 km/h (6 Bft)
05.04.2026 13:06 18,7 °C 19,6 °C 47 % 53 % 1012,8 hPa 0,0 l/m² 34,2 km/h (5 Bft) W 268 ° 1 min 870 W/m² 9,8 °C 13,7 °C 41,8 km/h (6 Bft)
05.04.2026 13:08 18,7 °C 19,7 °C 47 % 52 % 1012,8 hPa 0,0 l/m² 32,5 km/h (5 Bft) W-SW 257 ° 2 min 893 W/m² 9,6 °C 14,0 °C 45,1 km/h (6 Bft)
05.04.2026 13:09 18,7 °C 19,8 °C 47 % 52 % 1012,8 hPa 0,0 l/m² 27,9 km/h (5 Bft) W-SW 258 ° 1 min 893 W/m² 9,7 °C 14,7 °C 41,8 km/h (6 Bft)
05.04.2026 13:11 18,7 °C 19,8 °C 47 % 53 % 1012,8 hPa 0,0 l/m² 30,3 km/h (5 Bft) W 270 ° 2 min 729 W/m² 9,9 °C 14,4 °C 41,8 km/h (6 Bft)
05.04.2026 13:12 18,7 °C 19,8 °C 47 % 52 % 1012,8 hPa 0,0 l/m² 27,7 km/h (5 Bft) W 263 ° 1 min 780 W/m² 9,7 °C 14,7 °C 38,6 km/h (6 Bft)
05.04.2026 13:13 18,7 °C 19,9 °C 47 % 53 % 1012,8 hPa 0,0 l/m² 26,5 km/h (4 Bft) W 263 ° 1 min 800 W/m² 10,0 °C 15,0 °C 35,4 km/h (5 Bft)
05.04.2026 13:15 18,7 °C 20,0 °C 47 % 52 % 1012,8 hPa 0,0 l/m² 28,4 km/h (5 Bft) W-SW 254 ° 2 min 849 W/m² 9,8 °C 14,9 °C 38,6 km/h (6 Bft)
05.04.2026 13:16 18,7 °C 20,1 °C 47 % 53 % 1012,9 hPa 0,0 l/m² 29,1 km/h (5 Bft) W-SW 249 ° 1 min 821 W/m² 10,2 °C 15,0 °C 37,0 km/h (5 Bft)
05.04.2026 13:17 18,7 °C 20,2 °C 47 % 51 % 1012,9 hPa 0,0 l/m² 27,9 km/h (5 Bft) W-SW 246 ° 1 min 824 W/m² 9,7 °C 15,3 °C 33,8 km/h (5 Bft)
05.04.2026 13:18 18,7 °C 20,2 °C 47 % 51 % 1013,0 hPa 0,0 l/m² 29,2 km/h (5 Bft) W 267 ° 1 min 775 W/m² 9,7 °C 15,1 °C 33,8 km/h (5 Bft)
05.04.2026 13:19 18,7 °C 20,2 °C 47 % 51 % 1013,0 hPa 0,0 l/m² 28,0 km/h (5 Bft) W-SW 255 ° 1 min 775 W/m² 9,7 °C 15,2 °C 40,2 km/h (6 Bft)
05.04.2026 13:21 18,7 °C 20,3 °C 47 % 51 % 1013,0 hPa 0,0 l/m² 28,9 km/h (5 Bft) W-SW 242 ° 2 min 775 W/m² 9,8 °C 15,3 °C 38,6 km/h (6 Bft)
05.04.2026 13:22 18,7 °C 20,3 °C 47 % 51 % 1013,0 hPa 0,0 l/m² 25,5 km/h (4 Bft) W 270 ° 1 min 979 W/m² 9,8 °C 15,7 °C 33,8 km/h (5 Bft)
05.04.2026 13:23 18,7 °C 20,3 °C 47 % 52 % 1013,0 hPa 0,0 l/m² 30,9 km/h (5 Bft) W-SW 250 ° 1 min 420 W/m² 10,1 °C 15,0 °C 38,6 km/h (6 Bft)
05.04.2026 13:25 18,7 °C 20,3 °C 47 % 49 % 1013,0 hPa 0,0 l/m² 32,7 km/h (5 Bft) W 263 ° 2 min 446 W/m² 9,2 °C 14,8 °C 46,7 km/h (6 Bft)
05.04.2026 13:26 18,7 °C 20,3 °C 47 % 51 % 1013,0 hPa 0,0 l/m² 21,7 km/h (4 Bft) W 259 ° 1 min 446 W/m² 9,8 °C 16,3 °C 30,6 km/h (5 Bft)
05.04.2026 13:27 18,7 °C 20,3 °C 47 % 51 % 1013,0 hPa 0,0 l/m² 26,4 km/h (4 Bft) W-SW 248 ° 1 min 446 W/m² 9,8 °C 15,6 °C 32,2 km/h (5 Bft)
05.04.2026 13:28 18,7 °C 20,3 °C 47 % 50 % 1013,0 hPa 0,0 l/m² 30,3 km/h (5 Bft) W-SW 241 ° 1 min 446 W/m² 9,5 °C 15,1 °C 35,4 km/h (5 Bft)
05.04.2026 13:29 18,7 °C 20,3 °C 47 % 50 % 1013,0 hPa 0,0 l/m² 34,6 km/h (5 Bft) W-SW 250 ° 1 min 397 W/m² 9,5 °C 14,6 °C 43,5 km/h (6 Bft)
05.04.2026 13:31 18,7 °C 20,3 °C 47 % 50 % 1013,1 hPa 0,0 l/m² 29,0 km/h (5 Bft) SW 234 ° 2 min 422 W/m² 9,5 °C 15,3 °C 37,0 km/h (5 Bft)
05.04.2026 13:32 18,7 °C 20,3 °C 47 % 50 % 1013,2 hPa 0,0 l/m² 24,9 km/h (4 Bft) W-SW 253 ° 1 min 397 W/m² 9,5 °C 15,8 °C 33,8 km/h (5 Bft)
05.04.2026 13:33 18,7 °C 20,2 °C 47 % 50 % 1013,2 hPa 0,0 l/m² 27,9 km/h (5 Bft) SW 225 ° 1 min 422 W/m² 9,4 °C 15,3 °C 35,4 km/h (5 Bft)
05.04.2026 13:35 18,7 °C 20,2 °C 47 % 50 % 1013,2 hPa 0,0 l/m² 27,8 km/h (5 Bft) W-SW 255 ° 2 min 452 W/m² 9,4 °C 15,3 °C 33,8 km/h (5 Bft)
05.04.2026 13:36 18,7 °C 20,1 °C 47 % 50 % 1013,1 hPa 0,0 l/m² 31,7 km/h (5 Bft) W-SW 256 ° 1 min 452 W/m² 9,3 °C 14,7 °C 37,0 km/h (5 Bft)
05.04.2026 13:37 18,7 °C 20,1 °C 47 % 50 % 1013,2 hPa 0,0 l/m² 32,0 km/h (5 Bft) W-SW 257 ° 1 min 452 W/m² 9,3 °C 14,6 °C 41,8 km/h (6 Bft)
05.04.2026 13:38 18,7 °C 20,0 °C 47 % 50 % 1013,1 hPa 0,0 l/m² 29,5 km/h (5 Bft) W 263 ° 1 min 315 W/m² 9,3 °C 14,8 °C 38,6 km/h (6 Bft)
05.04.2026 13:39 18,7 °C 19,9 °C 47 % 51 % 1013,0 hPa 0,0 l/m² 31,3 km/h (5 Bft) W-SW 251 ° 1 min 287 W/m² 9,5 °C 14,4 °C 40,2 km/h (6 Bft)
05.04.2026 13:41 18,7 °C 19,8 °C 47 % 51 % 1013,2 hPa 0,0 l/m² 28,7 km/h (5 Bft) W-SW 244 ° 2 min 227 W/m² 9,4 °C 14,6 °C 38,6 km/h (6 Bft)
05.04.2026 13:42 18,7 °C 19,7 °C 47 % 51 % 1013,1 hPa 0,0 l/m² 30,2 km/h (5 Bft) W 269 ° 1 min 232 W/m² 9,3 °C 14,3 °C 38,6 km/h (6 Bft)
05.04.2026 13:43 18,7 °C 19,7 °C 47 % 52 % 1013,1 hPa 0,0 l/m² 27,1 km/h (5 Bft) W-SW 256 ° 1 min 221 W/m² 9,6 °C 14,7 °C 33,8 km/h (5 Bft)
05.04.2026 13:45 18,7 °C 19,6 °C 47 % 52 % 1013,2 hPa 0,0 l/m² 27,6 km/h (5 Bft) W-SW 255 ° 2 min 202 W/m² 9,5 °C 14,5 °C 35,4 km/h (5 Bft)
05.04.2026 13:46 18,7 °C 19,4 °C 47 % 52 % 1013,2 hPa 0,0 l/m² 30,7 km/h (5 Bft) W-SW 241 ° 1 min 181 W/m² 9,3 °C 13,8 °C 37,0 km/h (5 Bft)
05.04.2026 13:47 18,7 °C 19,3 °C 47 % 52 % 1013,2 hPa 0,0 l/m² 28,6 km/h (5 Bft) W-SW 241 ° 1 min 162 W/m² 9,2 °C 13,9 °C 35,4 km/h (5 Bft)
05.04.2026 13:48 18,7 °C 19,3 °C 47 % 53 % 1013,2 hPa 0,0 l/m² 26,1 km/h (4 Bft) W 266 ° 1 min 141 W/m² 9,5 °C 14,3 °C 32,2 km/h (5 Bft)
05.04.2026 13:49 18,7 °C 19,2 °C 47 % 53 % 1013,3 hPa 0,0 l/m² 25,3 km/h (4 Bft) W-SW 255 ° 1 min 125 W/m² 9,4 °C 14,3 °C 33,8 km/h (5 Bft)
05.04.2026 13:51 18,7 °C 19,0 °C 47 % 54 % 1013,4 hPa 0,0 l/m² 27,5 km/h (5 Bft) W 280 ° 2 min 127 W/m² 9,5 °C 13,7 °C 37,0 km/h (5 Bft)
05.04.2026 13:52 18,7 °C 18,9 °C 47 % 54 % 1013,3 hPa 0,0 l/m² 30,1 km/h (5 Bft) W-SW 248 ° 1 min 128 W/m² 9,4 °C 13,2 °C 38,6 km/h (6 Bft)
05.04.2026 13:53 18,7 °C 18,8 °C 47 % 54 % 1013,3 hPa 0,0 l/m² 29,3 km/h (5 Bft) W 267 ° 1 min 123 W/m² 9,3 °C 13,1 °C 35,4 km/h (5 Bft)
05.04.2026 13:55 18,7 °C 18,7 °C 47 % 54 % 1013,4 hPa 0,0 l/m² 27,1 km/h (5 Bft) W-SW 257 ° 2 min 134 W/m² 9,2 °C 13,3 °C 35,4 km/h (5 Bft)
05.04.2026 13:56 18,7 °C 18,6 °C 47 % 55 % 1013,4 hPa 0,0 l/m² 25,7 km/h (4 Bft) W-SW 246 ° 1 min 139 W/m² 9,4 °C 13,4 °C 33,8 km/h (5 Bft)
05.04.2026 13:57 18,7 °C 18,6 °C 47 % 55 % 1013,3 hPa 0,0 l/m² 25,4 km/h (4 Bft) W 264 ° 1 min 151 W/m² 9,4 °C 13,4 °C 29,0 km/h (5 Bft)
05.04.2026 13:58 18,7 °C 18,4 °C 47 % 55 % 1013,4 hPa 0,0 l/m² 27,4 km/h (5 Bft) W-SW 258 ° 1 min 167 W/m² 9,2 °C 12,8 °C 40,2 km/h (6 Bft)
05.04.2026 13:59 18,7 °C 18,4 °C 47 % 55 % 1013,4 hPa 0,0 l/m² 27,7 km/h (5 Bft) W-SW 242 ° 1 min 151 W/m² 9,2 °C 12,8 °C 33,8 km/h (5 Bft)
05.04.2026 14:01 18,7 °C 18,2 °C 47 % 56 % 1013,5 hPa 0,0 l/m² 25,2 km/h (4 Bft) W-SW 251 ° 2 min 121 W/m² 9,3 °C 12,9 °C 30,6 km/h (5 Bft)
05.04.2026 14:02 18,7 °C 18,2 °C 47 % 56 % 1013,5 hPa 0,0 l/m² 28,9 km/h (5 Bft) W 259 ° 1 min 105 W/m² 9,3 °C 12,3 °C 37,0 km/h (5 Bft)
05.04.2026 14:03 18,7 °C 18,1 °C 47 % 56 % 1013,5 hPa 0,0 l/m² 27,0 km/h (5 Bft) W-SW 258 ° 1 min 95 W/m² 9,2 °C 12,5 °C 32,2 km/h (5 Bft)
05.04.2026 14:05 18,8 °C 18,1 °C 47 % 56 % 1013,6 hPa 0,0 l/m² 24,0 km/h (4 Bft) W-NW 288 ° 2 min 97 W/m² 9,2 °C 13,0 °C 32,2 km/h (5 Bft)
05.04.2026 14:06 18,7 °C 18,0 °C 47 % 56 % 1013,5 hPa 0,0 l/m² 22,6 km/h (4 Bft) W-SW 257 ° 1 min 98 W/m² 9,1 °C 13,1 °C 27,4 km/h (5 Bft)
05.04.2026 14:07 18,7 °C 17,9 °C 47 % 56 % 1013,5 hPa 0,0 l/m² 27,1 km/h (5 Bft) W 272 ° 1 min 102 W/m² 9,0 °C 12,2 °C 41,8 km/h (6 Bft)
05.04.2026 14:08 18,7 °C 17,9 °C 47 % 57 % 1013,5 hPa 0,0 l/m² 26,0 km/h (4 Bft) W-SW 258 ° 1 min 107 W/m² 9,3 °C 12,4 °C 38,6 km/h (6 Bft)
05.04.2026 14:09 18,7 °C 17,9 °C 47 % 57 % 1013,6 hPa 0,0 l/m² 23,3 km/h (4 Bft) W 270 ° 1 min 113 W/m² 9,3 °C 12,8 °C 29,0 km/h (5 Bft)
05.04.2026 14:11 18,7 °C 17,8 °C 47 % 57 % 1013,6 hPa 0,0 l/m² 20,4 km/h (4 Bft) SW 224 ° 2 min 111 W/m² 9,2 °C 13,3 °C 25,7 km/h (4 Bft)
05.04.2026 14:12 18,7 °C 17,8 °C 47 % 58 % 1013,7 hPa 0,0 l/m² 29,7 km/h (5 Bft) W-SW 255 ° 1 min 111 W/m² 9,4 °C 11,7 °C 35,4 km/h (5 Bft)
05.04.2026 14:13 18,7 °C 17,7 °C 47 % 58 % 1013,7 hPa 0,0 l/m² 23,6 km/h (4 Bft) W-SW 254 ° 1 min 120 W/m² 9,3 °C 12,5 °C 32,2 km/h (5 Bft)
05.04.2026 14:15 18,7 °C 17,7 °C 47 % 58 % 1013,7 hPa 0,0 l/m² 22,8 km/h (4 Bft) W 275 ° 2 min 125 W/m² 9,3 °C 12,7 °C 30,6 km/h (5 Bft)
05.04.2026 14:16 18,7 °C 17,6 °C 47 % 58 % 1013,6 hPa 0,0 l/m² 20,2 km/h (4 Bft) W-SW 257 ° 1 min 107 W/m² 9,2 °C 13,1 °C 25,7 km/h (4 Bft)
05.04.2026 14:17 18,7 °C 17,6 °C 47 % 58 % 1013,7 hPa 0,0 l/m² 20,6 km/h (4 Bft) W 275 ° 1 min 90 W/m² 9,2 °C 13,0 °C 27,4 km/h (5 Bft)
05.04.2026 14:18 18,7 °C 17,6 °C 47 % 59 % 1013,7 hPa 0,0 l/m² 21,9 km/h (4 Bft) W-SW 249 ° 1 min 72 W/m² 9,5 °C 12,7 °C 29,0 km/h (5 Bft)
05.04.2026 14:19 18,7 °C 17,6 °C 47 % 59 % 1013,7 hPa 0,0 l/m² 22,4 km/h (4 Bft) W 265 ° 1 min 63 W/m² 9,5 °C 12,6 °C 29,0 km/h (5 Bft)
05.04.2026 14:21 18,7 °C 17,4 °C 47 % 59 % 1013,7 hPa 0,0 l/m² 20,5 km/h (4 Bft) W 277 ° 2 min 62 W/m² 9,3 °C 12,7 °C 27,4 km/h (5 Bft)
05.04.2026 14:22 18,7 °C 17,4 °C 47 % 59 % 1013,7 hPa 0,0 l/m² 23,3 km/h (4 Bft) W-NW 290 ° 1 min 62 W/m² 9,3 °C 12,2 °C 29,0 km/h (5 Bft)
05.04.2026 14:23 18,7 °C 17,4 °C 47 % 59 % 1013,7 hPa 0,0 l/m² 23,9 km/h (4 Bft) W-SW 251 ° 1 min 58 W/m² 9,3 °C 12,1 °C 29,0 km/h (5 Bft)
05.04.2026 14:25 18,8 °C 17,2 °C 47 % 59 % 1013,7 hPa 0,0 l/m² 20,0 km/h (4 Bft) W 259 ° 2 min 67 W/m² 9,1 °C 12,6 °C 27,4 km/h (5 Bft)
05.04.2026 14:26 18,7 °C 17,2 °C 47 % 59 % 1013,8 hPa 0,0 l/m² 20,9 km/h (4 Bft) W 259 ° 1 min 76 W/m² 9,1 °C 12,4 °C 27,4 km/h (5 Bft)
05.04.2026 14:27 18,7 °C 17,2 °C 47 % 59 % 1013,7 hPa 0,0 l/m² 21,5 km/h (4 Bft) W-SW 250 ° 1 min 88 W/m² 9,1 °C 12,3 °C 25,7 km/h (4 Bft)
05.04.2026 14:28 18,7 °C 17,1 °C 47 % 59 % 1013,9 hPa 0,0 l/m² 22,9 km/h (4 Bft) W 260 ° 1 min 123 W/m² 9,0 °C 11,8 °C 29,0 km/h (5 Bft)
05.04.2026 14:29 18,7 °C 17,1 °C 47 % 60 % 1013,8 hPa 0,0 l/m² 22,4 km/h (4 Bft) W-SW 256 ° 1 min 141 W/m² 9,3 °C 11,9 °C 29,0 km/h (5 Bft)
05.04.2026 14:31 18,7 °C 17,1 °C 47 % 61 % 1013,8 hPa 0,0 l/m² 21,2 km/h (4 Bft) W 269 ° 2 min 243 W/m² 9,5 °C 12,2 °C 30,6 km/h (5 Bft)
05.04.2026 14:32 18,7 °C 17,1 °C 47 % 61 % 1013,9 hPa 0,0 l/m² 19,5 km/h (3 Bft) W-SW 253 ° 1 min 343 W/m² 9,5 °C 12,6 °C 25,7 km/h (4 Bft)
05.04.2026 14:33 18,7 °C 17,1 °C 47 % 61 % 1013,9 hPa 0,0 l/m² 19,6 km/h (3 Bft) W 279 ° 1 min 401 W/m² 9,5 °C 12,6 °C 25,7 km/h (4 Bft)
05.04.2026 14:35 18,7 °C 17,1 °C 47 % 61 % 1013,9 hPa 0,0 l/m² 24,8 km/h (4 Bft) W-SW 238 ° 2 min 250 W/m² 9,5 °C 11,5 °C 33,8 km/h (5 Bft)
05.04.2026 14:36 18,7 °C 17,1 °C 47 % 60 % 1013,9 hPa 0,0 l/m² 25,1 km/h (4 Bft) SW 223 ° 1 min 243 W/m² 9,3 °C 11,4 °C 33,8 km/h (5 Bft)
05.04.2026 14:37 18,7 °C 17,1 °C 47 % 59 % 1014,0 hPa 0,0 l/m² 27,4 km/h (5 Bft) W 280 ° 1 min 243 W/m² 9,0 °C 11,0 °C 33,8 km/h (5 Bft)
05.04.2026 14:38 18,7 °C 17,2 °C 47 % 59 % 1013,8 hPa 0,0 l/m² 26,4 km/h (4 Bft) SW 224 ° 1 min 229 W/m² 9,1 °C 11,3 °C 32,2 km/h (5 Bft)
05.04.2026 14:39 18,7 °C 17,2 °C 47 % 59 % 1013,9 hPa 0,0 l/m² 34,0 km/h (5 Bft) W-SW 242 ° 1 min 209 W/m² 9,1 °C 10,2 °C 38,6 km/h (6 Bft)
05.04.2026 14:41 18,7 °C 17,2 °C 47 % 58 % 1013,9 hPa 0,0 l/m² 31,5 km/h (5 Bft) W-SW 252 ° 2 min 255 W/m² 8,9 °C 10,6 °C 45,1 km/h (6 Bft)
05.04.2026 14:42 18,7 °C 17,2 °C 47 % 58 % 1013,9 hPa 0,0 l/m² 30,8 km/h (5 Bft) W-SW 248 ° 1 min 279 W/m² 8,9 °C 10,7 °C 40,2 km/h (6 Bft)
05.04.2026 14:43 18,7 °C 17,2 °C 47 % 58 % 1013,8 hPa 0,0 l/m² 31,3 km/h (5 Bft) SW 233 ° 1 min 302 W/m² 8,9 °C 10,6 °C 40,2 km/h (6 Bft)
05.04.2026 14:44 18,7 °C 17,2 °C 47 % 58 % 1013,8 hPa 0,0 l/m² 30,1 km/h (5 Bft) SW 217 ° 1 min 302 W/m² 8,9 °C 10,8 °C 33,8 km/h (5 Bft)
05.04.2026 14:45 18,7 °C 17,3 °C 47 % 59 % 1013,8 hPa 0,0 l/m² 22,9 km/h (4 Bft) SW 236 ° 1 min 529 W/m² 9,2 °C 12,1 °C 32,2 km/h (5 Bft)
05.04.2026 14:46 18,7 °C 17,3 °C 47 % 59 % 1013,8 hPa 0,0 l/m² 23,8 km/h (4 Bft) W-SW 244 ° 1 min 510 W/m² 9,2 °C 11,9 °C 32,2 km/h (5 Bft)
05.04.2026 14:47 18,7 °C 17,4 °C 47 % 60 % 1013,8 hPa 0,0 l/m² 22,0 km/h (4 Bft) W-SW 247 ° 1 min 454 W/m² 9,6 °C 12,4 °C 30,6 km/h (5 Bft)
05.04.2026 14:48 18,7 °C 17,5 °C 47 % 59 % 1013,7 hPa 0,0 l/m² 23,0 km/h (4 Bft) W-SW 244 ° 1 min 469 W/m² 9,4 °C 12,4 °C 30,6 km/h (5 Bft)
05.04.2026 14:49 18,7 °C 17,6 °C 47 % 58 % 1013,7 hPa 0,0 l/m² 24,9 km/h (4 Bft) W 259 ° 1 min 466 W/m² 9,2 °C 12,1 °C 35,4 km/h (5 Bft)
05.04.2026 14:51 18,8 °C 17,7 °C 47 % 56 % 1013,8 hPa 0,0 l/m² 32,7 km/h (5 Bft) W-SW 240 ° 2 min 563 W/m² 8,8 °C 11,1 °C 40,2 km/h (6 Bft)
05.04.2026 14:53 18,7 °C 17,8 °C 47 % 56 % 1013,7 hPa 0,0 l/m² 28,3 km/h (5 Bft) SW 235 ° 2 min 469 W/m² 8,9 °C 11,9 °C 37,0 km/h (5 Bft)
05.04.2026 14:54 18,7 °C 17,9 °C 47 % 56 % 1013,8 hPa 0,0 l/m² 30,5 km/h (5 Bft) W-SW 248 ° 1 min 431 W/m² 9,0 °C 11,7 °C 35,4 km/h (5 Bft)
05.04.2026 14:55 18,7 °C 17,9 °C 47 % 56 % 1013,8 hPa 0,0 l/m² 27,7 km/h (5 Bft) W-SW 250 ° 1 min 515 W/m² 9,0 °C 12,1 °C 38,6 km/h (6 Bft)
05.04.2026 14:57 18,7 °C 18,1 °C 47 % 56 % 1013,8 hPa 0,0 l/m² 25,8 km/h (4 Bft) S-SW 209 ° 2 min 577 W/m² 9,2 °C 12,7 °C 35,4 km/h (5 Bft)
05.04.2026 14:58 18,7 °C 18,2 °C 47 % 56 % 1013,8 hPa 0,0 l/m² 32,0 km/h (5 Bft) W-SW 247 ° 1 min 633 W/m² 9,3 °C 11,9 °C 41,8 km/h (6 Bft)
05.04.2026 14:59 18,7 °C 18,2 °C 47 % 56 % 1013,8 hPa 0,0 l/m² 27,4 km/h (5 Bft) W 263 ° 1 min 633 W/m² 9,3 °C 12,6 °C 33,8 km/h (5 Bft)
05.04.2026 15:01 18,7 °C 18,3 °C 47 % 56 % 1013,9 hPa 0,0 l/m² 26,9 km/h (4 Bft) W 281 ° 2 min 633 W/m² 9,4 °C 12,8 °C 33,8 km/h (5 Bft)
05.04.2026 15:03 18,7 °C 18,4 °C 47 % 55 % 1013,9 hPa 0,0 l/m² 28,2 km/h (5 Bft) W-SW 252 ° 2 min 329 W/m² 9,2 °C 12,7 °C 40,2 km/h (6 Bft)
05.04.2026 15:04 18,7 °C 18,4 °C 47 % 55 % 1013,8 hPa 0,0 l/m² 28,9 km/h (5 Bft) SW 225 ° 1 min 329 W/m² 9,2 °C 12,6 °C 33,8 km/h (5 Bft)
05.04.2026 15:05 18,7 °C 18,5 °C 47 % 54 % 1013,8 hPa 0,0 l/m² 36,2 km/h (5 Bft) W 267 ° 1 min 329 W/m² 9,0 °C 11,9 °C 40,2 km/h (6 Bft)
05.04.2026 15:06 18,7 °C 18,6 °C 47 % 54 % 1013,8 hPa 0,0 l/m² 29,9 km/h (5 Bft) W-SW 253 ° 1 min 329 W/m² 9,1 °C 12,8 °C 43,5 km/h (6 Bft)
05.04.2026 15:08 18,7 °C 18,6 °C 47 % 54 % 1013,7 hPa 0,0 l/m² 25,6 km/h (4 Bft) SW 236 ° 2 min 329 W/m² 9,1 °C 13,4 °C 32,2 km/h (5 Bft)
05.04.2026 15:09 18,7 °C 18,6 °C 47 % 54 % 1013,7 hPa 0,0 l/m² 27,3 km/h (5 Bft) W-SW 257 ° 1 min 350 W/m² 9,1 °C 13,1 °C 30,6 km/h (5 Bft)
05.04.2026 15:11 18,8 °C 18,6 °C 47 % 54 % 1013,6 hPa 0,0 l/m² 26,8 km/h (4 Bft) W-SW 249 ° 2 min 436 W/m² 9,1 °C 13,2 °C 35,4 km/h (5 Bft)
05.04.2026 15:12 18,7 °C 18,6 °C 47 % 54 % 1013,7 hPa 0,0 l/m² 24,7 km/h (4 Bft) W-SW 252 ° 1 min 455 W/m² 9,1 °C 13,5 °C 30,6 km/h (5 Bft)
05.04.2026 15:13 18,8 °C 18,6 °C 47 % 53 % 1013,7 hPa 0,0 l/m² 32,9 km/h (5 Bft) SW 229 ° 1 min 490 W/m² 8,8 °C 12,4 °C 41,8 km/h (6 Bft)
05.04.2026 15:14 18,7 °C 18,6 °C 47 % 54 % 1013,7 hPa 0,0 l/m² 25,4 km/h (4 Bft) W 262 ° 1 min 457 W/m² 9,1 °C 13,4 °C 30,6 km/h (5 Bft)
05.04.2026 15:15 18,7 °C 18,7 °C 47 % 54 % 1013,6 hPa 0,0 l/m² 24,9 km/h (4 Bft) W-NW 284 ° 1 min 306 W/m² 9,2 °C 13,6 °C 30,6 km/h (5 Bft)
05.04.2026 15:16 18,7 °C 18,7 °C 47 % 53 % 1013,6 hPa 0,0 l/m² 28,5 km/h (5 Bft) SW 220 ° 1 min 306 W/m² 8,9 °C 13,1 °C 41,8 km/h (6 Bft)
05.04.2026 15:17 18,7 °C 18,7 °C 47 % 53 % 1013,6 hPa 0,0 l/m² 28,0 km/h (5 Bft) W-SW 252 ° 1 min 327 W/m² 8,9 °C 13,2 °C 35,4 km/h (5 Bft)
05.04.2026 15:18 18,7 °C 18,7 °C 47 % 52 % 1013,5 hPa 0,0 l/m² 30,6 km/h (5 Bft) W-SW 242 ° 1 min 359 W/m² 8,6 °C 12,8 °C 37,0 km/h (5 Bft)
05.04.2026 15:19 18,7 °C 18,7 °C 47 % 51 % 1013,5 hPa 0,0 l/m² 34,1 km/h (5 Bft) W-SW 250 ° 1 min 390 W/m² 8,4 °C 12,4 °C 41,8 km/h (6 Bft)
05.04.2026 15:21 18,7 °C 18,7 °C 47 % 53 % 1013,6 hPa 0,0 l/m² 32,2 km/h (5 Bft) SW 217 ° 2 min 664 W/m² 8,9 °C 12,6 °C 45,1 km/h (6 Bft)
05.04.2026 15:23 18,7 °C 18,8 °C 47 % 52 % 1013,6 hPa 0,0 l/m² 29,1 km/h (5 Bft) SW 227 ° 2 min 686 W/m² 8,7 °C 13,2 °C 38,6 km/h (6 Bft)
05.04.2026 15:24 18,7 °C 18,9 °C 47 % 51 % 1013,7 hPa 0,0 l/m² 29,7 km/h (5 Bft) W 262 ° 1 min 483 W/m² 8,5 °C 13,2 °C 38,6 km/h (6 Bft)
05.04.2026 15:25 18,7 °C 18,9 °C 47 % 51 % 1013,6 hPa 0,0 l/m² 27,3 km/h (5 Bft) SW 233 ° 1 min 534 W/m² 8,5 °C 13,5 °C 33,8 km/h (5 Bft)
05.04.2026 15:26 18,7 °C 19,0 °C 47 % 51 % 1013,6 hPa 0,0 l/m² 31,4 km/h (5 Bft) W 265 ° 1 min 265 W/m² 8,6 °C 13,1 °C 43,5 km/h (6 Bft)
05.04.2026 15:27 18,7 °C 19,0 °C 47 % 51 % 1013,6 hPa 0,0 l/m² 30,6 km/h (5 Bft) W-NW 290 ° 1 min 265 W/m² 8,6 °C 13,2 °C 38,6 km/h (6 Bft)
05.04.2026 15:28 18,7 °C 19,0 °C 47 % 50 % 1013,6 hPa 0,0 l/m² 29,9 km/h (5 Bft) W-SW 249 ° 1 min 279 W/m² 8,3 °C 13,3 °C 37,0 km/h (5 Bft)
05.04.2026 15:29 18,7 °C 18,9 °C 47 % 50 % 1013,6 hPa 0,0 l/m² 34,1 km/h (5 Bft) W-SW 255 ° 1 min 309 W/m² 8,2 °C 12,7 °C 41,8 km/h (6 Bft)
05.04.2026 15:31 18,7 °C 18,9 °C 47 % 50 % 1013,7 hPa 0,0 l/m² 31,2 km/h (5 Bft) W 259 ° 2 min 295 W/m² 8,2 °C 13,0 °C 43,5 km/h (6 Bft)
05.04.2026 15:33 18,7 °C 18,8 °C 47 % 51 % 1013,7 hPa 0,0 l/m² 34,2 km/h (5 Bft) W 263 ° 2 min 355 W/m² 8,4 °C 12,5 °C 45,1 km/h (6 Bft)
05.04.2026 15:34 18,7 °C 18,8 °C 47 % 50 % 1013,7 hPa 0,0 l/m² 34,6 km/h (5 Bft) W-SW 238 ° 1 min 357 W/m² 8,2 °C 12,5 °C 43,5 km/h (6 Bft)
05.04.2026 15:35 18,7 °C 18,8 °C 47 % 50 % 1013,7 hPa 0,0 l/m² 31,8 km/h (5 Bft) W-SW 250 ° 1 min 371 W/m² 8,2 °C 12,8 °C 45,1 km/h (6 Bft)
05.04.2026 15:36 18,7 °C 18,7 °C 47 % 51 % 1013,7 hPa 0,0 l/m² 35,9 km/h (5 Bft) SW 235 ° 1 min 334 W/m² 8,4 °C 12,2 °C 45,1 km/h (6 Bft)
05.04.2026 15:37 18,7 °C 18,7 °C 47 % 51 % 1013,9 hPa 0,0 l/m² 32,8 km/h (5 Bft) W-SW 238 ° 1 min 318 W/m² 8,4 °C 12,5 °C 40,2 km/h (6 Bft)
05.04.2026 15:38 18,7 °C 18,7 °C 47 % 51 % 1013,7 hPa 0,0 l/m² 36,3 km/h (5 Bft) SW 229 ° 1 min 299 W/m² 8,4 °C 12,2 °C 43,5 km/h (6 Bft)
05.04.2026 15:39 18,8 °C 18,7 °C 47 % 50 % 1013,8 hPa 0,0 l/m² 29,2 km/h (5 Bft) W-SW 257 ° 1 min 294 W/m² 8,1 °C 13,0 °C 41,8 km/h (6 Bft)
05.04.2026 15:41 18,8 °C 18,7 °C 47 % 51 % 1013,8 hPa 0,0 l/m² 25,0 km/h (4 Bft) W 263 ° 2 min 306 W/m² 8,4 °C 13,6 °C 32,2 km/h (5 Bft)
05.04.2026 15:43 18,8 °C 18,7 °C 47 % 52 % 1013,7 hPa 0,0 l/m² 26,7 km/h (4 Bft) W 262 ° 2 min 327 W/m² 8,6 °C 13,4 °C 32,2 km/h (5 Bft)
05.04.2026 15:45 18,8 °C 18,7 °C 47 % 51 % 1013,7 hPa 0,0 l/m² 27,9 km/h (5 Bft) W-SW 248 ° 2 min 294 W/m² 8,4 °C 13,2 °C 41,8 km/h (6 Bft)
05.04.2026 15:46 18,8 °C 18,7 °C 47 % 51 % 1013,8 hPa 0,0 l/m² 29,1 km/h (5 Bft) W-SW 248 ° 1 min 278 W/m² 8,4 °C 13,0 °C 35,4 km/h (5 Bft)
05.04.2026 15:47 18,8 °C 18,7 °C 47 % 51 % 1013,8 hPa 0,0 l/m² 25,4 km/h (4 Bft) W-SW 249 ° 1 min 265 W/m² 8,4 °C 13,6 °C 32,2 km/h (5 Bft)
05.04.2026 15:48 18,8 °C 18,7 °C 47 % 50 % 1013,8 hPa 0,0 l/m² 25,1 km/h (4 Bft) W-SW 240 ° 1 min 264 W/m² 8,1 °C 13,6 °C 29,0 km/h (5 Bft)
05.04.2026 15:49 18,8 °C 18,7 °C 47 % 50 % 1013,7 hPa 0,0 l/m² 26,8 km/h (4 Bft) SW 229 ° 1 min 241 W/m² 8,1 °C 13,3 °C 32,2 km/h (5 Bft)
05.04.2026 15:51 18,8 °C 18,7 °C 47 % 51 % 1013,9 hPa 0,0 l/m² 21,9 km/h (4 Bft) SW 234 ° 2 min 227 W/m² 8,4 °C 14,2 °C 33,8 km/h (5 Bft)
05.04.2026 15:53 18,8 °C 18,6 °C 47 % 50 % 1013,8 hPa 0,0 l/m² 25,1 km/h (4 Bft) W-SW 243 ° 2 min 225 W/m² 8,0 °C 13,5 °C 35,4 km/h (5 Bft)
05.04.2026 15:54 18,8 °C 18,6 °C 47 % 50 % 1013,9 hPa 0,0 l/m² 31,8 km/h (5 Bft) SW 223 ° 1 min 225 W/m² 8,0 °C 12,5 °C 40,2 km/h (6 Bft)
05.04.2026 15:55 18,8 °C 18,6 °C 47 % 49 % 1013,8 hPa 0,0 l/m² 29,6 km/h (5 Bft) SW 236 ° 1 min 230 W/m² 7,7 °C 12,8 °C 37,0 km/h (5 Bft)
05.04.2026 15:56 18,8 °C 18,6 °C 47 % 49 % 1013,9 hPa 0,0 l/m² 26,7 km/h (4 Bft) W-SW 240 ° 1 min 250 W/m² 7,7 °C 13,2 °C 32,2 km/h (5 Bft)
05.04.2026 15:57 18,8 °C 18,6 °C 47 % 49 % 1013,9 hPa 0,0 l/m² 30,7 km/h (5 Bft) SW 229 ° 1 min 255 W/m² 7,7 °C 12,7 °C 43,5 km/h (6 Bft)
05.04.2026 15:58 18,9 °C 18,6 °C 47 % 49 % 1013,9 hPa 0,0 l/m² 24,2 km/h (4 Bft) W-SW 258 ° 1 min 262 W/m² 7,7 °C 13,6 °C 29,0 km/h (5 Bft)
05.04.2026 15:59 18,9 °C 18,6 °C 48 % 49 % 1013,8 hPa 0,0 l/m² 24,3 km/h (4 Bft) W-SW 244 ° 1 min 274 W/m² 7,7 °C 13,6 °C 29,0 km/h (5 Bft)
05.04.2026 16:01 18,9 °C 18,6 °C 48 % 50 % 1013,9 hPa 0,0 l/m² 25,9 km/h (4 Bft) W-SW 240 ° 2 min 315 W/m² 8,0 °C 13,3 °C 37,0 km/h (5 Bft)
05.04.2026 16:03 18,9 °C 18,6 °C 48 % 49 % 1013,8 hPa 0,0 l/m² 27,1 km/h (5 Bft) W-SW 252 ° 2 min 329 W/m² 7,7 °C 13,2 °C 41,8 km/h (6 Bft)
05.04.2026 16:04 18,9 °C 18,6 °C 48 % 49 % 1013,9 hPa 0,0 l/m² 26,6 km/h (4 Bft) SW 227 ° 1 min 306 W/m² 7,7 °C 13,2 °C 35,4 km/h (5 Bft)
05.04.2026 16:05 18,9 °C 18,6 °C 48 % 49 % 1013,9 hPa 0,0 l/m² 29,5 km/h (5 Bft) SW 236 ° 1 min 292 W/m² 7,7 °C 12,8 °C 37,0 km/h (5 Bft)
05.04.2026 16:06 18,9 °C 18,6 °C 48 % 49 % 1013,9 hPa 0,0 l/m² 30,1 km/h (5 Bft) W-SW 251 ° 1 min 278 W/m² 7,7 °C 12,7 °C 35,4 km/h (5 Bft)
05.04.2026 16:07 18,9 °C 18,6 °C 48 % 49 % 1013,8 hPa 0,0 l/m² 20,8 km/h (4 Bft) SW 236 ° 1 min 267 W/m² 7,7 °C 14,2 °C 25,7 km/h (4 Bft)
05.04.2026 16:08 19,0 °C 18,6 °C 48 % 49 % 1013,9 hPa 0,0 l/m² 23,8 km/h (4 Bft) W-SW 238 ° 1 min 265 W/m² 7,7 °C 13,7 °C 33,8 km/h (5 Bft)
05.04.2026 16:09 19,0 °C 18,6 °C 48 % 50 % 1013,9 hPa 0,0 l/m² 21,2 km/h (4 Bft) SW 224 ° 1 min 262 W/m² 8,0 °C 14,2 °C 27,4 km/h (5 Bft)
05.04.2026 16:11 19,0 °C 18,6 °C 48 % 51 % 1013,9 hPa 0,0 l/m² 19,9 km/h (4 Bft) W-SW 240 ° 2 min 276 W/m² 8,3 °C 14,4 °C 25,7 km/h (4 Bft)
05.04.2026 16:13 18,9 °C 18,6 °C 48 % 50 % 1013,9 hPa 0,0 l/m² 23,2 km/h (4 Bft) W-SW 256 ° 2 min 295 W/m² 8,0 °C 13,8 °C 30,6 km/h (5 Bft)
05.04.2026 16:14 19,0 °C 18,6 °C 48 % 51 % 1013,9 hPa 0,0 l/m² 19,9 km/h (4 Bft) W-SW 248 ° 1 min 297 W/m² 8,3 °C 14,4 °C 27,4 km/h (5 Bft)
05.04.2026 16:15 19,0 °C 18,6 °C 48 % 51 % 1013,9 hPa 0,0 l/m² 21,5 km/h (4 Bft) W-SW 252 ° 1 min 322 W/m² 8,3 °C 14,1 °C 27,4 km/h (5 Bft)
05.04.2026 16:16 19,0 °C 18,6 °C 48 % 51 % 1013,9 hPa 0,0 l/m² 20,2 km/h (4 Bft) SW 232 ° 1 min 360 W/m² 8,3 °C 14,4 °C 27,4 km/h (5 Bft)
05.04.2026 16:17 19,0 °C 18,6 °C 48 % 50 % 1013,9 hPa 0,0 l/m² 30,7 km/h (5 Bft) W 264 ° 1 min 315 W/m² 8,0 °C 12,7 °C 40,2 km/h (6 Bft)
05.04.2026 16:18 19,0 °C 18,6 °C 48 % 49 % 1013,9 hPa 0,0 l/m² 27,3 km/h (5 Bft) W-SW 253 ° 1 min 309 W/m² 7,7 °C 13,1 °C 32,2 km/h (5 Bft)
05.04.2026 16:19 19,0 °C 18,6 °C 48 % 50 % 1013,9 hPa 0,0 l/m² 26,3 km/h (4 Bft) W 263 ° 1 min 290 W/m² 8,0 °C 13,3 °C 32,2 km/h (5 Bft)
05.04.2026 16:21 19,0 °C 18,6 °C 48 % 50 % 1013,8 hPa 0,0 l/m² 26,9 km/h (4 Bft) W-SW 252 ° 2 min 378 W/m² 8,0 °C 13,2 °C 33,8 km/h (5 Bft)
05.04.2026 16:23 19,1 °C 18,6 °C 48 % 50 % 1014,0 hPa 0,0 l/m² 26,8 km/h (4 Bft) W-SW 248 ° 2 min 387 W/m² 8,0 °C 13,2 °C 37,0 km/h (5 Bft)
05.04.2026 16:24 19,0 °C 18,5 °C 48 % 51 % 1013,9 hPa 0,0 l/m² 28,0 km/h (5 Bft) W-SW 255 ° 1 min 320 W/m² 8,2 °C 12,9 °C 37,0 km/h (5 Bft)
05.04.2026 16:25 19,0 °C 18,6 °C 48 % 50 % 1013,9 hPa 0,0 l/m² 27,3 km/h (5 Bft) W-SW 243 ° 1 min 260 W/m² 8,0 °C 13,1 °C 33,8 km/h (5 Bft)
05.04.2026 16:26 19,1 °C 18,6 °C 48 % 50 % 1013,9 hPa 0,0 l/m² 28,8 km/h (5 Bft) SW 232 ° 1 min 265 W/m² 8,0 °C 12,9 °C 37,0 km/h (5 Bft)
05.04.2026 16:27 19,0 °C 18,6 °C 48 % 50 % 1013,9 hPa 0,0 l/m² 29,1 km/h (5 Bft) SW 232 ° 1 min 258 W/m² 8,0 °C 12,9 °C 35,4 km/h (5 Bft)
05.04.2026 16:28 19,1 °C 18,5 °C 48 % 50 % 1013,9 hPa 0,0 l/m² 30,2 km/h (5 Bft) W 262 ° 1 min 246 W/m² 7,9 °C 12,6 °C 37,0 km/h (5 Bft)
05.04.2026 16:29 19,1 °C 18,5 °C 48 % 50 % 1013,9 hPa 0,0 l/m² 27,1 km/h (5 Bft) S-SW 213 ° 1 min 241 W/m² 7,9 °C 13,0 °C 38,6 km/h (6 Bft)
05.04.2026 16:31 19,1 °C 18,4 °C 48 % 51 % 1014,0 hPa 0,0 l/m² 24,4 km/h (4 Bft) W-SW 241 ° 2 min 262 W/m² 8,1 °C 13,3 °C 35,4 km/h (5 Bft)
05.04.2026 16:33 19,1 °C 18,4 °C 48 % 50 % 1014,0 hPa 0,0 l/m² 27,2 km/h (5 Bft) W-SW 248 ° 2 min 316 W/m² 7,8 °C 12,9 °C 33,8 km/h (5 Bft)
05.04.2026 16:34 19,1 °C 18,4 °C 48 % 50 % 1013,9 hPa 0,0 l/m² 29,8 km/h (5 Bft) W-SW 253 ° 1 min 325 W/m² 7,8 °C 12,5 °C 38,6 km/h (6 Bft)
05.04.2026 16:35 19,1 °C 18,4 °C 48 % 50 % 1014,0 hPa 0,0 l/m² 28,7 km/h (5 Bft) W-SW 240 ° 1 min 378 W/m² 7,8 °C 12,6 °C 38,6 km/h (6 Bft)
05.04.2026 16:36 19,1 °C 18,4 °C 48 % 51 % 1013,9 hPa 0,0 l/m² 27,0 km/h (5 Bft) W-SW 244 ° 1 min 403 W/m² 8,1 °C 12,9 °C 32,2 km/h (5 Bft)
05.04.2026 16:37 19,1 °C 18,4 °C 48 % 51 % 1014,1 hPa 0,0 l/m² 24,6 km/h (4 Bft) W-SW 252 ° 1 min 510 W/m² 8,1 °C 13,3 °C 33,8 km/h (5 Bft)
05.04.2026 16:38 19,1 °C 18,4 °C 48 % 52 % 1014,1 hPa 0,0 l/m² 25,3 km/h (4 Bft) SW 223 ° 1 min 527 W/m² 8,4 °C 13,2 °C 37,0 km/h (5 Bft)
05.04.2026 16:39 19,2 °C 18,5 °C 47 % 51 % 1014,0 hPa 0,0 l/m² 31,1 km/h (5 Bft) W-SW 241 ° 1 min 513 W/m² 8,2 °C 12,5 °C 40,2 km/h (6 Bft)
05.04.2026 16:41 19,3 °C 18,6 °C 47 % 51 % 1014,1 hPa 0,0 l/m² 27,2 km/h (5 Bft) W-SW 243 ° 2 min 501 W/m² 8,3 °C 13,1 °C 37,0 km/h (5 Bft)
05.04.2026 16:43 19,4 °C 18,7 °C 47 % 50 % 1014,1 hPa 0,0 l/m² 26,5 km/h (4 Bft) W-SW 246 ° 2 min 401 W/m² 8,1 °C 13,4 °C 35,4 km/h (5 Bft)
05.04.2026 16:44 19,5 °C 18,7 °C 47 % 50 % 1014,1 hPa 0,0 l/m² 29,7 km/h (5 Bft) SW 221 ° 1 min 229 W/m² 8,1 °C 12,9 °C 41,8 km/h (6 Bft)
05.04.2026 16:45 19,6 °C 18,7 °C 47 % 50 % 1014,0 hPa 0,0 l/m² 29,9 km/h (5 Bft) W-SW 242 ° 1 min 237 W/m² 8,1 °C 12,9 °C 38,6 km/h (6 Bft)
05.04.2026 16:46 19,6 °C 18,7 °C 47 % 50 % 1014,0 hPa 0,0 l/m² 27,9 km/h (5 Bft) S-SW 211 ° 1 min 313 W/m² 8,1 °C 13,2 °C 32,2 km/h (5 Bft)
05.04.2026 16:47 19,7 °C 18,6 °C 47 % 50 % 1014,1 hPa 0,0 l/m² 30,9 km/h (5 Bft) W-SW 238 ° 1 min 246 W/m² 8,0 °C 12,6 °C 40,2 km/h (6 Bft)
05.04.2026 16:48 19,8 °C 18,6 °C 47 % 50 % 1014,0 hPa 0,0 l/m² 26,8 km/h (4 Bft) W-SW 240 ° 1 min 251 W/m² 8,0 °C 13,2 °C 37,0 km/h (5 Bft)
05.04.2026 16:49 19,8 °C 18,6 °C 47 % 51 % 1014,0 hPa 0,0 l/m² 22,6 km/h (4 Bft) W-SW 247 ° 1 min 223 W/m² 8,3 °C 13,9 °C 32,2 km/h (5 Bft)
05.04.2026 16:51 20,0 °C 18,5 °C 47 % 50 % 1014,0 hPa 0,0 l/m² 28,6 km/h (5 Bft) SW 228 ° 2 min 171 W/m² 7,9 °C 12,8 °C 40,2 km/h (6 Bft)
05.04.2026 16:53 20,2 °C 18,4 °C 47 % 50 % 1014,1 hPa 0,0 l/m² 25,3 km/h (4 Bft) W-SW 238 ° 2 min 135 W/m² 7,8 °C 13,2 °C 35,4 km/h (5 Bft)
05.04.2026 16:54 20,2 °C 18,3 °C 47 % 50 % 1013,9 hPa 0,0 l/m² 24,1 km/h (4 Bft) SW 236 ° 1 min 113 W/m² 7,7 °C 13,2 °C 29,0 km/h (5 Bft)
05.04.2026 16:55 20,3 °C 18,2 °C 47 % 51 % 1014,0 hPa 0,0 l/m² 24,0 km/h (4 Bft) SW 225 ° 1 min 98 W/m² 7,9 °C 13,1 °C 32,2 km/h (5 Bft)
05.04.2026 16:56 20,4 °C 18,2 °C 47 % 51 % 1013,9 hPa 0,0 l/m² 27,1 km/h (5 Bft) W-SW 258 ° 1 min 88 W/m² 7,9 °C 12,6 °C 38,6 km/h (6 Bft)
05.04.2026 16:57 20,4 °C 18,1 °C 46 % 51 % 1013,9 hPa 0,0 l/m² 25,2 km/h (4 Bft) SW 229 ° 1 min 84 W/m² 7,8 °C 12,8 °C 32,2 km/h (5 Bft)
05.04.2026 16:58 20,6 °C 18,1 °C 46 % 51 % 1014,0 hPa 0,0 l/m² 24,0 km/h (4 Bft) SW 236 ° 1 min 86 W/m² 7,8 °C 13,0 °C 37,0 km/h (5 Bft)
05.04.2026 16:59 20,7 °C 18,0 °C 46 % 51 % 1013,9 hPa 0,0 l/m² 28,3 km/h (5 Bft) SW 222 ° 1 min 84 W/m² 7,7 °C 12,1 °C 35,4 km/h (5 Bft)
05.04.2026 17:01 20,8 °C 17,9 °C 46 % 51 % 1014,0 hPa 0,0 l/m² 27,1 km/h (5 Bft) SW 219 ° 2 min 83 W/m² 7,6 °C 12,2 °C 35,4 km/h (5 Bft)
05.04.2026 17:03 21,1 °C 17,8 °C 46 % 51 % 1014,1 hPa 0,0 l/m² 26,6 km/h (4 Bft) SW 225 ° 2 min 95 W/m² 7,5 °C 12,1 °C 38,6 km/h (6 Bft)
05.04.2026 17:04 21,2 °C 17,7 °C 46 % 51 % 1014,1 hPa 0,0 l/m² 26,8 km/h (4 Bft) W-SW 257 ° 1 min 86 W/m² 7,4 °C 12,0 °C 35,4 km/h (5 Bft)
05.04.2026 17:05 21,2 °C 17,7 °C 46 % 51 % 1014,1 hPa 0,0 l/m² 27,5 km/h (5 Bft) W-SW 238 ° 1 min 74 W/m² 7,4 °C 11,9 °C 38,6 km/h (6 Bft)
05.04.2026 17:06 21,3 °C 17,7 °C 46 % 51 % 1014,1 hPa 0,0 l/m² 25,1 km/h (4 Bft) SW 229 ° 1 min 65 W/m² 7,4 °C 12,2 °C 38,6 km/h (6 Bft)
05.04.2026 17:07 21,3 °C 17,7 °C 45 % 51 % 1014,3 hPa 0,0 l/m² 25,6 km/h (4 Bft) SW 232 ° 1 min 65 W/m² 7,4 °C 12,2 °C 43,5 km/h (6 Bft)
05.04.2026 17:08 21,4 °C 17,6 °C 45 % 51 % 1014,2 hPa 0,0 l/m² 27,9 km/h (5 Bft) W-SW 240 ° 1 min 63 W/m² 7,3 °C 11,7 °C 35,4 km/h (5 Bft)
05.04.2026 17:09 21,5 °C 17,6 °C 45 % 50 % 1014,3 hPa 0,0 l/m² 33,6 km/h (5 Bft) SW 222 ° 1 min 62 W/m² 7,1 °C 10,9 °C 41,8 km/h (6 Bft)
05.04.2026 17:11 21,7 °C 17,5 °C 45 % 50 % 1014,3 hPa 0,0 l/m² 25,8 km/h (4 Bft) W-SW 243 ° 2 min 56 W/m² 7,0 °C 11,9 °C 37,0 km/h (5 Bft)
05.04.2026 17:13 21,8 °C 17,4 °C 45 % 50 % 1014,3 hPa 0,0 l/m² 31,9 km/h (5 Bft) W-SW 247 ° 0 min 46 W/m² 6,9 °C 10,8 °C 41,8 km/h (6 Bft)
05.04.2026 17:14 21,9 °C 17,4 °C 45 % 50 % 1014,4 hPa 0,0 l/m² 29,5 km/h (5 Bft) W-SW 247 ° 0 min 44 W/m² 6,9 °C 11,1 °C 33,8 km/h (5 Bft)
05.04.2026 17:15 21,9 °C 17,4 °C 45 % 51 % 1014,5 hPa 0,0 l/m² 23,5 km/h (4 Bft) W-SW 257 ° 0 min 46 W/m² 7,2 °C 12,1 °C 29,0 km/h (5 Bft)
05.04.2026 17:17 22,1 °C 17,4 °C 44 % 53 % 1014,8 hPa 0,0 l/m² 22,7 km/h (4 Bft) W-NW 282 ° 0 min 47 W/m² 7,7 °C 12,3 °C 33,8 km/h (5 Bft)
05.04.2026 17:18 22,1 °C 17,3 °C 44 % 54 % 1014,8 hPa 0,0 l/m² 16,6 km/h (3 Bft) W-SW 248 ° 0 min 47 W/m² 7,9 °C 13,5 °C 22,5 km/h (4 Bft)
05.04.2026 17:19 22,2 °C 17,3 °C 44 % 54 % 1014,8 hPa 0,0 l/m² 32,1 km/h (5 Bft) W-SW 243 ° 0 min 47 W/m² 7,9 °C 10,6 °C 54,7 km/h (7 Bft)
05.04.2026 17:21 22,3 °C 17,2 °C 44 % 52 % 1015,0 hPa 0,0 l/m² 34,5 km/h (5 Bft) W-SW 249 ° 0 min 46 W/m² 7,3 °C 10,2 °C 46,7 km/h (6 Bft)
05.04.2026 17:23 22,4 °C 16,9 °C 44 % 54 % 1014,9 hPa 0,0 l/m² 35,1 km/h (5 Bft) W-SW 249 ° 2 min 56 W/m² 7,5 °C 9,7 °C 45,1 km/h (6 Bft)
05.04.2026 17:24 22,6 °C 16,8 °C 44 % 56 % 1015,0 hPa 0,0 l/m² 30,3 km/h (5 Bft) W 275 ° 1 min 69 W/m² 8,0 °C 10,2 °C 37,0 km/h (5 Bft)
05.04.2026 17:25 22,6 °C 16,7 °C 44 % 58 % 1015,1 hPa 0,0 l/m² 31,3 km/h (5 Bft) W-SW 244 ° 1 min 84 W/m² 8,4 °C 9,9 °C 48,3 km/h (6 Bft)
05.04.2026 17:26 22,7 °C 16,6 °C 44 % 59 % 1015,0 hPa 0,0 l/m² 34,1 km/h (5 Bft) W-SW 255 ° 1 min 95 W/m² 8,6 °C 9,4 °C 37,0 km/h (5 Bft)
05.04.2026 17:27 22,8 °C 16,4 °C 44 % 60 % 1015,0 hPa 0,0 l/m² 28,2 km/h (5 Bft) W 274 ° 1 min 98 W/m² 8,6 °C 9,9 °C 38,6 km/h (6 Bft)
05.04.2026 17:28 22,9 °C 16,2 °C 43 % 61 % 1015,0 hPa 0,0 l/m² 30,8 km/h (5 Bft) W-NW 284 ° 1 min 100 W/m² 8,7 °C 9,3 °C 43,5 km/h (6 Bft)
05.04.2026 17:29 23,0 °C 16,1 °C 43 % 62 % 1015,0 hPa 0,0 l/m² 27,9 km/h (5 Bft) W 271 ° 1 min 123 W/m² 8,8 °C 9,6 °C 33,8 km/h (5 Bft)
05.04.2026 17:31 23,2 °C 15,8 °C 43 % 62 % 1014,9 hPa 0,0 l/m² 26,9 km/h (4 Bft) W-NW 284 ° 2 min 153 W/m² 8,5 °C 9,3 °C 45,1 km/h (6 Bft)
05.04.2026 17:33 23,5 °C 15,6 °C 43 % 61 % 1014,8 hPa 0,0 l/m² 25,3 km/h (4 Bft) W-SW 244 ° 2 min 174 W/m² 8,1 °C 9,4 °C 37,0 km/h (5 Bft)
05.04.2026 17:34 23,7 °C 15,5 °C 43 % 62 % 1014,9 hPa 0,0 l/m² 22,9 km/h (4 Bft) W-SW 252 ° 1 min 185 W/m² 8,3 °C 9,7 °C 29,0 km/h (5 Bft)
05.04.2026 17:35 23,8 °C 15,4 °C 43 % 62 % 1014,9 hPa 0,0 l/m² 21,1 km/h (4 Bft) W 265 ° 1 min 199 W/m² 8,2 °C 10,0 °C 29,0 km/h (5 Bft)
05.04.2026 17:36 23,9 °C 15,4 °C 42 % 62 % 1014,9 hPa 0,0 l/m² 21,3 km/h (4 Bft) W 264 ° 1 min 206 W/m² 8,2 °C 9,9 °C 27,4 km/h (5 Bft)
05.04.2026 17:37 24,1 °C 15,4 °C 42 % 62 % 1015,0 hPa 0,0 l/m² 23,8 km/h (4 Bft) W-SW 255 ° 1 min 239 W/m² 8,2 °C 9,4 °C 32,2 km/h (5 Bft)
05.04.2026 17:38 24,3 °C 15,4 °C 42 % 62 % 1014,9 hPa 0,0 l/m² 24,1 km/h (4 Bft) W-SW 257 ° 1 min 237 W/m² 8,2 °C 9,3 °C 35,4 km/h (5 Bft)
05.04.2026 17:39 24,4 °C 15,4 °C 42 % 62 % 1014,9 hPa 0,0 l/m² 27,4 km/h (5 Bft) W 260 ° 1 min 206 W/m² 8,2 °C 8,7 °C 40,2 km/h (6 Bft)
05.04.2026 17:41 24,8 °C 15,5 °C 41 % 62 % 1014,9 hPa 0,0 l/m² 21,0 km/h (4 Bft) W 280 ° 2 min 185 W/m² 8,3 °C 10,2 °C 27,4 km/h (5 Bft)
05.04.2026 17:43 25,1 °C 15,6 °C 41 % 63 % 1014,9 hPa 0,0 l/m² 16,5 km/h (3 Bft) W-NW 293 ° 2 min 158 W/m² 8,6 °C 11,5 °C 24,1 km/h (4 Bft)
05.04.2026 17:44 25,2 °C 15,6 °C 41 % 63 % 1014,9 hPa 0,0 l/m² 21,8 km/h (4 Bft) W 281 ° 1 min 151 W/m² 8,6 °C 10,1 °C 29,0 km/h (5 Bft)
05.04.2026 17:45 25,4 °C 15,6 °C 41 % 62 % 1014,8 hPa 0,0 l/m² 21,3 km/h (4 Bft) W 281 ° 1 min 144 W/m² 8,3 °C 10,2 °C 29,0 km/h (5 Bft)
05.04.2026 17:46 25,6 °C 15,7 °C 40 % 62 % 1014,8 hPa 0,0 l/m² 22,9 km/h (4 Bft) W 281 ° 1 min 137 W/m² 8,4 °C 10,0 °C 33,8 km/h (5 Bft)
05.04.2026 17:47 25,7 °C 15,7 °C 40 % 62 % 1014,8 hPa 0,0 l/m² 27,6 km/h (5 Bft) W 265 ° 1 min 123 W/m² 8,4 °C 9,1 °C 32,2 km/h (5 Bft)
05.04.2026 17:48 25,8 °C 15,7 °C 40 % 62 % 1014,9 hPa 0,0 l/m² 24,7 km/h (4 Bft) W-NW 285 ° 1 min 118 W/m² 8,4 °C 9,6 °C 37,0 km/h (5 Bft)
05.04.2026 17:49 25,9 °C 15,7 °C 40 % 62 % 1015,0 hPa 0,0 l/m² 26,8 km/h (4 Bft) W-NW 290 ° 1 min 118 W/m² 8,4 °C 9,2 °C 37,0 km/h (5 Bft)
05.04.2026 17:51 26,2 °C 15,7 °C 40 % 62 % 1015,0 hPa 0,0 l/m² 21,3 km/h (4 Bft) W 278 ° 2 min 116 W/m² 8,4 °C 10,3 °C 27,4 km/h (5 Bft)
05.04.2026 17:53 26,3 °C 15,7 °C 39 % 62 % 1014,9 hPa 0,0 l/m² 20,4 km/h (4 Bft) W 271 ° 2 min 116 W/m² 8,4 °C 10,6 °C 27,4 km/h (5 Bft)
05.04.2026 17:54 26,4 °C 15,7 °C 39 % 62 % 1015,0 hPa 0,0 l/m² 13,8 km/h (3 Bft) W 259 ° 1 min 109 W/m² 8,4 °C 12,4 °C 22,5 km/h (4 Bft)
05.04.2026 17:55 26,6 °C 15,7 °C 39 % 62 % 1014,9 hPa 0,0 l/m² 20,3 km/h (4 Bft) W 271 ° 1 min 98 W/m² 8,4 °C 10,6 °C 25,7 km/h (4 Bft)
05.04.2026 17:56 26,6 °C 15,7 °C 39 % 62 % 1014,9 hPa 0,0 l/m² 23,5 km/h (4 Bft) W 279 ° 1 min 88 W/m² 8,4 °C 9,9 °C 32,2 km/h (5 Bft)
05.04.2026 17:57 26,7 °C 15,6 °C 39 % 61 % 1014,8 hPa 0,0 l/m² 23,4 km/h (4 Bft) W 281 ° 1 min 77 W/m² 8,1 °C 9,7 °C 29,0 km/h (5 Bft)
05.04.2026 17:58 26,8 °C 15,7 °C 39 % 61 % 1014,9 hPa 0,0 l/m² 20,5 km/h (4 Bft) W 272 ° 1 min 70 W/m² 8,2 °C 10,5 °C 27,4 km/h (5 Bft)
05.04.2026 17:59 26,8 °C 15,6 °C 39 % 61 % 1014,9 hPa 0,0 l/m² 20,4 km/h (4 Bft) W 281 ° 1 min 56 W/m² 8,1 °C 10,4 °C 29,0 km/h (5 Bft)
05.04.2026 18:01 26,9 °C 15,6 °C 39 % 60 % 1014,8 hPa 0,0 l/m² 22,8 km/h (4 Bft) W 274 ° 0 min 49 W/m² 7,9 °C 9,9 °C 33,8 km/h (5 Bft)
05.04.2026 18:03 27,1 °C 15,6 °C 38 % 59 % 1014,9 hPa 0,0 l/m² 23,2 km/h (4 Bft) W-NW 286 ° 0 min 47 W/m² 7,6 °C 9,8 °C 29,0 km/h (5 Bft)
05.04.2026 18:04 27,1 °C 15,5 °C 38 % 60 % 1015,1 hPa 0,0 l/m² 19,1 km/h (3 Bft) W 277 ° 0 min 44 W/m² 7,8 °C 10,6 °C 25,7 km/h (4 Bft)
05.04.2026 18:05 27,2 °C 15,5 °C 38 % 60 % 1015,1 hPa 0,0 l/m² 17,7 km/h (3 Bft) W-NW 287 ° 0 min 40 W/m² 7,8 °C 11,0 °C 25,7 km/h (4 Bft)
05.04.2026 18:06 27,2 °C 15,5 °C 38 % 60 % 1015,1 hPa 0,0 l/m² 17,5 km/h (3 Bft) W 269 ° 0 min 39 W/m² 7,8 °C 11,1 °C 25,7 km/h (4 Bft)
05.04.2026 18:07 27,2 °C 15,5 °C 38 % 60 % 1015,1 hPa 0,0 l/m² 19,4 km/h (3 Bft) W 277 ° 0 min 39 W/m² 7,8 °C 10,5 °C 25,7 km/h (4 Bft)
05.04.2026 18:08 27,3 °C 15,4 °C 38 % 59 % 1015,2 hPa 0,0 l/m² 21,8 km/h (4 Bft) W 259 ° 0 min 39 W/m² 7,4 °C 9,8 °C 27,4 km/h (5 Bft)
05.04.2026 18:09 27,3 °C 15,4 °C 38 % 59 % 1015,2 hPa 0,0 l/m² 16,9 km/h (3 Bft) W-NW 286 ° 0 min 40 W/m² 7,4 °C 11,1 °C 22,5 km/h (4 Bft)
05.04.2026 18:11 27,4 °C 15,4 °C 38 % 59 % 1015,4 hPa 0,0 l/m² 16,7 km/h (3 Bft) W 265 ° 0 min 37 W/m² 7,4 °C 11,2 °C 24,1 km/h (4 Bft)
05.04.2026 18:13 27,4 °C 15,3 °C 38 % 59 % 1015,3 hPa 0,0 l/m² 9,8 km/h (2 Bft) W 277 ° 0 min 30 W/m² 7,3 °C 13,5 °C 19,3 km/h (3 Bft)
05.04.2026 18:14 27,5 °C 15,3 °C 38 % 59 % 1015,4 hPa 0,0 l/m² 13,0 km/h (3 Bft) W 260 ° 0 min 30 W/m² 7,3 °C 12,2 °C 16,1 km/h (3 Bft)
05.04.2026 18:15 27,5 °C 15,3 °C 37 % 59 % 1015,4 hPa 0,0 l/m² 11,5 km/h (2 Bft) W 275 ° 0 min 30 W/m² 7,3 °C 12,8 °C 17,7 km/h (3 Bft)
05.04.2026 18:16 27,5 °C 15,3 °C 37 % 58 % 1015,4 hPa 0,0 l/m² 15,3 km/h (3 Bft) W-NW 288 ° 0 min 33 W/m² 7,1 °C 11,5 °C 17,7 km/h (3 Bft)
05.04.2026 18:17 27,6 °C 15,3 °C 37 % 59 % 1015,4 hPa 0,0 l/m² 15,4 km/h (3 Bft) W 267 ° 0 min 35 W/m² 7,3 °C 11,4 °C 20,9 km/h (4 Bft)
05.04.2026 18:18 27,6 °C 15,2 °C 37 % 59 % 1015,4 hPa 0,0 l/m² 16,3 km/h (3 Bft) W-NW 296 ° 0 min 40 W/m² 7,2 °C 11,0 °C 20,9 km/h (4 Bft)
05.04.2026 18:19 27,7 °C 15,2 °C 37 % 59 % 1015,5 hPa 0,0 l/m² 21,7 km/h (4 Bft) W 271 ° 0 min 42 W/m² 7,2 °C 9,6 °C 27,4 km/h (5 Bft)
05.04.2026 18:21 27,8 °C 15,2 °C 37 % 58 % 1015,5 hPa 0,0 l/m² 19,3 km/h (3 Bft) W-NW 282 ° 0 min 42 W/m² 7,0 °C 10,2 °C 30,6 km/h (5 Bft)
05.04.2026 18:23 28,0 °C 15,1 °C 37 % 58 % 1015,7 hPa 0,0 l/m² 17,3 km/h (3 Bft) W-NW 287 ° 0 min 42 W/m² 6,9 °C 10,6 °C 27,4 km/h (5 Bft)
05.04.2026 18:24 28,1 °C 15,1 °C 37 % 58 % 1015,6 hPa 0,0 l/m² 21,3 km/h (4 Bft) W-SW 250 ° 0 min 42 W/m² 6,9 °C 9,6 °C 30,6 km/h (5 Bft)
05.04.2026 18:25 28,2 °C 15,1 °C 36 % 56 % 1015,5 hPa 0,0 l/m² 18,1 km/h (3 Bft) W 262 ° 0 min 42 W/m² 6,4 °C 10,4 °C 24,1 km/h (4 Bft)
05.04.2026 18:26 28,3 °C 15,1 °C 36 % 56 % 1015,6 hPa 0,0 l/m² 19,7 km/h (3 Bft) W-SW 255 ° 0 min 40 W/m² 6,4 °C 10,0 °C 29,0 km/h (5 Bft)
05.04.2026 18:27 28,4 °C 15,1 °C 36 % 56 % 1015,6 hPa 0,0 l/m² 22,0 km/h (4 Bft) W 266 ° 0 min 39 W/m² 6,4 °C 9,4 °C 30,6 km/h (5 Bft)
05.04.2026 18:28 28,4 °C 15,1 °C 36 % 55 % 1015,7 hPa 0,0 l/m² 26,9 km/h (4 Bft) W 277 ° 0 min 33 W/m² 6,1 °C 8,4 °C 32,2 km/h (5 Bft)
05.04.2026 18:29 28,6 °C 15,1 °C 36 % 54 % 1015,7 hPa 0,0 l/m² 28,7 km/h (5 Bft) W 274 ° 0 min 33 W/m² 5,9 °C 8,0 °C 33,8 km/h (5 Bft)
05.04.2026 18:31 28,8 °C 15,0 °C 36 % 53 % 1015,8 hPa 0,0 l/m² 25,0 km/h (4 Bft) W 277 ° 0 min 32 W/m² 5,5 °C 8,6 °C 32,2 km/h (5 Bft)
05.04.2026 18:33 29,0 °C 15,0 °C 36 % 53 % 1015,8 hPa 0,0 l/m² 26,2 km/h (4 Bft) W 275 ° 0 min 30 W/m² 5,5 °C 8,4 °C 35,4 km/h (5 Bft)
05.04.2026 18:34 29,1 °C 15,0 °C 36 % 52 % 1015,9 hPa 0,0 l/m² 32,5 km/h (5 Bft) W 263 ° 0 min 32 W/m² 5,2 °C 7,3 °C 37,0 km/h (5 Bft)
05.04.2026 18:35 29,2 °C 14,9 °C 35 % 52 % 1015,8 hPa 0,0 l/m² 26,3 km/h (4 Bft) W 280 ° 0 min 32 W/m² 5,1 °C 8,2 °C 33,8 km/h (5 Bft)
05.04.2026 18:36 29,2 °C 14,9 °C 35 % 52 % 1015,8 hPa 0,0 l/m² 25,7 km/h (4 Bft) W 275 ° 0 min 30 W/m² 5,1 °C 8,3 °C 33,8 km/h (5 Bft)
05.04.2026 18:37 29,3 °C 14,9 °C 35 % 52 % 1015,8 hPa 0,0 l/m² 26,8 km/h (4 Bft) W 274 ° 0 min 30 W/m² 5,1 °C 8,1 °C 33,8 km/h (5 Bft)
05.04.2026 18:38 29,4 °C 15,0 °C 35 % 52 % 1015,7 hPa 0,0 l/m² 24,4 km/h (4 Bft) W-SW 250 ° 0 min 32 W/m² 5,2 °C 8,7 °C 33,8 km/h (5 Bft)
05.04.2026 18:39 29,4 °C 14,9 °C 35 % 52 % 1015,8 hPa 0,0 l/m² 22,7 km/h (4 Bft) W-NW 284 ° 0 min 33 W/m² 5,1 °C 9,0 °C 27,4 km/h (5 Bft)
05.04.2026 18:41 29,6 °C 14,9 °C 35 % 51 % 1015,8 hPa 0,0 l/m² 30,8 km/h (5 Bft) W-NW 299 ° 0 min 35 W/m² 4,9 °C 7,4 °C 41,8 km/h (6 Bft)
05.04.2026 18:43 29,7 °C 14,9 °C 35 % 51 % 1015,9 hPa 0,0 l/m² 26,5 km/h (4 Bft) W-NW 294 ° 0 min 30 W/m² 4,9 °C 8,2 °C 38,6 km/h (6 Bft)
05.04.2026 18:45 29,9 °C 14,9 °C 35 % 51 % 1015,8 hPa 0,0 l/m² 27,9 km/h (5 Bft) W 266 ° 0 min 25 W/m² 4,9 °C 7,9 °C 40,2 km/h (6 Bft)
05.04.2026 18:46 29,9 °C 14,8 °C 35 % 50 % 1015,9 hPa 0,0 l/m² 34,0 km/h (5 Bft) W 273 ° 0 min 25 W/m² 4,5 °C 6,8 °C 40,2 km/h (6 Bft)
05.04.2026 18:47 29,9 °C 14,8 °C 35 % 50 % 1016,0 hPa 0,0 l/m² 25,2 km/h (4 Bft) W 263 ° 0 min 25 W/m² 4,5 °C 8,3 °C 33,8 km/h (5 Bft)
05.04.2026 18:48 30,0 °C 14,8 °C 34 % 51 % 1016,0 hPa 0,0 l/m² 22,0 km/h (4 Bft) W 279 ° 0 min 25 W/m² 4,8 °C 9,0 °C 25,7 km/h (4 Bft)
05.04.2026 18:49 30,1 °C 14,8 °C 34 % 51 % 1016,1 hPa 0,0 l/m² 19,7 km/h (3 Bft) W 279 ° 0 min 23 W/m² 4,8 °C 9,6 °C 25,7 km/h (4 Bft)
05.04.2026 18:51 30,2 °C 14,8 °C 34 % 51 % 1016,2 hPa 0,0 l/m² 21,4 km/h (4 Bft) W 263 ° 0 min 19 W/m² 4,8 °C 9,1 °C 32,2 km/h (5 Bft)
05.04.2026 18:53 30,2 °C 14,8 °C 34 % 52 % 1016,1 hPa 0,0 l/m² 21,5 km/h (4 Bft) W 273 ° 0 min 18 W/m² 5,0 °C 9,1 °C 35,4 km/h (5 Bft)
05.04.2026 18:54 30,3 °C 14,8 °C 34 % 52 % 1016,1 hPa 0,0 l/m² 24,2 km/h (4 Bft) W 262 ° 0 min 18 W/m² 5,0 °C 8,5 °C 32,2 km/h (5 Bft)
05.04.2026 18:55 30,3 °C 14,8 °C 34 % 52 % 1016,1 hPa 0,0 l/m² 20,2 km/h (4 Bft) W 281 ° 0 min 18 W/m² 5,0 °C 9,4 °C 24,1 km/h (4 Bft)
05.04.2026 18:56 30,3 °C 14,8 °C 33 % 52 % 1016,2 hPa 0,0 l/m² 21,1 km/h (4 Bft) W 273 ° 0 min 18 W/m² 5,0 °C 9,2 °C 30,6 km/h (5 Bft)
05.04.2026 18:57 30,3 °C 14,7 °C 33 % 52 % 1016,1 hPa 0,0 l/m² 24,9 km/h (4 Bft) W-NW 296 ° 0 min 18 W/m² 5,0 °C 8,2 °C 32,2 km/h (5 Bft)
05.04.2026 18:58 30,4 °C 14,7 °C 33 % 52 % 1016,2 hPa 0,0 l/m² 20,8 km/h (4 Bft) W-NW 282 ° 0 min 18 W/m² 5,0 °C 9,2 °C 25,7 km/h (4 Bft)
05.04.2026 18:59 30,4 °C 14,7 °C 33 % 52 % 1016,2 hPa 0,0 l/m² 26,2 km/h (4 Bft) W 271 ° 0 min 18 W/m² 5,0 °C 8,0 °C 30,6 km/h (5 Bft)
05.04.2026 19:01 30,4 °C 14,6 °C 33 % 52 % 1016,3 hPa 0,0 l/m² 20,9 km/h (4 Bft) W 273 ° 0 min 19 W/m² 4,9 °C 9,0 °C 27,4 km/h (5 Bft)
05.04.2026 19:03 30,5 °C 14,6 °C 33 % 52 % 1016,2 hPa 0,0 l/m² 19,1 km/h (3 Bft) W-NW 294 ° 0 min 18 W/m² 4,9 °C 9,5 °C 27,4 km/h (5 Bft)
05.04.2026 19:04 30,5 °C 14,6 °C 33 % 53 % 1016,3 hPa 0,0 l/m² 20,5 km/h (4 Bft) W-NW 290 ° 0 min 18 W/m² 5,1 °C 9,1 °C 25,7 km/h (4 Bft)
05.04.2026 19:05 30,5 °C 14,6 °C 33 % 52 % 1016,3 hPa 0,0 l/m² 19,0 km/h (3 Bft) W 281 ° 0 min 16 W/m² 4,9 °C 9,5 °C 24,1 km/h (4 Bft)
05.04.2026 19:06 30,5 °C 14,5 °C 33 % 52 % 1016,3 hPa 0,0 l/m² 22,7 km/h (4 Bft) W 275 ° 0 min 16 W/m² 4,8 °C 8,4 °C 30,6 km/h (5 Bft)
05.04.2026 19:08 30,6 °C 14,4 °C 33 % 53 % 1016,3 hPa 0,0 l/m² 21,8 km/h (4 Bft) W 267 ° 0 min 18 W/m² 4,9 °C 8,5 °C 27,4 km/h (5 Bft)
05.04.2026 19:09 30,6 °C 14,4 °C 33 % 53 % 1016,3 hPa 0,0 l/m² 20,3 km/h (4 Bft) W 270 ° 0 min 18 W/m² 4,9 °C 8,9 °C 25,7 km/h (4 Bft)
05.04.2026 19:11 30,6 °C 14,3 °C 34 % 53 % 1016,3 hPa 0,0 l/m² 21,0 km/h (4 Bft) W 279 ° 0 min 18 W/m² 4,9 °C 8,6 °C 27,4 km/h (5 Bft)
05.04.2026 19:13 30,6 °C 14,3 °C 34 % 52 % 1016,4 hPa 0,0 l/m² 25,3 km/h (4 Bft) W-NW 283 ° 0 min 19 W/m² 4,6 °C 7,6 °C 32,2 km/h (5 Bft)
05.04.2026 19:14 30,6 °C 14,3 °C 34 % 53 % 1016,4 hPa 0,0 l/m² 22,6 km/h (4 Bft) W 265 ° 0 min 19 W/m² 4,9 °C 8,2 °C 29,0 km/h (5 Bft)
05.04.2026 19:15 30,6 °C 14,3 °C 34 % 52 % 1016,4 hPa 0,0 l/m² 26,1 km/h (4 Bft) W 265 ° 0 min 23 W/m² 4,6 °C 7,4 °C 30,6 km/h (5 Bft)
05.04.2026 19:16 30,6 °C 14,3 °C 34 % 52 % 1016,4 hPa 0,0 l/m² 26,1 km/h (4 Bft) W 278 ° 0 min 23 W/m² 4,6 °C 7,4 °C 32,2 km/h (5 Bft)
05.04.2026 19:17 30,6 °C 14,3 °C 34 % 52 % 1016,4 hPa 0,0 l/m² 22,4 km/h (4 Bft) W 279 ° 0 min 25 W/m² 4,6 °C 8,2 °C 29,0 km/h (5 Bft)
05.04.2026 19:18 30,6 °C 14,3 °C 34 % 53 % 1016,4 hPa 0,0 l/m² 20,3 km/h (4 Bft) W 271 ° 0 min 26 W/m² 4,9 °C 8,8 °C 24,1 km/h (4 Bft)
05.04.2026 19:19 30,6 °C 14,3 °C 34 % 53 % 1016,4 hPa 0,0 l/m² 17,0 km/h (3 Bft) W 264 ° 0 min 28 W/m² 4,9 °C 9,7 °C 20,9 km/h (4 Bft)
05.04.2026 19:21 30,5 °C 14,2 °C 34 % 53 % 1016,4 hPa 0,0 l/m² 21,3 km/h (4 Bft) W 271 ° 0 min 39 W/m² 4,8 °C 8,4 °C 29,0 km/h (5 Bft)
05.04.2026 19:23 30,5 °C 14,2 °C 34 % 53 % 1016,5 hPa 0,0 l/m² 19,2 km/h (3 Bft) W 275 ° 0 min 42 W/m² 4,8 °C 8,9 °C 29,0 km/h (5 Bft)
05.04.2026 19:24 30,5 °C 14,2 °C 34 % 53 % 1016,5 hPa 0,0 l/m² 16,9 km/h (3 Bft) W 267 ° 0 min 44 W/m² 4,8 °C 9,6 °C 22,5 km/h (4 Bft)
05.04.2026 19:25 30,4 °C 14,2 °C 34 % 53 % 1016,5 hPa 0,0 l/m² 20,2 km/h (4 Bft) W 279 ° 0 min 46 W/m² 4,8 °C 8,7 °C 25,7 km/h (4 Bft)
05.04.2026 19:26 30,4 °C 14,2 °C 34 % 53 % 1016,5 hPa 0,0 l/m² 17,8 km/h (3 Bft) W-NW 284 ° 0 min 49 W/m² 4,8 °C 9,3 °C 19,3 km/h (3 Bft)
05.04.2026 19:27 30,4 °C 14,1 °C 34 % 53 % 1016,5 hPa 0,0 l/m² 17,0 km/h (3 Bft) W-SW 258 ° 0 min 46 W/m² 4,7 °C 9,4 °C 22,5 km/h (4 Bft)
05.04.2026 19:28 30,4 °C 14,1 °C 34 % 53 % 1016,5 hPa 0,0 l/m² 19,4 km/h (3 Bft) W-NW 283 ° 0 min 44 W/m² 4,7 °C 8,7 °C 24,1 km/h (4 Bft)
05.04.2026 19:29 30,4 °C 14,1 °C 34 % 53 % 1016,5 hPa 0,0 l/m² 18,9 km/h (3 Bft) W-NW 297 ° 0 min 42 W/m² 4,7 °C 8,9 °C 25,7 km/h (4 Bft)
05.04.2026 19:31 30,4 °C 14,1 °C 34 % 53 % 1016,5 hPa 0,0 l/m² 21,9 km/h (4 Bft) W 279 ° 0 min 33 W/m² 4,7 °C 8,1 °C 38,6 km/h (6 Bft)
05.04.2026 19:33 30,3 °C 14,1 °C 34 % 52 % 1016,5 hPa 0,0 l/m² 20,7 km/h (4 Bft) W 267 ° 0 min 25 W/m² 4,4 °C 8,4 °C 30,6 km/h (5 Bft)
05.04.2026 19:34 30,3 °C 14,1 °C 34 % 53 % 1016,5 hPa 0,0 l/m² 24,6 km/h (4 Bft) W 273 ° 0 min 21 W/m² 4,7 °C 7,5 °C 29,0 km/h (5 Bft)
05.04.2026 19:35 30,3 °C 14,1 °C 34 % 52 % 1016,4 hPa 0,0 l/m² 25,1 km/h (4 Bft) W-NW 284 ° 0 min 18 W/m² 4,4 °C 7,4 °C 30,6 km/h (5 Bft)
05.04.2026 19:36 30,3 °C 14,0 °C 34 % 53 % 1016,4 hPa 0,0 l/m² 27,8 km/h (5 Bft) W 278 ° 0 min 16 W/m² 4,6 °C 6,7 °C 33,8 km/h (5 Bft)
05.04.2026 19:37 30,2 °C 14,0 °C 34 % 53 % 1016,4 hPa 0,0 l/m² 21,5 km/h (4 Bft) W 272 ° 0 min 14 W/m² 4,6 °C 8,1 °C 30,6 km/h (5 Bft)
05.04.2026 19:38 30,2 °C 14,0 °C 34 % 53 % 1016,4 hPa 0,0 l/m² 23,6 km/h (4 Bft) W 269 ° 0 min 14 W/m² 4,6 °C 7,6 °C 27,4 km/h (5 Bft)
05.04.2026 19:39 30,2 °C 13,9 °C 34 % 53 % 1016,5 hPa 0,0 l/m² 22,4 km/h (4 Bft) W-NW 282 ° 0 min 14 W/m² 4,5 °C 7,7 °C 27,4 km/h (5 Bft)
05.04.2026 19:41 30,2 °C 13,9 °C 35 % 53 % 1016,4 hPa 0,0 l/m² 21,6 km/h (4 Bft) W-SW 257 ° 0 min 14 W/m² 4,5 °C 7,9 °C 30,6 km/h (5 Bft)
05.04.2026 19:43 30,1 °C 13,9 °C 34 % 54 % 1016,5 hPa 0,0 l/m² 23,4 km/h (4 Bft) W-NW 293 ° 0 min 14 W/m² 4,7 °C 7,5 °C 35,4 km/h (5 Bft)
05.04.2026 19:44 30,1 °C 13,8 °C 34 % 54 % 1016,5 hPa 0,0 l/m² 26,1 km/h (4 Bft) W-NW 282 ° 0 min 14 W/m² 4,7 °C 6,7 °C 32,2 km/h (5 Bft)
05.04.2026 19:45 30,1 °C 13,8 °C 35 % 54 % 1016,6 hPa 0,0 l/m² 17,3 km/h (3 Bft) W 273 ° 0 min 14 W/m² 4,7 °C 9,0 °C 24,1 km/h (4 Bft)
05.04.2026 19:46 30,1 °C 13,8 °C 35 % 54 % 1016,6 hPa 0,0 l/m² 15,7 km/h (3 Bft) W-NW 288 ° 0 min 12 W/m² 4,7 °C 9,5 °C 22,5 km/h (4 Bft)
05.04.2026 19:47 30,0 °C 13,8 °C 35 % 54 % 1016,6 hPa 0,0 l/m² 16,2 km/h (3 Bft) W 275 ° 0 min 11 W/m² 4,7 °C 9,3 °C 19,3 km/h (3 Bft)
05.04.2026 19:48 29,9 °C 13,8 °C 35 % 54 % 1016,6 hPa 0,0 l/m² 15,7 km/h (3 Bft) W 264 ° 0 min 9 W/m² 4,7 °C 9,5 °C 19,3 km/h (3 Bft)
05.04.2026 19:49 29,9 °C 13,7 °C 35 % 55 % 1016,6 hPa 0,0 l/m² 16,9 km/h (3 Bft) W-NW 283 ° 0 min 7 W/m² 4,8 °C 9,0 °C 25,7 km/h (4 Bft)
05.04.2026 19:51 29,9 °C 13,7 °C 35 % 54 % 1016,6 hPa 0,0 l/m² 18,5 km/h (3 Bft) W 274 ° 0 min 5 W/m² 4,6 °C 8,5 °C 24,1 km/h (4 Bft)
05.04.2026 19:53 29,8 °C 13,7 °C 35 % 55 % 1016,6 hPa 0,0 l/m² 18,5 km/h (3 Bft) W-NW 286 ° 0 min 0 W/m² 4,8 °C 8,5 °C 25,7 km/h (4 Bft)
05.04.2026 19:54 29,8 °C 13,6 °C 35 % 55 % 1016,7 hPa 0,0 l/m² 16,9 km/h (3 Bft) W 273 ° 0 min 0 W/m² 4,7 °C 8,9 °C 20,9 km/h (4 Bft)
05.04.2026 19:55 29,8 °C 13,6 °C 35 % 55 % 1016,7 hPa 0,0 l/m² 19,0 km/h (3 Bft) W 272 ° 0 min 0 W/m² 4,7 °C 8,2 °C 22,5 km/h (4 Bft)
05.04.2026 19:56 29,7 °C 13,6 °C 35 % 55 % 1016,7 hPa 0,0 l/m² 17,3 km/h (3 Bft) W 280 ° 0 min 0 W/m² 4,7 °C 8,7 °C 20,9 km/h (4 Bft)
05.04.2026 19:57 29,7 °C 13,6 °C 35 % 55 % 1016,7 hPa 0,0 l/m² 19,7 km/h (3 Bft) W 279 ° 0 min 0 W/m² 4,7 °C 8,0 °C 25,7 km/h (4 Bft)
05.04.2026 19:58 29,7 °C 13,6 °C 35 % 55 % 1016,9 hPa 0,0 l/m² 20,7 km/h (4 Bft) W-NW 290 ° 0 min 0 W/m² 4,7 °C 7,7 °C 22,5 km/h (4 Bft)
05.04.2026 19:59 29,7 °C 13,5 °C 35 % 55 % 1016,8 hPa 0,0 l/m² 18,0 km/h (3 Bft) W-NW 282 ° 0 min 0 W/m² 4,6 °C 8,4 °C 24,1 km/h (4 Bft)
05.04.2026 20:01 29,6 °C 13,4 °C 35 % 55 % 1017,0 hPa 0,0 l/m² 12,7 km/h (3 Bft) W 280 ° 0 min 0 W/m² 4,5 °C 10,1 °C 17,7 km/h (3 Bft)
05.04.2026 20:03 29,5 °C 13,4 °C 35 % 56 % 1016,9 hPa 0,0 l/m² 12,6 km/h (3 Bft) W 263 ° 0 min 0 W/m² 4,8 °C 10,2 °C 16,1 km/h (3 Bft)
05.04.2026 20:04 29,4 °C 13,4 °C 35 % 56 % 1017,0 hPa 0,0 l/m² 12,4 km/h (2 Bft) W-NW 284 ° 0 min 0 W/m² 4,8 °C 10,3 °C 14,5 km/h (3 Bft)
05.04.2026 20:05 29,4 °C 13,4 °C 35 % 56 % 1017,0 hPa 0,0 l/m² 15,5 km/h (3 Bft) W 270 ° 0 min 0 W/m² 4,8 °C 9,1 °C 19,3 km/h (3 Bft)
05.04.2026 20:06 29,4 °C 13,3 °C 35 % 56 % 1017,1 hPa 0,0 l/m² 13,7 km/h (3 Bft) W 260 ° 0 min 0 W/m² 4,7 °C 9,6 °C 17,7 km/h (3 Bft)
05.04.2026 20:07 29,4 °C 13,3 °C 35 % 56 % 1017,1 hPa 0,0 l/m² 12,2 km/h (2 Bft) W-NW 284 ° 0 min 0 W/m² 4,7 °C 10,2 °C 14,5 km/h (3 Bft)
05.04.2026 20:08 29,3 °C 13,3 °C 35 % 56 % 1017,1 hPa 0,0 l/m² 14,8 km/h (3 Bft) W 281 ° 0 min 0 W/m² 4,7 °C 9,2 °C 16,1 km/h (3 Bft)
05.04.2026 20:09 29,3 °C 13,2 °C 35 % 56 % 1017,2 hPa 0,0 l/m² 12,2 km/h (2 Bft) W 271 ° 0 min 0 W/m² 4,6 °C 10,1 °C 16,1 km/h (3 Bft)
05.04.2026 20:11 29,2 °C 13,2 °C 35 % 57 % 1017,2 hPa 0,0 l/m² 11,5 km/h (2 Bft) W-NW 283 ° 0 min 0 W/m² 4,9 °C 10,4 °C 16,1 km/h (3 Bft)
05.04.2026 20:13 29,2 °C 13,1 °C 35 % 57 % 1017,2 hPa 0,0 l/m² 14,5 km/h (3 Bft) W-SW 255 ° 0 min 0 W/m² 4,8 °C 9,1 °C 20,9 km/h (4 Bft)
05.04.2026 20:14 29,2 °C 13,1 °C 35 % 57 % 1017,2 hPa 0,0 l/m² 12,6 km/h (3 Bft) W 269 ° 0 min 0 W/m² 4,8 °C 9,8 °C 16,1 km/h (3 Bft)
05.04.2026 20:15 29,1 °C 13,1 °C 36 % 57 % 1017,2 hPa 0,0 l/m² 12,0 km/h (2 Bft) W 276 ° 0 min 0 W/m² 4,8 °C 10,1 °C 14,5 km/h (3 Bft)
05.04.2026 20:16 29,1 °C 13,0 °C 36 % 57 % 1017,3 hPa 0,0 l/m² 12,4 km/h (2 Bft) W 266 ° 0 min 0 W/m² 4,7 °C 9,8 °C 14,5 km/h (3 Bft)
05.04.2026 20:17 29,1 °C 12,9 °C 36 % 57 % 1017,2 hPa 0,0 l/m² 14,6 km/h (3 Bft) W 275 ° 0 min 0 W/m² 4,6 °C 8,8 °C 19,3 km/h (3 Bft)
05.04.2026 20:18 29,0 °C 12,9 °C 36 % 58 % 1017,4 hPa 0,0 l/m² 14,7 km/h (3 Bft) W 266 ° 0 min 0 W/m² 4,8 °C 8,8 °C 19,3 km/h (3 Bft)
05.04.2026 20:19 28,9 °C 12,8 °C 36 % 58 % 1017,3 hPa 0,0 l/m² 20,1 km/h (4 Bft) W 259 ° 0 min 0 W/m² 4,7 °C 6,9 °C 27,4 km/h (5 Bft)
05.04.2026 20:21 28,9 °C 12,8 °C 36 % 57 % 1017,4 hPa 0,0 l/m² 22,7 km/h (4 Bft) W-NW 285 ° 0 min 0 W/m² 4,5 °C 6,2 °C 33,8 km/h (5 Bft)
05.04.2026 20:23 28,8 °C 12,7 °C 36 % 58 % 1017,6 hPa 0,0 l/m² 21,9 km/h (4 Bft) W 271 ° 0 min 0 W/m² 4,7 °C 6,3 °C 29,0 km/h (5 Bft)
05.04.2026 20:24 28,8 °C 12,7 °C 36 % 58 % 1017,6 hPa 0,0 l/m² 19,0 km/h (3 Bft) W 280 ° 0 min 0 W/m² 4,7 °C 7,1 °C 24,1 km/h (4 Bft)
05.04.2026 20:25 28,8 °C 12,7 °C 36 % 58 % 1017,7 hPa 0,0 l/m² 14,5 km/h (3 Bft) W-NW 283 ° 0 min 0 W/m² 4,7 °C 8,6 °C 20,9 km/h (4 Bft)
05.04.2026 20:26 28,7 °C 12,6 °C 36 % 58 % 1017,7 hPa 0,0 l/m² 19,2 km/h (3 Bft) W 261 ° 0 min 0 W/m² 4,6 °C 6,9 °C 22,5 km/h (4 Bft)
05.04.2026 20:27 28,7 °C 12,6 °C 36 % 58 % 1017,6 hPa 0,0 l/m² 21,0 km/h (4 Bft) W 275 ° 0 min 0 W/m² 4,6 °C 6,4 °C 30,6 km/h (5 Bft)
05.04.2026 20:28 28,7 °C 12,6 °C 36 % 58 % 1017,7 hPa 0,0 l/m² 15,3 km/h (3 Bft) W 265 ° 0 min 0 W/m² 4,6 °C 8,2 °C 19,3 km/h (3 Bft)
05.04.2026 20:29 28,6 °C 12,5 °C 36 % 59 % 1017,7 hPa 0,0 l/m² 15,8 km/h (3 Bft) W-SW 252 ° 0 min 0 W/m² 4,7 °C 7,9 °C 22,5 km/h (4 Bft)
05.04.2026 20:31 28,5 °C 12,5 °C 36 % 59 % 1017,8 hPa 0,0 l/m² 18,1 km/h (3 Bft) W 263 ° 0 min 0 W/m² 4,7 °C 7,1 °C 25,7 km/h (4 Bft)
05.04.2026 20:33 28,4 °C 12,4 °C 36 % 59 % 1017,8 hPa 0,0 l/m² 15,5 km/h (3 Bft) W-NW 285 ° 0 min 0 W/m² 4,6 °C 7,9 °C 20,9 km/h (4 Bft)
05.04.2026 20:34 28,4 °C 12,4 °C 36 % 59 % 1017,7 hPa 0,0 l/m² 15,5 km/h (3 Bft) W 268 ° 0 min 0 W/m² 4,6 °C 7,9 °C 20,9 km/h (4 Bft)
05.04.2026 20:35 28,3 °C 12,4 °C 36 % 60 % 1017,8 hPa 0,0 l/m² 18,3 km/h (3 Bft) W 274 ° 0 min 0 W/m² 4,9 °C 6,9 °C 24,1 km/h (4 Bft)
05.04.2026 20:36 28,3 °C 12,3 °C 36 % 59 % 1017,8 hPa 0,0 l/m² 18,6 km/h (3 Bft) W 273 ° 0 min 0 W/m² 4,5 °C 6,7 °C 22,5 km/h (4 Bft)
05.04.2026 20:37 28,3 °C 12,3 °C 36 % 59 % 1017,8 hPa 0,0 l/m² 16,4 km/h (3 Bft) W-SW 252 ° 0 min 0 W/m² 4,5 °C 7,4 °C 20,9 km/h (4 Bft)
05.04.2026 20:38 28,2 °C 12,2 °C 36 % 60 % 1017,8 hPa 0,0 l/m² 18,9 km/h (3 Bft) W-SW 242 ° 0 min 0 W/m² 4,7 °C 6,5 °C 27,4 km/h (5 Bft)
05.04.2026 20:39 28,2 °C 12,2 °C 36 % 60 % 1017,8 hPa 0,0 l/m² 18,5 km/h (3 Bft) W 261 ° 0 min 0 W/m² 4,7 °C 6,6 °C 25,7 km/h (4 Bft)
05.04.2026 20:41 28,1 °C 12,2 °C 36 % 60 % 1017,8 hPa 0,0 l/m² 18,2 km/h (3 Bft) W 274 ° 0 min 0 W/m² 4,7 °C 6,7 °C 22,5 km/h (4 Bft)
05.04.2026 20:43 28,1 °C 12,1 °C 36 % 61 % 1017,8 hPa 0,0 l/m² 14,4 km/h (3 Bft) W 279 ° 0 min 0 W/m² 4,8 °C 7,9 °C 19,3 km/h (3 Bft)
05.04.2026 20:44 28,0 °C 12,1 °C 36 % 61 % 1017,7 hPa 0,0 l/m² 14,1 km/h (3 Bft) W 279 ° 0 min 0 W/m² 4,8 °C 8,0 °C 19,3 km/h (3 Bft)
05.04.2026 20:45 27,9 °C 12,1 °C 36 % 61 % 1017,7 hPa 0,0 l/m² 13,1 km/h (3 Bft) W 272 ° 0 min 0 W/m² 4,8 °C 8,4 °C 19,3 km/h (3 Bft)
05.04.2026 20:46 27,9 °C 12,1 °C 36 % 61 % 1017,8 hPa 0,0 l/m² 14,8 km/h (3 Bft) W 265 ° 0 min 0 W/m² 4,8 °C 7,8 °C 20,9 km/h (4 Bft)
05.04.2026 20:47 27,9 °C 12,0 °C 36 % 61 % 1017,7 hPa 0,0 l/m² 18,9 km/h (3 Bft) W 274 ° 0 min 0 W/m² 4,7 °C 6,2 °C 24,1 km/h (4 Bft)
05.04.2026 20:48 27,9 °C 12,0 °C 37 % 61 % 1017,8 hPa 0,0 l/m² 17,0 km/h (3 Bft) W 273 ° 0 min 0 W/m² 4,7 °C 6,8 °C 24,1 km/h (4 Bft)
05.04.2026 20:49 27,8 °C 11,9 °C 36 % 61 % 1017,7 hPa 0,0 l/m² 14,1 km/h (3 Bft) W 270 ° 0 min 0 W/m² 4,6 °C 7,8 °C 20,9 km/h (4 Bft)
05.04.2026 20:51 27,7 °C 11,9 °C 37 % 61 % 1017,8 hPa 0,0 l/m² 15,4 km/h (3 Bft) W-SW 250 ° 0 min 0 W/m² 4,6 °C 7,3 °C 22,5 km/h (4 Bft)
05.04.2026 20:53 27,7 °C 11,9 °C 37 % 62 % 1017,8 hPa 0,0 l/m² 16,6 km/h (3 Bft) W 259 ° 0 min 0 W/m² 4,9 °C 6,8 °C 20,9 km/h (4 Bft)
05.04.2026 20:54 27,6 °C 11,8 °C 37 % 62 % 1017,8 hPa 0,0 l/m² 15,8 km/h (3 Bft) W 262 ° 0 min 0 W/m² 4,8 °C 7,0 °C 22,5 km/h (4 Bft)
05.04.2026 20:55 27,6 °C 11,8 °C 37 % 62 % 1017,8 hPa 0,0 l/m² 16,4 km/h (3 Bft) W 261 ° 0 min 0 W/m² 4,8 °C 6,8 °C 24,1 km/h (4 Bft)
05.04.2026 20:56 27,5 °C 11,8 °C 37 % 62 % 1017,8 hPa 0,0 l/m² 16,9 km/h (3 Bft) W-SW 256 ° 0 min 0 W/m² 4,8 °C 6,6 °C 19,3 km/h (3 Bft)
05.04.2026 20:57 27,4 °C 11,8 °C 37 % 62 % 1017,7 hPa 0,0 l/m² 15,4 km/h (3 Bft) W-SW 250 ° 0 min 0 W/m² 4,8 °C 7,2 °C 19,3 km/h (3 Bft)
05.04.2026 20:58 27,4 °C 11,8 °C 37 % 63 % 1017,7 hPa 0,0 l/m² 15,7 km/h (3 Bft) W 261 ° 0 min 0 W/m² 5,0 °C 7,0 °C 19,3 km/h (3 Bft)
05.04.2026 20:59 27,4 °C 11,8 °C 37 % 62 % 1017,7 hPa 0,0 l/m² 12,5 km/h (2 Bft) W-SW 252 ° 0 min 0 W/m² 4,8 °C 8,4 °C 16,1 km/h (3 Bft)
05.04.2026 21:01 27,3 °C 11,7 °C 37 % 63 % 1017,8 hPa 0,0 l/m² 12,8 km/h (3 Bft) W-SW 254 ° 0 min 0 W/m² 4,9 °C 8,1 °C 16,1 km/h (3 Bft)
05.04.2026 21:03 27,2 °C 11,7 °C 38 % 63 % 1017,8 hPa 0,0 l/m² 13,9 km/h (3 Bft) W-SW 257 ° 0 min 0 W/m² 4,9 °C 7,6 °C 17,7 km/h (3 Bft)
05.04.2026 21:04 27,2 °C 11,6 °C 38 % 63 % 1017,8 hPa 0,0 l/m² 14,0 km/h (3 Bft) W 271 ° 0 min 0 W/m² 4,8 °C 7,5 °C 19,3 km/h (3 Bft)
05.04.2026 21:05 27,2 °C 11,6 °C 38 % 63 % 1017,8 hPa 0,0 l/m² 13,9 km/h (3 Bft) W-SW 258 ° 0 min 0 W/m² 4,8 °C 7,5 °C 17,7 km/h (3 Bft)
05.04.2026 21:06 27,2 °C 11,5 °C 38 % 63 % 1017,8 hPa 0,0 l/m² 12,1 km/h (2 Bft) W 265 ° 0 min 0 W/m² 4,7 °C 8,2 °C 19,3 km/h (3 Bft)
05.04.2026 21:08 27,0 °C 11,4 °C 38 % 63 % 1017,8 hPa 0,0 l/m² 13,3 km/h (3 Bft) W 266 ° 0 min 0 W/m² 4,6 °C 7,5 °C 19,3 km/h (3 Bft)
05.04.2026 21:09 27,0 °C 11,4 °C 38 % 63 % 1017,8 hPa 0,0 l/m² 14,2 km/h (3 Bft) W 259 ° 0 min 0 W/m² 4,6 °C 7,2 °C 17,7 km/h (3 Bft)
05.04.2026 21:11 26,9 °C 11,4 °C 38 % 63 % 1017,9 hPa 0,0 l/m² 13,1 km/h (3 Bft) W-SW 256 ° 0 min 0 W/m² 4,6 °C 7,6 °C 16,1 km/h (3 Bft)
05.04.2026 21:13 26,9 °C 11,3 °C 38 % 63 % 1018,0 hPa 0,0 l/m² 12,0 km/h (2 Bft) W 262 ° 0 min 0 W/m² 4,5 °C 8,0 °C 16,1 km/h (3 Bft)
05.04.2026 21:14 26,8 °C 11,3 °C 38 % 64 % 1018,0 hPa 0,0 l/m² 10,4 km/h (2 Bft) W 262 ° 0 min 0 W/m² 4,7 °C 8,8 °C 16,1 km/h (3 Bft)
05.04.2026 21:15 26,8 °C 11,3 °C 38 % 64 % 1018,0 hPa 0,0 l/m² 11,1 km/h (2 Bft) W-SW 248 ° 0 min 0 W/m² 4,7 °C 8,5 °C 14,5 km/h (3 Bft)
05.04.2026 21:16 26,8 °C 11,3 °C 38 % 64 % 1018,1 hPa 0,0 l/m² 10,5 km/h (2 Bft) W 261 ° 0 min 0 W/m² 4,7 °C 8,8 °C 12,9 km/h (3 Bft)
05.04.2026 21:17 26,8 °C 11,2 °C 38 % 64 % 1018,0 hPa 0,0 l/m² 11,5 km/h (2 Bft) W 265 ° 0 min 0 W/m² 4,6 °C 8,1 °C 12,9 km/h (3 Bft)
05.04.2026 21:18 26,8 °C 11,2 °C 38 % 64 % 1018,1 hPa 0,0 l/m² 10,7 km/h (2 Bft) W-SW 250 ° 0 min 0 W/m² 4,6 °C 8,5 °C 14,5 km/h (3 Bft)
05.04.2026 21:19 26,7 °C 11,2 °C 38 % 64 % 1018,2 hPa 0,0 l/m² 13,5 km/h (3 Bft) W-SW 249 ° 0 min 0 W/m² 4,6 °C 7,2 °C 20,9 km/h (4 Bft)
05.04.2026 21:21 26,7 °C 11,1 °C 38 % 65 % 1018,2 hPa 0,0 l/m² 15,8 km/h (3 Bft) W-SW 248 ° 0 min 0 W/m² 4,8 °C 6,2 °C 19,3 km/h (3 Bft)
05.04.2026 21:23 26,6 °C 11,1 °C 39 % 65 % 1018,3 hPa 0,0 l/m² 14,2 km/h (3 Bft) W-SW 255 ° 0 min 0 W/m² 4,8 °C 6,8 °C 19,3 km/h (3 Bft)
05.04.2026 21:24 26,6 °C 11,0 °C 39 % 65 % 1018,4 hPa 0,0 l/m² 14,2 km/h (3 Bft) W-SW 252 ° 0 min 0 W/m² 4,7 °C 6,7 °C 19,3 km/h (3 Bft)
05.04.2026 21:25 26,6 °C 10,9 °C 39 % 65 % 1018,4 hPa 0,0 l/m² 13,8 km/h (3 Bft) W-SW 258 ° 0 min 0 W/m² 4,6 °C 6,7 °C 16,1 km/h (3 Bft)
05.04.2026 21:26 26,5 °C 10,9 °C 39 % 65 % 1018,5 hPa 0,0 l/m² 13,2 km/h (3 Bft) W-SW 248 ° 0 min 0 W/m² 4,6 °C 7,0 °C 17,7 km/h (3 Bft)
05.04.2026 21:27 26,4 °C 10,9 °C 39 % 66 % 1018,4 hPa 0,0 l/m² 17,3 km/h (3 Bft) W-SW 241 ° 0 min 0 W/m² 4,8 °C 5,4 °C 20,9 km/h (4 Bft)
05.04.2026 21:28 26,4 °C 10,8 °C 39 % 66 % 1018,4 hPa 0,0 l/m² 17,5 km/h (3 Bft) W-SW 255 ° 0 min 0 W/m² 4,7 °C 5,2 °C 20,9 km/h (4 Bft)
05.04.2026 21:29 26,4 °C 10,8 °C 39 % 66 % 1018,4 hPa 0,0 l/m² 16,5 km/h (3 Bft) W-SW 244 ° 0 min 0 W/m² 4,7 °C 5,5 °C 19,3 km/h (3 Bft)
05.04.2026 21:31 26,4 °C 10,7 °C 39 % 66 % 1018,3 hPa 0,0 l/m² 14,9 km/h (3 Bft) W 261 ° 0 min 0 W/m² 4,6 °C 6,0 °C 19,3 km/h (3 Bft)
05.04.2026 21:33 26,3 °C 10,7 °C 39 % 66 % 1018,3 hPa 0,0 l/m² 14,3 km/h (3 Bft) W-SW 253 ° 0 min 0 W/m² 4,6 °C 6,3 °C 17,7 km/h (3 Bft)
05.04.2026 21:34 26,3 °C 10,7 °C 39 % 66 % 1018,3 hPa 0,0 l/m² 14,3 km/h (3 Bft) W 265 ° 0 min 0 W/m² 4,6 °C 6,3 °C 16,1 km/h (3 Bft)
05.04.2026 21:35 26,3 °C 10,6 °C 39 % 67 % 1018,4 hPa 0,0 l/m² 14,9 km/h (3 Bft) W-SW 250 ° 0 min 0 W/m² 4,7 °C 5,9 °C 17,7 km/h (3 Bft)
05.04.2026 21:36 26,2 °C 10,6 °C 39 % 67 % 1018,4 hPa 0,0 l/m² 12,6 km/h (3 Bft) W-SW 243 ° 0 min 0 W/m² 4,7 °C 6,9 °C 14,5 km/h (3 Bft)
05.04.2026 21:37 26,2 °C 10,6 °C 39 % 67 % 1018,3 hPa 0,0 l/m² 12,7 km/h (3 Bft) W 259 ° 0 min 0 W/m² 4,7 °C 6,9 °C 14,5 km/h (3 Bft)
05.04.2026 21:38 26,2 °C 10,5 °C 39 % 67 % 1018,4 hPa 0,0 l/m² 11,2 km/h (2 Bft) W-SW 253 ° 0 min 0 W/m² 4,6 °C 7,5 °C 12,9 km/h (3 Bft)
05.04.2026 21:39 26,2 °C 10,5 °C 39 % 67 % 1018,3 hPa 0,0 l/m² 12,1 km/h (2 Bft) W-SW 248 ° 0 min 0 W/m² 4,6 °C 7,0 °C 12,9 km/h (3 Bft)
05.04.2026 21:41 26,1 °C 10,4 °C 39 % 67 % 1018,1 hPa 0,0 l/m² 13,0 km/h (3 Bft) W-SW 243 ° 0 min 0 W/m² 4,5 °C 6,5 °C 25,7 km/h (4 Bft)
05.04.2026 21:43 26,1 °C 10,4 °C 39 % 68 % 1018,2 hPa 0,0 l/m² 11,0 km/h (2 Bft) W-SW 252 ° 0 min 0 W/m² 4,8 °C 7,5 °C 16,1 km/h (3 Bft)
05.04.2026 21:45 26,0 °C 10,3 °C 39 % 68 % 1018,2 hPa 0,0 l/m² 12,1 km/h (2 Bft) W-SW 244 ° 0 min 0 W/m² 4,7 °C 6,8 °C 14,5 km/h (3 Bft)
05.04.2026 21:46 25,9 °C 10,3 °C 39 % 68 % 1018,3 hPa 0,0 l/m² 10,0 km/h (2 Bft) W-SW 243 ° 0 min 0 W/m² 4,7 °C 7,9 °C 12,9 km/h (3 Bft)
05.04.2026 21:47 25,9 °C 10,3 °C 40 % 68 % 1018,3 hPa 0,0 l/m² 11,5 km/h (2 Bft) W-SW 243 ° 0 min 0 W/m² 4,7 °C 7,1 °C 14,5 km/h (3 Bft)
05.04.2026 21:48 25,9 °C 10,2 °C 40 % 68 % 1018,4 hPa 0,0 l/m² 10,8 km/h (2 Bft) SW 225 ° 0 min 0 W/m² 4,6 °C 7,4 °C 16,1 km/h (3 Bft)
05.04.2026 21:49 25,9 °C 10,2 °C 40 % 68 % 1018,4 hPa 0,0 l/m² 9,7 km/h (2 Bft) SW 223 ° 0 min 0 W/m² 4,6 °C 8,0 °C 12,9 km/h (3 Bft)
05.04.2026 21:51 25,9 °C 10,2 °C 40 % 69 % 1018,4 hPa 0,0 l/m² 10,8 km/h (2 Bft) S-SW 211 ° 0 min 0 W/m² 4,8 °C 7,4 °C 14,5 km/h (3 Bft)
05.04.2026 21:53 25,8 °C 10,1 °C 40 % 69 % 1018,4 hPa 0,0 l/m² 12,9 km/h (3 Bft) SW 227 ° 0 min 0 W/m² 4,7 °C 6,2 °C 17,7 km/h (3 Bft)
05.04.2026 21:54 25,8 °C 10,1 °C 40 % 69 % 1018,4 hPa 0,0 l/m² 15,2 km/h (3 Bft) SW 230 ° 0 min 0 W/m² 4,7 °C 5,2 °C 17,7 km/h (3 Bft)
05.04.2026 21:55 25,7 °C 10,1 °C 40 % 69 % 1018,5 hPa 0,0 l/m² 14,3 km/h (3 Bft) SW 225 ° 0 min 0 W/m² 4,7 °C 5,6 °C 16,1 km/h (3 Bft)
05.04.2026 21:56 25,8 °C 10,0 °C 40 % 69 % 1018,5 hPa 0,0 l/m² 14,1 km/h (3 Bft) SW 225 ° 0 min 0 W/m² 4,6 °C 5,5 °C 16,1 km/h (3 Bft)
05.04.2026 21:57 25,7 °C 10,0 °C 40 % 69 % 1018,6 hPa 0,0 l/m² 14,1 km/h (3 Bft) SW 216 ° 0 min 0 W/m² 4,6 °C 5,5 °C 16,1 km/h (3 Bft)
05.04.2026 21:58 25,7 °C 9,9 °C 40 % 70 % 1018,6 hPa 0,0 l/m² 15,7 km/h (3 Bft) SW 229 ° 0 min 0 W/m² 4,7 °C 4,7 °C 19,3 km/h (3 Bft)
05.04.2026 21:59 25,7 °C 9,9 °C 40 % 70 % 1018,6 hPa 0,0 l/m² 14,8 km/h (3 Bft) SW 228 ° 0 min 0 W/m² 4,7 °C 5,1 °C 19,3 km/h (3 Bft)
05.04.2026 22:01 25,7 °C 9,8 °C 40 % 70 % 1018,6 hPa 0,0 l/m² 18,5 km/h (3 Bft) SW 221 ° 0 min 0 W/m² 4,6 °C 3,5 °C 25,7 km/h (4 Bft)
05.04.2026 22:03 25,6 °C 9,9 °C 40 % 70 % 1018,6 hPa 0,0 l/m² 19,1 km/h (3 Bft) SW 236 ° 0 min 0 W/m² 4,7 °C 3,5 °C 27,4 km/h (5 Bft)
05.04.2026 22:04 25,6 °C 9,8 °C 40 % 70 % 1018,6 hPa 0,0 l/m² 18,0 km/h (3 Bft) SW 227 ° 0 min 0 W/m² 4,6 °C 3,7 °C 22,5 km/h (4 Bft)
05.04.2026 22:05 25,6 °C 9,8 °C 40 % 71 % 1018,6 hPa 0,0 l/m² 18,1 km/h (3 Bft) SW 225 ° 0 min 0 W/m² 4,8 °C 3,7 °C 22,5 km/h (4 Bft)
05.04.2026 22:06 25,6 °C 9,9 °C 40 % 71 % 1018,7 hPa 0,0 l/m² 19,1 km/h (3 Bft) SW 233 ° 0 min 0 W/m² 4,9 °C 3,5 °C 22,5 km/h (4 Bft)
05.04.2026 22:07 25,6 °C 9,9 °C 40 % 71 % 1018,6 hPa 0,0 l/m² 17,4 km/h (3 Bft) SW 227 ° 0 min 0 W/m² 4,9 °C 4,1 °C 20,9 km/h (4 Bft)
05.04.2026 22:08 25,6 °C 9,9 °C 40 % 70 % 1018,6 hPa 0,0 l/m² 16,6 km/h (3 Bft) SW 217 ° 0 min 0 W/m² 4,7 °C 4,4 °C 22,5 km/h (4 Bft)
05.04.2026 22:09 25,5 °C 9,9 °C 40 % 70 % 1018,6 hPa 0,0 l/m² 17,5 km/h (3 Bft) W-SW 244 ° 0 min 0 W/m² 4,7 °C 4,0 °C 20,9 km/h (4 Bft)
05.04.2026 22:11 25,5 °C 10,0 °C 40 % 70 % 1018,7 hPa 0,0 l/m² 17,2 km/h (3 Bft) W-SW 246 ° 0 min 0 W/m² 4,8 °C 4,3 °C 24,1 km/h (4 Bft)
05.04.2026 22:13 25,4 °C 10,0 °C 40 % 70 % 1018,6 hPa 0,0 l/m² 12,8 km/h (3 Bft) SW 225 ° 0 min 0 W/m² 4,8 °C 6,1 °C 16,1 km/h (3 Bft)
05.04.2026 22:14 25,4 °C 10,0 °C 40 % 70 % 1018,7 hPa 0,0 l/m² 16,2 km/h (3 Bft) SW 227 ° 0 min 0 W/m² 4,8 °C 4,6 °C 20,9 km/h (4 Bft)
05.04.2026 22:15 25,4 °C 10,0 °C 41 % 70 % 1018,8 hPa 0,0 l/m² 18,5 km/h (3 Bft) SW 221 ° 0 min 0 W/m² 4,8 °C 3,8 °C 22,5 km/h (4 Bft)
05.04.2026 22:16 25,4 °C 10,1 °C 41 % 70 % 1018,8 hPa 0,0 l/m² 15,1 km/h (3 Bft) SW 218 ° 0 min 0 W/m² 4,9 °C 5,2 °C 19,3 km/h (3 Bft)
05.04.2026 22:17 25,3 °C 10,0 °C 40 % 70 % 1018,8 hPa 0,0 l/m² 16,4 km/h (3 Bft) SW 219 ° 0 min 0 W/m² 4,8 °C 4,6 °C 24,1 km/h (4 Bft)
05.04.2026 22:18 25,3 °C 10,1 °C 41 % 70 % 1018,8 hPa 0,0 l/m² 18,1 km/h (3 Bft) W-SW 244 ° 0 min 0 W/m² 4,9 °C 4,1 °C 20,9 km/h (4 Bft)
05.04.2026 22:19 25,3 °C 10,1 °C 41 % 70 % 1018,8 hPa 0,0 l/m² 17,5 km/h (3 Bft) W-SW 245 ° 0 min 0 W/m² 4,9 °C 4,3 °C 22,5 km/h (4 Bft)
05.04.2026 22:21 25,3 °C 10,1 °C 41 % 70 % 1018,8 hPa 0,0 l/m² 18,0 km/h (3 Bft) W-SW 251 ° 0 min 0 W/m² 4,9 °C 4,1 °C 27,4 km/h (5 Bft)
05.04.2026 22:23 25,3 °C 10,1 °C 41 % 70 % 1018,8 hPa 0,0 l/m² 25,5 km/h (4 Bft) W-SW 246 ° 0 min 0 W/m² 4,9 °C 1,8 °C 32,2 km/h (5 Bft)
05.04.2026 22:24 25,3 °C 10,1 °C 41 % 70 % 1018,7 hPa 0,0 l/m² 23,0 km/h (4 Bft) W-SW 242 ° 0 min 0 W/m² 4,9 °C 2,5 °C 30,6 km/h (5 Bft)
05.04.2026 22:25 25,2 °C 10,1 °C 41 % 69 % 1018,7 hPa 0,0 l/m² 23,5 km/h (4 Bft) SW 227 ° 0 min 0 W/m² 4,7 °C 2,4 °C 30,6 km/h (5 Bft)
05.04.2026 22:26 25,2 °C 10,2 °C 41 % 69 % 1018,7 hPa 0,0 l/m² 19,4 km/h (3 Bft) W-SW 245 ° 0 min 0 W/m² 4,8 °C 3,7 °C 24,1 km/h (4 Bft)
05.04.2026 22:27 25,2 °C 10,2 °C 41 % 69 % 1018,8 hPa 0,0 l/m² 18,3 km/h (3 Bft) W-SW 246 ° 0 min 0 W/m² 4,8 °C 4,1 °C 24,1 km/h (4 Bft)
05.04.2026 22:28 25,2 °C 10,2 °C 41 % 69 % 1018,8 hPa 0,0 l/m² 17,4 km/h (3 Bft) SW 236 ° 0 min 0 W/m² 4,8 °C 4,4 °C 20,9 km/h (4 Bft)
05.04.2026 22:29 25,2 °C 10,2 °C 41 % 69 % 1018,8 hPa 0,0 l/m² 15,0 km/h (3 Bft) W-SW 248 ° 0 min 0 W/m² 4,8 °C 5,4 °C 19,3 km/h (3 Bft)
05.04.2026 22:31 25,1 °C 10,2 °C 41 % 69 % 1018,8 hPa 0,0 l/m² 16,0 km/h (3 Bft) W-SW 250 ° 0 min 0 W/m² 4,8 °C 5,0 °C 22,5 km/h (4 Bft)
05.04.2026 22:33 25,1 °C 10,2 °C 41 % 69 % 1018,8 hPa 0,0 l/m² 15,0 km/h (3 Bft) W 259 ° 0 min 0 W/m² 4,8 °C 5,4 °C 24,1 km/h (4 Bft)
05.04.2026 22:34 25,1 °C 10,2 °C 41 % 69 % 1018,7 hPa 0,0 l/m² 12,7 km/h (3 Bft) W-SW 256 ° 0 min 0 W/m² 4,8 °C 6,4 °C 19,3 km/h (3 Bft)
05.04.2026 22:35 25,1 °C 10,2 °C 41 % 69 % 1018,7 hPa 0,0 l/m² 14,4 km/h (3 Bft) W-SW 250 ° 0 min 0 W/m² 4,8 °C 5,6 °C 17,7 km/h (3 Bft)
05.04.2026 22:36 25,0 °C 10,2 °C 41 % 69 % 1018,7 hPa 0,0 l/m² 16,1 km/h (3 Bft) W-SW 244 ° 0 min 0 W/m² 4,8 °C 4,9 °C 20,9 km/h (4 Bft)
05.04.2026 22:37 25,0 °C 10,2 °C 41 % 69 % 1018,8 hPa 0,0 l/m² 16,5 km/h (3 Bft) W 280 ° 0 min 0 W/m² 4,8 °C 4,8 °C 20,9 km/h (4 Bft)
05.04.2026 22:38 24,9 °C 10,2 °C 41 % 69 % 1018,8 hPa 0,0 l/m² 14,6 km/h (3 Bft) W-SW 251 ° 0 min 0 W/m² 4,8 °C 5,5 °C 20,9 km/h (4 Bft)
05.04.2026 22:39 24,9 °C 10,2 °C 41 % 69 % 1018,8 hPa 0,0 l/m² 15,8 km/h (3 Bft) W-SW 254 ° 0 min 0 W/m² 4,8 °C 5,1 °C 19,3 km/h (3 Bft)
05.04.2026 22:41 24,9 °C 10,1 °C 41 % 69 % 1019,0 hPa 0,0 l/m² 17,1 km/h (3 Bft) W-SW 258 ° 0 min 0 W/m² 4,7 °C 4,4 °C 22,5 km/h (4 Bft)
05.04.2026 22:43 24,8 °C 10,1 °C 41 % 69 % 1019,0 hPa 0,0 l/m² 15,0 km/h (3 Bft) W-SW 245 ° 0 min 0 W/m² 4,7 °C 5,3 °C 19,3 km/h (3 Bft)
05.04.2026 22:44 24,8 °C 10,1 °C 41 % 69 % 1019,0 hPa 0,0 l/m² 18,0 km/h (3 Bft) SW 234 ° 0 min 0 W/m² 4,7 °C 4,1 °C 22,5 km/h (4 Bft)
05.04.2026 22:45 24,8 °C 10,0 °C 41 % 69 % 1018,9 hPa 0,0 l/m² 14,1 km/h (3 Bft) W-SW 246 ° 0 min 0 W/m² 4,6 °C 5,5 °C 19,3 km/h (3 Bft)
05.04.2026 22:46 24,8 °C 10,0 °C 41 % 69 % 1018,8 hPa 0,0 l/m² 15,6 km/h (3 Bft) W-SW 246 ° 0 min 0 W/m² 4,6 °C 4,9 °C 20,9 km/h (4 Bft)
05.04.2026 22:47 24,8 °C 10,0 °C 41 % 69 % 1019,0 hPa 0,0 l/m² 15,7 km/h (3 Bft) W-SW 238 ° 0 min 0 W/m² 4,6 °C 4,8 °C 19,3 km/h (3 Bft)
05.04.2026 22:48 24,7 °C 10,0 °C 41 % 69 % 1019,0 hPa 0,0 l/m² 19,3 km/h (3 Bft) SW 227 ° 0 min 0 W/m² 4,6 °C 3,5 °C 22,5 km/h (4 Bft)
05.04.2026 22:49 24,7 °C 10,0 °C 41 % 69 % 1019,0 hPa 0,0 l/m² 13,3 km/h (3 Bft) SW 227 ° 0 min 0 W/m² 4,6 °C 5,9 °C 19,3 km/h (3 Bft)
05.04.2026 22:51 24,7 °C 9,9 °C 41 % 70 % 1019,0 hPa 0,0 l/m² 17,0 km/h (3 Bft) W-SW 248 ° 0 min 0 W/m² 4,7 °C 4,2 °C 22,5 km/h (4 Bft)
05.04.2026 22:53 24,7 °C 9,9 °C 41 % 70 % 1019,1 hPa 0,0 l/m² 18,9 km/h (3 Bft) W-SW 240 ° 0 min 0 W/m² 4,7 °C 3,5 °C 27,4 km/h (5 Bft)
05.04.2026 22:54 24,7 °C 9,8 °C 41 % 70 % 1019,0 hPa 0,0 l/m² 14,4 km/h (3 Bft) W-SW 238 ° 0 min 0 W/m² 4,6 °C 5,2 °C 19,3 km/h (3 Bft)
05.04.2026 22:55 24,6 °C 9,8 °C 41 % 70 % 1019,0 hPa 0,0 l/m² 16,1 km/h (3 Bft) SW 236 ° 0 min 0 W/m² 4,6 °C 4,4 °C 24,1 km/h (4 Bft)
05.04.2026 22:56 24,6 °C 9,8 °C 41 % 70 % 1019,0 hPa 0,0 l/m² 14,9 km/h (3 Bft) SW 225 ° 0 min 0 W/m² 4,6 °C 4,9 °C 22,5 km/h (4 Bft)
05.04.2026 22:57 24,6 °C 9,8 °C 41 % 70 % 1019,0 hPa 0,0 l/m² 19,3 km/h (3 Bft) SW 225 ° 0 min 0 W/m² 4,6 °C 3,3 °C 27,4 km/h (5 Bft)
05.04.2026 22:58 24,6 °C 9,8 °C 41 % 70 % 1019,0 hPa 0,0 l/m² 21,8 km/h (4 Bft) W-SW 240 ° 0 min 0 W/m² 4,6 °C 2,5 °C 24,1 km/h (4 Bft)
05.04.2026 22:59 24,6 °C 9,8 °C 41 % 70 % 1019,0 hPa 0,0 l/m² 19,6 km/h (3 Bft) SW 230 ° 0 min 0 W/m² 4,6 °C 3,2 °C 25,7 km/h (4 Bft)
05.04.2026 23:01 24,5 °C 9,7 °C 42 % 71 % 1019,2 hPa 0,0 l/m² 20,4 km/h (4 Bft) W 263 ° 0 min 0 W/m² 4,7 °C 2,8 °C 30,6 km/h (5 Bft)
05.04.2026 23:03 24,4 °C 9,7 °C 42 % 71 % 1019,1 hPa 0,0 l/m² 18,4 km/h (3 Bft) SW 236 ° 0 min 0 W/m² 4,7 °C 3,4 °C 24,1 km/h (4 Bft)
05.04.2026 23:04 24,4 °C 9,7 °C 42 % 71 % 1019,1 hPa 0,0 l/m² 18,4 km/h (3 Bft) SW 234 ° 0 min 0 W/m² 4,7 °C 3,4 °C 25,7 km/h (4 Bft)
05.04.2026 23:05 24,4 °C 9,6 °C 42 % 71 % 1019,1 hPa 0,0 l/m² 21,9 km/h (4 Bft) W-SW 239 ° 0 min 0 W/m² 4,6 °C 2,2 °C 27,4 km/h (5 Bft)
05.04.2026 23:06 24,4 °C 9,6 °C 42 % 71 % 1019,1 hPa 0,0 l/m² 17,4 km/h (3 Bft) W-SW 254 ° 0 min 0 W/m² 4,6 °C 3,7 °C 25,7 km/h (4 Bft)
05.04.2026 23:08 24,3 °C 9,6 °C 42 % 71 % 1019,1 hPa 0,0 l/m² 18,0 km/h (3 Bft) W-SW 245 ° 0 min 0 W/m² 4,6 °C 3,5 °C 25,7 km/h (4 Bft)
05.04.2026 23:09 24,3 °C 9,5 °C 42 % 71 % 1019,1 hPa 0,0 l/m² 17,7 km/h (3 Bft) W 263 ° 0 min 0 W/m² 4,5 °C 3,4 °C 20,9 km/h (4 Bft)
05.04.2026 23:11 24,3 °C 9,6 °C 42 % 71 % 1019,0 hPa 0,0 l/m² 14,4 km/h (3 Bft) W-SW 244 ° 0 min 0 W/m² 4,6 °C 4,9 °C 17,7 km/h (3 Bft)
05.04.2026 23:13 24,3 °C 9,5 °C 42 % 71 % 1019,0 hPa 0,0 l/m² 12,4 km/h (2 Bft) S-SW 211 ° 0 min 0 W/m² 4,5 °C 5,7 °C 17,7 km/h (3 Bft)
05.04.2026 23:14 24,3 °C 9,4 °C 42 % 71 % 1019,1 hPa 0,0 l/m² 14,5 km/h (3 Bft) W-SW 242 ° 0 min 0 W/m² 4,4 °C 4,6 °C 17,7 km/h (3 Bft)
05.04.2026 23:15 24,3 °C 9,4 °C 42 % 71 % 1019,1 hPa 0,0 l/m² 13,4 km/h (3 Bft) W-SW 242 ° 0 min 0 W/m² 4,4 °C 5,1 °C 16,1 km/h (3 Bft)
05.04.2026 23:16 24,3 °C 9,4 °C 42 % 71 % 1019,2 hPa 0,0 l/m² 12,9 km/h (3 Bft) W-SW 247 ° 0 min 0 W/m² 4,4 °C 5,4 °C 17,7 km/h (3 Bft)
05.04.2026 23:17 24,2 °C 9,4 °C 42 % 71 % 1019,3 hPa 0,0 l/m² 14,5 km/h (3 Bft) W-SW 247 ° 0 min 0 W/m² 4,4 °C 4,6 °C 17,7 km/h (3 Bft)
05.04.2026 23:22 24,2 °C 9,3 °C 42 % 72 % 1019,5 hPa 0,0 l/m² 18,3 km/h (3 Bft) W-SW 246 ° 0 min 0 W/m² 4,5 °C 3,0 °C 20,9 km/h (4 Bft)
05.04.2026 23:24 24,1 °C 9,3 °C 42 % 72 % 1019,6 hPa 0,0 l/m² 15,1 km/h (3 Bft) W-SW 252 ° 0 min 0 W/m² 4,5 °C 4,2 °C 24,1 km/h (4 Bft)
05.04.2026 23:26 24,1 °C 9,3 °C 42 % 72 % 1019,6 hPa 0,0 l/m² 15,1 km/h (3 Bft) W-SW 256 ° 0 min 0 W/m² 4,5 °C 4,2 °C 20,9 km/h (4 Bft)
05.04.2026 23:27 24,1 °C 9,2 °C 42 % 72 % 1019,7 hPa 0,0 l/m² 15,6 km/h (3 Bft) W-SW 241 ° 0 min 0 W/m² 4,4 °C 3,9 °C 20,9 km/h (4 Bft)
05.04.2026 23:28 24,1 °C 9,2 °C 42 % 72 % 1019,7 hPa 0,0 l/m² 13,9 km/h (3 Bft) W-SW 257 ° 0 min 0 W/m² 4,4 °C 4,7 °C 17,7 km/h (3 Bft)
05.04.2026 23:30 24,1 °C 9,2 °C 42 % 72 % 1019,6 hPa 0,0 l/m² 15,3 km/h (3 Bft) W-SW 242 ° 0 min 0 W/m² 4,4 °C 4,0 °C 24,1 km/h (4 Bft)
05.04.2026 23:31 24,1 °C 9,2 °C 42 % 72 % 1019,7 hPa 0,0 l/m² 16,2 km/h (3 Bft) W-SW 238 ° 0 min 0 W/m² 4,4 °C 3,7 °C 20,9 km/h (4 Bft)
05.04.2026 23:32 24,1 °C 9,2 °C 42 % 72 % 1019,7 hPa 0,0 l/m² 15,9 km/h (3 Bft) W-SW 251 ° 0 min 0 W/m² 4,4 °C 3,8 °C 17,7 km/h (3 Bft)
05.04.2026 23:35 23,9 °C 9,2 °C 42 % 72 % 1019,8 hPa 0,0 l/m² 15,8 km/h (3 Bft) SW 223 ° 0 min 0 W/m² 4,4 °C 3,8 °C 24,1 km/h (4 Bft)
05.04.2026 23:37 24,0 °C 9,2 °C 42 % 72 % 1019,8 hPa 0,0 l/m² 10,2 km/h (2 Bft) SW 230 ° 0 min 0 W/m² 4,4 °C 6,6 °C 17,7 km/h (3 Bft)
05.04.2026 23:39 23,9 °C 9,2 °C 42 % 72 % 1019,9 hPa 0,0 l/m² 8,8 km/h (2 Bft) SW 232 ° 0 min 0 W/m² 4,4 °C 7,5 °C 14,5 km/h (3 Bft)
05.04.2026 23:40 23,9 °C 9,2 °C 42 % 72 % 1019,8 hPa 0,0 l/m² 8,1 km/h (2 Bft) SW 233 ° 0 min 0 W/m² 4,4 °C 7,9 °C 9,7 km/h (2 Bft)
05.04.2026 23:41 23,9 °C 9,2 °C 42 % 72 % 1019,9 hPa 0,0 l/m² 9,2 km/h (2 Bft) SW 231 ° 0 min 0 W/m² 4,4 °C 7,2 °C 12,9 km/h (3 Bft)
05.04.2026 23:42 23,9 °C 9,2 °C 42 % 72 % 1019,9 hPa 0,0 l/m² 9,2 km/h (2 Bft) SW 232 ° 0 min 0 W/m² 4,4 °C 7,2 °C 11,3 km/h (2 Bft)
05.04.2026 23:44 23,9 °C 9,2 °C 42 % 73 % 1019,9 hPa 0,0 l/m² 10,7 km/h (2 Bft) SW 229 ° 0 min 0 W/m² 4,6 °C 6,3 °C 16,1 km/h (3 Bft)
05.04.2026 23:46 23,9 °C 9,2 °C 42 % 73 % 1019,9 hPa 0,0 l/m² 11,3 km/h (2 Bft) SW 225 ° 0 min 0 W/m² 4,6 °C 6,0 °C 20,9 km/h (4 Bft)
05.04.2026 23:48 23,8 °C 9,2 °C 42 % 73 % 1019,9 hPa 0,0 l/m² 13,1 km/h (3 Bft) W-SW 245 ° 0 min 0 W/m² 4,6 °C 5,0 °C 19,3 km/h (3 Bft)
05.04.2026 23:50 23,8 °C 9,2 °C 43 % 73 % 1020,0 hPa 0,0 l/m² 14,8 km/h (3 Bft) W-SW 256 ° 0 min 0 W/m² 4,6 °C 4,3 °C 20,9 km/h (4 Bft)
05.04.2026 23:51 23,8 °C 9,2 °C 43 % 73 % 1020,0 hPa 0,0 l/m² 14,0 km/h (3 Bft) SW 225 ° 0 min 0 W/m² 4,6 °C 4,6 °C 17,7 km/h (3 Bft)
05.04.2026 23:52 23,8 °C 9,2 °C 43 % 73 % 1020,0 hPa 0,0 l/m² 9,7 km/h (2 Bft) SW 232 ° 0 min 0 W/m² 4,6 °C 6,9 °C 12,9 km/h (3 Bft)
05.04.2026 23:55 23,8 °C 9,2 °C 43 % 73 % 1019,9 hPa 0,0 l/m² 11,6 km/h (2 Bft) SW 236 ° 0 min 0 W/m² 4,6 °C 5,8 °C 24,1 km/h (4 Bft)
05.04.2026 23:57 23,7 °C 9,2 °C 43 % 73 % 1019,9 hPa 0,0 l/m² 9,4 km/h (2 Bft) SW 233 ° 0 min 0 W/m² 4,6 °C 7,1 °C 11,3 km/h (2 Bft)
05.04.2026 23:59 23,7 °C 9,2 °C 43 % 73 % 1020,0 hPa 0,0 l/m² 8,9 km/h (2 Bft) SW 229 ° 0 min 0 W/m² 4,6 °C 7,4 °C 16,1 km/h (3 Bft)
_ Min-Zeit 15:38 23:59 19:09 16:18 10:26 - 07:36 - - - - 19:35 22:23 07:54
Minimum _ 18,7 °C 9,2 °C 33 % 49 % 1011,8 hPa - 0,1 km/h (0 Bft) - - - - 4,4 °C 1,8 °C 1,6 km/h (1 Bft)
_ Max-Zeit 19:19 13:32 16:38 07:30 23:59 23:59 15:38 - - 12:06 13:22 11:39 13:26 17:19
Maximum _ 30,6 °C 20,3 °C 48 % 87 % 1020,0 hPa 0,0 l/m² 36,3 km/h
SW (5 Bft)
- - 5 min 979 W/m² 10,8 °C 16,3 °C 54,7 km/h
W-SW (7 Bft)
Durchschnitt _ 21,2 °C 13,4 °C 45 % 70 % 1015,0 hPa #0,0 l/m² 16,9 km/h (3 Bft) W-SW - #9:46 h 103 W/m² 7,8 °C 9,5 °C 23,3 km/h (4 Bft)
© 2009 Mathias Hoßbach